<?xml version="1.0" encoding="UTF-8" standalone="no" ?>
<gpx xmlns="http://www.topografix.com/GPX/1/1" xmlns:xsi="http://www.w3.org/2001/XMLSchema-instance" xsi:schemaLocation="http://www.topografix.com/GPX/1/1 http://www.topografix.com/GPX/1/1/gpx.xsd" version="1.1" creator="VisuGPX - https://www.visugpx.com">
  <metadata>
    <name>Almería</name>
  </metadata>
  <trk>
    <name><![CDATA[Almería]]></name>
    <extensions>
      <line xmlns="http://www.topografix.com/GPX/gpx_style/0/2">
        <color>0000FF</color>
        <width>4</width>
      </line>
    </extensions>
    <trkseg>
      <trkpt lat="36.83408" lon="-2.46324">
        <ele>64.339795</ele>
        <time>2022-04-23T09:03:32.000Z</time>
      </trkpt>
      <trkpt lat="36.83426" lon="-2.46326">
        <ele>64.339795</ele>
        <time>2022-04-23T09:03:38.000Z</time>
      </trkpt>
      <trkpt lat="36.83427" lon="-2.4632">
        <ele>64.339795</ele>
        <time>2022-04-23T09:03:40.000Z</time>
      </trkpt>
      <trkpt lat="36.83438" lon="-2.46315">
        <ele>64.339795</ele>
        <time>2022-04-23T09:03:44.000Z</time>
      </trkpt>
      <trkpt lat="36.83448" lon="-2.4631">
        <ele>64.339795</ele>
        <time>2022-04-23T09:03:46.000Z</time>
      </trkpt>
      <trkpt lat="36.8345" lon="-2.46308">
        <ele>64.339795</ele>
        <time>2022-04-23T09:03:47.000Z</time>
      </trkpt>
      <trkpt lat="36.83456" lon="-2.46303">
        <ele>64.339795</ele>
        <time>2022-04-23T09:03:49.000Z</time>
      </trkpt>
      <trkpt lat="36.83457" lon="-2.463">
        <ele>64.339795</ele>
        <time>2022-04-23T09:03:50.000Z</time>
      </trkpt>
      <trkpt lat="36.83471" lon="-2.46291">
        <ele>64.339795</ele>
        <time>2022-04-23T09:03:54.000Z</time>
      </trkpt>
      <trkpt lat="36.83469" lon="-2.46282">
        <ele>64.339795</ele>
        <time>2022-04-23T09:03:57.000Z</time>
      </trkpt>
      <trkpt lat="36.8347" lon="-2.4628">
        <ele>64.339795</ele>
        <time>2022-04-23T09:03:58.000Z</time>
      </trkpt>
      <trkpt lat="36.83495" lon="-2.46276">
        <ele>64.143091</ele>
        <time>2022-04-23T09:04:02.000Z</time>
      </trkpt>
      <trkpt lat="36.83501" lon="-2.46275">
        <ele>64.079472</ele>
        <time>2022-04-23T09:04:03.000Z</time>
      </trkpt>
      <trkpt lat="36.83504" lon="-2.46272">
        <ele>64.035781</ele>
        <time>2022-04-23T09:04:04.000Z</time>
      </trkpt>
      <trkpt lat="36.83502" lon="-2.46266">
        <ele>63.979054</ele>
        <time>2022-04-23T09:04:06.000Z</time>
      </trkpt>
      <trkpt lat="36.83499" lon="-2.4626">
        <ele>63.914327</ele>
        <time>2022-04-23T09:04:08.000Z</time>
      </trkpt>
      <trkpt lat="36.83495" lon="-2.4625">
        <ele>63.813405</ele>
        <time>2022-04-23T09:04:11.000Z</time>
      </trkpt>
      <trkpt lat="36.8349" lon="-2.46238">
        <ele>63.69451</ele>
        <time>2022-04-23T09:04:14.000Z</time>
      </trkpt>
      <trkpt lat="36.83483" lon="-2.46221">
        <ele>63.526495</ele>
        <time>2022-04-23T09:04:20.000Z</time>
      </trkpt>
      <trkpt lat="36.8348" lon="-2.46214">
        <ele>63.451406</ele>
        <time>2022-04-23T09:04:25.000Z</time>
      </trkpt>
      <trkpt lat="36.83476" lon="-2.46216">
        <ele>63.405338</ele>
        <time>2022-04-23T09:04:28.000Z</time>
      </trkpt>
      <trkpt lat="36.83474" lon="-2.46221">
        <ele>63.356093</ele>
        <time>2022-04-23T09:04:30.000Z</time>
      </trkpt>
      <trkpt lat="36.83473" lon="-2.46227">
        <ele>63.298402</ele>
        <time>2022-04-23T09:04:32.000Z</time>
      </trkpt>
      <trkpt lat="36.83471" lon="-2.46232">
        <ele>63.247907</ele>
        <time>2022-04-23T09:04:34.000Z</time>
      </trkpt>
      <trkpt lat="36.83469" lon="-2.46234">
        <ele>63.22076</ele>
        <time>2022-04-23T09:04:35.000Z</time>
      </trkpt>
      <trkpt lat="36.83462" lon="-2.4624">
        <ele>63.121771</ele>
        <time>2022-04-23T09:04:38.000Z</time>
      </trkpt>
      <trkpt lat="36.8346" lon="-2.46242">
        <ele>63.095728</ele>
        <time>2022-04-23T09:04:39.000Z</time>
      </trkpt>
      <trkpt lat="36.83457" lon="-2.46247">
        <ele>63.033289</ele>
        <time>2022-04-23T09:04:41.000Z</time>
      </trkpt>
      <trkpt lat="36.83448" lon="-2.46253">
        <ele>62.921456</ele>
        <time>2022-04-23T09:04:43.000Z</time>
      </trkpt>
      <trkpt lat="36.83432" lon="-2.4626">
        <ele>62.735128</ele>
        <time>2022-04-23T09:04:46.000Z</time>
      </trkpt>
      <trkpt lat="36.83426" lon="-2.46263">
        <ele>62.663641</ele>
        <time>2022-04-23T09:04:48.000Z</time>
      </trkpt>
      <trkpt lat="36.83415" lon="-2.46265">
        <ele>62.534045</ele>
        <time>2022-04-23T09:04:53.000Z</time>
      </trkpt>
      <trkpt lat="36.8341" lon="-2.46264">
        <ele>62.476906</ele>
        <time>2022-04-23T09:04:58.000Z</time>
      </trkpt>
      <trkpt lat="36.83408" lon="-2.46264">
        <ele>62.456705</ele>
        <time>2022-04-23T09:04:59.000Z</time>
      </trkpt>
      <trkpt lat="36.83407" lon="-2.46264">
        <ele>62.440764</ele>
        <time>2022-04-23T09:05:00.000Z</time>
      </trkpt>
      <trkpt lat="36.83403" lon="-2.46264">
        <ele>62.393415</ele>
        <time>2022-04-23T09:05:04.000Z</time>
      </trkpt>
      <trkpt lat="36.83397" lon="-2.46269">
        <ele>62.323433</ele>
        <time>2022-04-23T09:05:07.000Z</time>
      </trkpt>
      <trkpt lat="36.83394" lon="-2.46274">
        <ele>62.272387</ele>
        <time>2022-04-23T09:05:09.000Z</time>
      </trkpt>
      <trkpt lat="36.83392" lon="-2.46277">
        <ele>62.238723</ele>
        <time>2022-04-23T09:05:13.000Z</time>
      </trkpt>
      <trkpt lat="36.83392" lon="-2.46277">
        <ele>62.233847</ele>
        <time>2022-04-23T09:05:15.000Z</time>
      </trkpt>
      <trkpt lat="36.83391" lon="-2.46278">
        <ele>62.224704</ele>
        <time>2022-04-23T09:05:26.000Z</time>
      </trkpt>
      <trkpt lat="36.83388" lon="-2.46279">
        <ele>62.194214</ele>
        <time>2022-04-23T09:05:30.000Z</time>
      </trkpt>
      <trkpt lat="36.83384" lon="-2.46282">
        <ele>62.148504</ele>
        <time>2022-04-23T09:05:32.000Z</time>
      </trkpt>
      <trkpt lat="36.83379" lon="-2.46285">
        <ele>62.096843</ele>
        <time>2022-04-23T09:05:34.000Z</time>
      </trkpt>
      <trkpt lat="36.83373" lon="-2.46286">
        <ele>62.037796</ele>
        <time>2022-04-23T09:05:37.000Z</time>
      </trkpt>
      <trkpt lat="36.83371" lon="-2.46288">
        <ele>62.009662</ele>
        <time>2022-04-23T09:05:39.000Z</time>
      </trkpt>
      <trkpt lat="36.83363" lon="-2.46294">
        <ele>61.918617</ele>
        <time>2022-04-23T09:05:43.000Z</time>
      </trkpt>
      <trkpt lat="36.83346" lon="-2.46303">
        <ele>61.739152</ele>
        <time>2022-04-23T09:05:49.000Z</time>
      </trkpt>
      <trkpt lat="36.83343" lon="-2.46304">
        <ele>61.712092</ele>
        <time>2022-04-23T09:05:50.000Z</time>
      </trkpt>
      <trkpt lat="36.83333" lon="-2.46307">
        <ele>61.612747</ele>
        <time>2022-04-23T09:05:56.000Z</time>
      </trkpt>
      <trkpt lat="36.83332" lon="-2.46307">
        <ele>61.600635</ele>
        <time>2022-04-23T09:06:00.000Z</time>
      </trkpt>
      <trkpt lat="36.83332" lon="-2.46307">
        <ele>61.599854</ele>
        <time>2022-04-23T09:06:01.000Z</time>
      </trkpt>
      <trkpt lat="36.83332" lon="-2.46309">
        <ele>61.584738</ele>
        <time>2022-04-23T09:06:10.000Z</time>
      </trkpt>
      <trkpt lat="36.8333" lon="-2.4631">
        <ele>61.56654</ele>
        <time>2022-04-23T09:06:11.000Z</time>
      </trkpt>
      <trkpt lat="36.83328" lon="-2.46311">
        <ele>61.546118</ele>
        <time>2022-04-23T09:06:12.000Z</time>
      </trkpt>
      <trkpt lat="36.83321" lon="-2.46314">
        <ele>61.4797</ele>
        <time>2022-04-23T09:06:17.000Z</time>
      </trkpt>
      <trkpt lat="36.83319" lon="-2.46318">
        <ele>61.439713</ele>
        <time>2022-04-23T09:06:21.000Z</time>
      </trkpt>
      <trkpt lat="36.83312" lon="-2.46331">
        <ele>61.315345</ele>
        <time>2022-04-23T09:06:26.000Z</time>
      </trkpt>
      <trkpt lat="36.83299" lon="-2.46338">
        <ele>61.175994</ele>
        <time>2022-04-23T09:06:31.000Z</time>
      </trkpt>
      <trkpt lat="36.83287" lon="-2.46336">
        <ele>61.061213</ele>
        <time>2022-04-23T09:06:35.000Z</time>
      </trkpt>
      <trkpt lat="36.83276" lon="-2.46323">
        <ele>60.91462</ele>
        <time>2022-04-23T09:06:40.000Z</time>
      </trkpt>
      <trkpt lat="36.83268" lon="-2.46302">
        <ele>60.728847</ele>
        <time>2022-04-23T09:06:45.000Z</time>
      </trkpt>
      <trkpt lat="36.83265" lon="-2.46293">
        <ele>60.655285</ele>
        <time>2022-04-23T09:06:47.000Z</time>
      </trkpt>
      <trkpt lat="36.83253" lon="-2.46264">
        <ele>60.555166</ele>
        <time>2022-04-23T09:06:53.000Z</time>
      </trkpt>
      <trkpt lat="36.83235" lon="-2.46215">
        <ele>60.525324</ele>
        <time>2022-04-23T09:07:03.000Z</time>
      </trkpt>
      <trkpt lat="36.83219" lon="-2.46173">
        <ele>60.499029</ele>
        <time>2022-04-23T09:07:11.000Z</time>
      </trkpt>
      <trkpt lat="36.83215" lon="-2.46162">
        <ele>60.492341</ele>
        <time>2022-04-23T09:07:13.000Z</time>
      </trkpt>
      <trkpt lat="36.83201" lon="-2.46124">
        <ele>60.469002</ele>
        <time>2022-04-23T09:07:20.000Z</time>
      </trkpt>
      <trkpt lat="36.83197" lon="-2.46113">
        <ele>60.462282</ele>
        <time>2022-04-23T09:07:22.000Z</time>
      </trkpt>
      <trkpt lat="36.8319" lon="-2.46092">
        <ele>60.449653</ele>
        <time>2022-04-23T09:07:26.000Z</time>
      </trkpt>
      <trkpt lat="36.83189" lon="-2.46082">
        <ele>60.443883</ele>
        <time>2022-04-23T09:07:28.000Z</time>
      </trkpt>
      <trkpt lat="36.83189" lon="-2.46071">
        <ele>60.496055</ele>
        <time>2022-04-23T09:07:30.000Z</time>
      </trkpt>
      <trkpt lat="36.83187" lon="-2.46045">
        <ele>60.705509</ele>
        <time>2022-04-23T09:07:35.000Z</time>
      </trkpt>
      <trkpt lat="36.83185" lon="-2.46021">
        <ele>60.889101</ele>
        <time>2022-04-23T09:07:40.000Z</time>
      </trkpt>
      <trkpt lat="36.83183" lon="-2.46013">
        <ele>60.95555</ele>
        <time>2022-04-23T09:07:42.000Z</time>
      </trkpt>
      <trkpt lat="36.83181" lon="-2.4601">
        <ele>60.987058</ele>
        <time>2022-04-23T09:07:43.000Z</time>
      </trkpt>
      <trkpt lat="36.8317" lon="-2.45982">
        <ele>61.236173</ele>
        <time>2022-04-23T09:07:51.000Z</time>
      </trkpt>
      <trkpt lat="36.83154" lon="-2.45947">
        <ele>61.549432</ele>
        <time>2022-04-23T09:08:01.000Z</time>
      </trkpt>
      <trkpt lat="36.83141" lon="-2.45908">
        <ele>61.880913</ele>
        <time>2022-04-23T09:08:09.000Z</time>
      </trkpt>
      <trkpt lat="36.83138" lon="-2.45898">
        <ele>61.964998</ele>
        <time>2022-04-23T09:08:11.000Z</time>
      </trkpt>
      <trkpt lat="36.83131" lon="-2.45878">
        <ele>62.136842</ele>
        <time>2022-04-23T09:08:15.000Z</time>
      </trkpt>
      <trkpt lat="36.83119" lon="-2.45849">
        <ele>61.953035</ele>
        <time>2022-04-23T09:08:21.000Z</time>
      </trkpt>
      <trkpt lat="36.83117" lon="-2.45845">
        <ele>61.905975</ele>
        <time>2022-04-23T09:08:22.000Z</time>
      </trkpt>
      <trkpt lat="36.83094" lon="-2.45802">
        <ele>61.33718</ele>
        <time>2022-04-23T09:08:31.000Z</time>
      </trkpt>
      <trkpt lat="36.83086" lon="-2.45788">
        <ele>61.151665</ele>
        <time>2022-04-23T09:08:34.000Z</time>
      </trkpt>
      <trkpt lat="36.83081" lon="-2.45778">
        <ele>61.028853</ele>
        <time>2022-04-23T09:08:36.000Z</time>
      </trkpt>
      <trkpt lat="36.83079" lon="-2.45774">
        <ele>60.966502</ele>
        <time>2022-04-23T09:08:37.000Z</time>
      </trkpt>
      <trkpt lat="36.83067" lon="-2.4575">
        <ele>60.661899</ele>
        <time>2022-04-23T09:08:42.000Z</time>
      </trkpt>
      <trkpt lat="36.83062" lon="-2.45741">
        <ele>60.544441</ele>
        <time>2022-04-23T09:08:44.000Z</time>
      </trkpt>
      <trkpt lat="36.83043" lon="-2.45711">
        <ele>60.129412</ele>
        <time>2022-04-23T09:08:51.000Z</time>
      </trkpt>
      <trkpt lat="36.83039" lon="-2.45704">
        <ele>60.034749</ele>
        <time>2022-04-23T09:08:53.000Z</time>
      </trkpt>
      <trkpt lat="36.83034" lon="-2.45693">
        <ele>59.889705</ele>
        <time>2022-04-23T09:08:56.000Z</time>
      </trkpt>
      <trkpt lat="36.83032" lon="-2.45688">
        <ele>59.835661</ele>
        <time>2022-04-23T09:08:57.000Z</time>
      </trkpt>
      <trkpt lat="36.83029" lon="-2.45684">
        <ele>59.781792</ele>
        <time>2022-04-23T09:08:58.000Z</time>
      </trkpt>
      <trkpt lat="36.83015" lon="-2.45656">
        <ele>59.383827</ele>
        <time>2022-04-23T09:09:05.000Z</time>
      </trkpt>
      <trkpt lat="36.82997" lon="-2.45624">
        <ele>58.907059</ele>
        <time>2022-04-23T09:09:14.000Z</time>
      </trkpt>
      <trkpt lat="36.82981" lon="-2.45605">
        <ele>58.578483</ele>
        <time>2022-04-23T09:09:20.000Z</time>
      </trkpt>
      <trkpt lat="36.82978" lon="-2.45602">
        <ele>58.516695</ele>
        <time>2022-04-23T09:09:21.000Z</time>
      </trkpt>
      <trkpt lat="36.82971" lon="-2.45595">
        <ele>58.383946</ele>
        <time>2022-04-23T09:09:23.000Z</time>
      </trkpt>
      <trkpt lat="36.82968" lon="-2.4559">
        <ele>58.311247</ele>
        <time>2022-04-23T09:09:24.000Z</time>
      </trkpt>
      <trkpt lat="36.82964" lon="-2.45581">
        <ele>58.18853</ele>
        <time>2022-04-23T09:09:26.000Z</time>
      </trkpt>
      <trkpt lat="36.82945" lon="-2.45547">
        <ele>57.687865</ele>
        <time>2022-04-23T09:09:33.000Z</time>
      </trkpt>
      <trkpt lat="36.82922" lon="-2.45506">
        <ele>57.082946</ele>
        <time>2022-04-23T09:09:41.000Z</time>
      </trkpt>
      <trkpt lat="36.82898" lon="-2.45461">
        <ele>57.071016</ele>
        <time>2022-04-23T09:09:49.000Z</time>
      </trkpt>
      <trkpt lat="36.82866" lon="-2.45404">
        <ele>57.090585</ele>
        <time>2022-04-23T09:09:59.000Z</time>
      </trkpt>
      <trkpt lat="36.82832" lon="-2.45348">
        <ele>57.11016</ele>
        <time>2022-04-23T09:10:09.000Z</time>
      </trkpt>
      <trkpt lat="36.82801" lon="-2.45294">
        <ele>57.113893</ele>
        <time>2022-04-23T09:10:19.000Z</time>
      </trkpt>
      <trkpt lat="36.82772" lon="-2.45244">
        <ele>57.103763</ele>
        <time>2022-04-23T09:10:28.000Z</time>
      </trkpt>
      <trkpt lat="36.82767" lon="-2.45234">
        <ele>57.101777</ele>
        <time>2022-04-23T09:10:30.000Z</time>
      </trkpt>
      <trkpt lat="36.82743" lon="-2.45195">
        <ele>57.093656</ele>
        <time>2022-04-23T09:10:37.000Z</time>
      </trkpt>
      <trkpt lat="36.82728" lon="-2.45173">
        <ele>57.089024</ele>
        <time>2022-04-23T09:10:41.000Z</time>
      </trkpt>
      <trkpt lat="36.82704" lon="-2.45136">
        <ele>57.084047</ele>
        <time>2022-04-23T09:10:48.000Z</time>
      </trkpt>
      <trkpt lat="36.82701" lon="-2.45131">
        <ele>57.085473</ele>
        <time>2022-04-23T09:10:49.000Z</time>
      </trkpt>
      <trkpt lat="36.82682" lon="-2.451">
        <ele>57.093662</ele>
        <time>2022-04-23T09:10:55.000Z</time>
      </trkpt>
      <trkpt lat="36.82676" lon="-2.4509">
        <ele>57.096396</ele>
        <time>2022-04-23T09:10:57.000Z</time>
      </trkpt>
      <trkpt lat="36.82672" lon="-2.45085">
        <ele>57.097772</ele>
        <time>2022-04-23T09:10:58.000Z</time>
      </trkpt>
      <trkpt lat="36.82647" lon="-2.45044">
        <ele>57.108743</ele>
        <time>2022-04-23T09:11:06.000Z</time>
      </trkpt>
      <trkpt lat="36.8264" lon="-2.45034">
        <ele>57.111444</ele>
        <time>2022-04-23T09:11:08.000Z</time>
      </trkpt>
      <trkpt lat="36.82637" lon="-2.45029">
        <ele>57.112737</ele>
        <time>2022-04-23T09:11:09.000Z</time>
      </trkpt>
      <trkpt lat="36.82611" lon="-2.44986">
        <ele>57.12419</ele>
        <time>2022-04-23T09:11:18.000Z</time>
      </trkpt>
      <trkpt lat="36.82585" lon="-2.44945">
        <ele>57.389917</ele>
        <time>2022-04-23T09:11:27.000Z</time>
      </trkpt>
      <trkpt lat="36.82579" lon="-2.44934">
        <ele>57.519187</ele>
        <time>2022-04-23T09:11:29.000Z</time>
      </trkpt>
      <trkpt lat="36.8255" lon="-2.4489">
        <ele>58.094299</ele>
        <time>2022-04-23T09:11:38.000Z</time>
      </trkpt>
      <trkpt lat="36.82519" lon="-2.44841">
        <ele>58.72875</ele>
        <time>2022-04-23T09:11:48.000Z</time>
      </trkpt>
      <trkpt lat="36.82514" lon="-2.44832">
        <ele>58.841085</ele>
        <time>2022-04-23T09:11:50.000Z</time>
      </trkpt>
      <trkpt lat="36.82502" lon="-2.4481">
        <ele>59.104255</ele>
        <time>2022-04-23T09:11:54.000Z</time>
      </trkpt>
      <trkpt lat="36.82499" lon="-2.44805">
        <ele>59.174001</ele>
        <time>2022-04-23T09:11:55.000Z</time>
      </trkpt>
      <trkpt lat="36.82495" lon="-2.448">
        <ele>59.246351</ele>
        <time>2022-04-23T09:11:56.000Z</time>
      </trkpt>
      <trkpt lat="36.82487" lon="-2.44789">
        <ele>59.393593</ele>
        <time>2022-04-23T09:11:58.000Z</time>
      </trkpt>
      <trkpt lat="36.82484" lon="-2.44784">
        <ele>59.434202</ele>
        <time>2022-04-23T09:11:59.000Z</time>
      </trkpt>
      <trkpt lat="36.82479" lon="-2.44775">
        <ele>59.490699</ele>
        <time>2022-04-23T09:12:01.000Z</time>
      </trkpt>
      <trkpt lat="36.82478" lon="-2.44772">
        <ele>59.50796</ele>
        <time>2022-04-23T09:12:02.000Z</time>
      </trkpt>
      <trkpt lat="36.82478" lon="-2.44765">
        <ele>59.547034</ele>
        <time>2022-04-23T09:12:04.000Z</time>
      </trkpt>
      <trkpt lat="36.82477" lon="-2.44763">
        <ele>59.560199</ele>
        <time>2022-04-23T09:12:05.000Z</time>
      </trkpt>
      <trkpt lat="36.82471" lon="-2.44754">
        <ele>59.62032</ele>
        <time>2022-04-23T09:12:08.000Z</time>
      </trkpt>
      <trkpt lat="36.82463" lon="-2.44739">
        <ele>59.713389</ele>
        <time>2022-04-23T09:12:12.000Z</time>
      </trkpt>
      <trkpt lat="36.82442" lon="-2.44707">
        <ele>59.929909</ele>
        <time>2022-04-23T09:12:20.000Z</time>
      </trkpt>
      <trkpt lat="36.82417" lon="-2.44667">
        <ele>60.192754</ele>
        <time>2022-04-23T09:12:29.000Z</time>
      </trkpt>
      <trkpt lat="36.8239" lon="-2.44625">
        <ele>60.473075</ele>
        <time>2022-04-23T09:12:38.000Z</time>
      </trkpt>
      <trkpt lat="36.82387" lon="-2.44622">
        <ele>60.49827</ele>
        <time>2022-04-23T09:12:39.000Z</time>
      </trkpt>
      <trkpt lat="36.82377" lon="-2.44607">
        <ele>60.570509</ele>
        <time>2022-04-23T09:12:42.000Z</time>
      </trkpt>
      <trkpt lat="36.82368" lon="-2.44593">
        <ele>60.550004</ele>
        <time>2022-04-23T09:12:45.000Z</time>
      </trkpt>
      <trkpt lat="36.82364" lon="-2.44588">
        <ele>60.541089</ele>
        <time>2022-04-23T09:12:46.000Z</time>
      </trkpt>
      <trkpt lat="36.82361" lon="-2.44583">
        <ele>60.533551</ele>
        <time>2022-04-23T09:12:47.000Z</time>
      </trkpt>
      <trkpt lat="36.82342" lon="-2.44555">
        <ele>60.490525</ele>
        <time>2022-04-23T09:12:53.000Z</time>
      </trkpt>
      <trkpt lat="36.82329" lon="-2.44536">
        <ele>60.460927</ele>
        <time>2022-04-23T09:12:57.000Z</time>
      </trkpt>
      <trkpt lat="36.82299" lon="-2.44492">
        <ele>60.391875</ele>
        <time>2022-04-23T09:13:07.000Z</time>
      </trkpt>
      <trkpt lat="36.82268" lon="-2.44447">
        <ele>60.320629</ele>
        <time>2022-04-23T09:13:17.000Z</time>
      </trkpt>
      <trkpt lat="36.82265" lon="-2.44435">
        <ele>60.300681</ele>
        <time>2022-04-23T09:13:19.000Z</time>
      </trkpt>
      <trkpt lat="36.82265" lon="-2.4443">
        <ele>60.288375</ele>
        <time>2022-04-23T09:13:20.000Z</time>
      </trkpt>
      <trkpt lat="36.82263" lon="-2.44421">
        <ele>60.260359</ele>
        <time>2022-04-23T09:13:22.000Z</time>
      </trkpt>
      <trkpt lat="36.8226" lon="-2.44416">
        <ele>60.24196</ele>
        <time>2022-04-23T09:13:23.000Z</time>
      </trkpt>
      <trkpt lat="36.82249" lon="-2.444">
        <ele>60.179699</ele>
        <time>2022-04-23T09:13:27.000Z</time>
      </trkpt>
      <trkpt lat="36.82246" lon="-2.44395">
        <ele>60.159938</ele>
        <time>2022-04-23T09:13:28.000Z</time>
      </trkpt>
      <trkpt lat="36.82243" lon="-2.4439">
        <ele>60.143343</ele>
        <time>2022-04-23T09:13:29.000Z</time>
      </trkpt>
      <trkpt lat="36.82219" lon="-2.44356">
        <ele>60.010582</ele>
        <time>2022-04-23T09:13:37.000Z</time>
      </trkpt>
      <trkpt lat="36.82208" lon="-2.44342">
        <ele>59.955935</ele>
        <time>2022-04-23T09:13:40.000Z</time>
      </trkpt>
      <trkpt lat="36.82174" lon="-2.44294">
        <ele>59.768805</ele>
        <time>2022-04-23T09:13:50.000Z</time>
      </trkpt>
      <trkpt lat="36.82162" lon="-2.44276">
        <ele>59.700153</ele>
        <time>2022-04-23T09:13:54.000Z</time>
      </trkpt>
      <trkpt lat="36.82153" lon="-2.44263">
        <ele>59.657044</ele>
        <time>2022-04-23T09:13:57.000Z</time>
      </trkpt>
      <trkpt lat="36.82151" lon="-2.4425">
        <ele>59.672659</ele>
        <time>2022-04-23T09:14:00.000Z</time>
      </trkpt>
      <trkpt lat="36.82149" lon="-2.44246">
        <ele>59.677644</ele>
        <time>2022-04-23T09:14:01.000Z</time>
      </trkpt>
      <trkpt lat="36.82135" lon="-2.4423">
        <ele>59.704153</ele>
        <time>2022-04-23T09:14:06.000Z</time>
      </trkpt>
      <trkpt lat="36.82127" lon="-2.44227">
        <ele>59.714799</ele>
        <time>2022-04-23T09:14:08.000Z</time>
      </trkpt>
      <trkpt lat="36.82122" lon="-2.44219">
        <ele>59.726712</ele>
        <time>2022-04-23T09:14:10.000Z</time>
      </trkpt>
      <trkpt lat="36.82097" lon="-2.44185">
        <ele>59.778788</ele>
        <time>2022-04-23T09:14:18.000Z</time>
      </trkpt>
      <trkpt lat="36.82071" lon="-2.44148">
        <ele>59.833101</ele>
        <time>2022-04-23T09:14:26.000Z</time>
      </trkpt>
      <trkpt lat="36.82061" lon="-2.44135">
        <ele>59.854203</ele>
        <time>2022-04-23T09:14:29.000Z</time>
      </trkpt>
      <trkpt lat="36.82037" lon="-2.44102">
        <ele>59.903223</ele>
        <time>2022-04-23T09:14:36.000Z</time>
      </trkpt>
      <trkpt lat="36.82" lon="-2.44051">
        <ele>59.942764</ele>
        <time>2022-04-23T09:14:47.000Z</time>
      </trkpt>
      <trkpt lat="36.81988" lon="-2.44034">
        <ele>59.955686</ele>
        <time>2022-04-23T09:14:51.000Z</time>
      </trkpt>
      <trkpt lat="36.81981" lon="-2.44027">
        <ele>59.961908</ele>
        <time>2022-04-23T09:14:53.000Z</time>
      </trkpt>
      <trkpt lat="36.81978" lon="-2.44024">
        <ele>59.964337</ele>
        <time>2022-04-23T09:14:54.000Z</time>
      </trkpt>
      <trkpt lat="36.81962" lon="-2.44001">
        <ele>59.981259</ele>
        <time>2022-04-23T09:14:59.000Z</time>
      </trkpt>
      <trkpt lat="36.81953" lon="-2.43988">
        <ele>59.990547</ele>
        <time>2022-04-23T09:15:02.000Z</time>
      </trkpt>
      <trkpt lat="36.81947" lon="-2.43978">
        <ele>59.997157</ele>
        <time>2022-04-23T09:15:04.000Z</time>
      </trkpt>
      <trkpt lat="36.8194" lon="-2.43967">
        <ele>60.004628</ele>
        <time>2022-04-23T09:15:06.000Z</time>
      </trkpt>
      <trkpt lat="36.81938" lon="-2.43964">
        <ele>60.007205</ele>
        <time>2022-04-23T09:15:07.000Z</time>
      </trkpt>
      <trkpt lat="36.81902" lon="-2.43912">
        <ele>60.053152</ele>
        <time>2022-04-23T09:15:18.000Z</time>
      </trkpt>
      <trkpt lat="36.8188" lon="-2.43882">
        <ele>60.088252</ele>
        <time>2022-04-23T09:15:25.000Z</time>
      </trkpt>
      <trkpt lat="36.81871" lon="-2.4387">
        <ele>60.102513</ele>
        <time>2022-04-23T09:15:28.000Z</time>
      </trkpt>
      <trkpt lat="36.81856" lon="-2.43849">
        <ele>60.126636</ele>
        <time>2022-04-23T09:15:33.000Z</time>
      </trkpt>
      <trkpt lat="36.81848" lon="-2.43837">
        <ele>60.140578</ele>
        <time>2022-04-23T09:15:36.000Z</time>
      </trkpt>
      <trkpt lat="36.81819" lon="-2.43795">
        <ele>60.188251</ele>
        <time>2022-04-23T09:15:46.000Z</time>
      </trkpt>
      <trkpt lat="36.81807" lon="-2.43778">
        <ele>60.208093</ele>
        <time>2022-04-23T09:15:50.000Z</time>
      </trkpt>
      <trkpt lat="36.81806" lon="-2.43767">
        <ele>60.217664</ele>
        <time>2022-04-23T09:15:52.000Z</time>
      </trkpt>
      <trkpt lat="36.81805" lon="-2.43758">
        <ele>60.225702</ele>
        <time>2022-04-23T09:15:54.000Z</time>
      </trkpt>
      <trkpt lat="36.81803" lon="-2.43756">
        <ele>60.231045</ele>
        <time>2022-04-23T09:15:55.000Z</time>
      </trkpt>
      <trkpt lat="36.81784" lon="-2.43745">
        <ele>60.27234</ele>
        <time>2022-04-23T09:16:00.000Z</time>
      </trkpt>
      <trkpt lat="36.81775" lon="-2.43733">
        <ele>60.297365</ele>
        <time>2022-04-23T09:16:03.000Z</time>
      </trkpt>
      <trkpt lat="36.81773" lon="-2.43728">
        <ele>60.305983</ele>
        <time>2022-04-23T09:16:04.000Z</time>
      </trkpt>
      <trkpt lat="36.81771" lon="-2.43724">
        <ele>60.314524</ele>
        <time>2022-04-23T09:16:05.000Z</time>
      </trkpt>
      <trkpt lat="36.81758" lon="-2.43707">
        <ele>60.350795</ele>
        <time>2022-04-23T09:16:09.000Z</time>
      </trkpt>
      <trkpt lat="36.81755" lon="-2.43702">
        <ele>60.360822</ele>
        <time>2022-04-23T09:16:10.000Z</time>
      </trkpt>
      <trkpt lat="36.81724" lon="-2.43658">
        <ele>60.454587</ele>
        <time>2022-04-23T09:16:19.000Z</time>
      </trkpt>
      <trkpt lat="36.81706" lon="-2.43632">
        <ele>60.50814</ele>
        <time>2022-04-23T09:16:24.000Z</time>
      </trkpt>
      <trkpt lat="36.81693" lon="-2.43612">
        <ele>60.54929</ele>
        <time>2022-04-23T09:16:28.000Z</time>
      </trkpt>
      <trkpt lat="36.81689" lon="-2.43607">
        <ele>60.560185</ele>
        <time>2022-04-23T09:16:29.000Z</time>
      </trkpt>
      <trkpt lat="36.81671" lon="-2.43582">
        <ele>60.81261</ele>
        <time>2022-04-23T09:16:34.000Z</time>
      </trkpt>
      <trkpt lat="36.81646" lon="-2.43548">
        <ele>61.332489</ele>
        <time>2022-04-23T09:16:42.000Z</time>
      </trkpt>
      <trkpt lat="36.8164" lon="-2.4354">
        <ele>61.454344</ele>
        <time>2022-04-23T09:16:44.000Z</time>
      </trkpt>
      <trkpt lat="36.81628" lon="-2.43523">
        <ele>61.701483</ele>
        <time>2022-04-23T09:16:48.000Z</time>
      </trkpt>
      <trkpt lat="36.81618" lon="-2.43509">
        <ele>61.902671</ele>
        <time>2022-04-23T09:16:51.000Z</time>
      </trkpt>
      <trkpt lat="36.81616" lon="-2.43506">
        <ele>61.949617</ele>
        <time>2022-04-23T09:16:52.000Z</time>
      </trkpt>
      <trkpt lat="36.8161" lon="-2.43497">
        <ele>62.078344</ele>
        <time>2022-04-23T09:16:55.000Z</time>
      </trkpt>
      <trkpt lat="36.81608" lon="-2.43493">
        <ele>62.137064</ele>
        <time>2022-04-23T09:16:57.000Z</time>
      </trkpt>
      <trkpt lat="36.81607" lon="-2.43489">
        <ele>62.178003</ele>
        <time>2022-04-23T09:16:58.000Z</time>
      </trkpt>
      <trkpt lat="36.81608" lon="-2.43483">
        <ele>62.244075</ele>
        <time>2022-04-23T09:17:00.000Z</time>
      </trkpt>
      <trkpt lat="36.81609" lon="-2.43481">
        <ele>62.274206</ele>
        <time>2022-04-23T09:17:02.000Z</time>
      </trkpt>
      <trkpt lat="36.8161" lon="-2.4348">
        <ele>62.289572</ele>
        <time>2022-04-23T09:17:03.000Z</time>
      </trkpt>
      <trkpt lat="36.8161" lon="-2.4348">
        <ele>62.303159</ele>
        <time>2022-04-23T09:17:04.000Z</time>
      </trkpt>
      <trkpt lat="36.81612" lon="-2.43478">
        <ele>62.335671</ele>
        <time>2022-04-23T09:17:06.000Z</time>
      </trkpt>
      <trkpt lat="36.81616" lon="-2.43476">
        <ele>62.390685</ele>
        <time>2022-04-23T09:17:09.000Z</time>
      </trkpt>
      <trkpt lat="36.81618" lon="-2.43474">
        <ele>62.420302</ele>
        <time>2022-04-23T09:17:12.000Z</time>
      </trkpt>
      <trkpt lat="36.81618" lon="-2.43473">
        <ele>62.440607</ele>
        <time>2022-04-23T09:17:14.000Z</time>
      </trkpt>
      <trkpt lat="36.81618" lon="-2.43468">
        <ele>62.497391</ele>
        <time>2022-04-23T09:17:17.000Z</time>
      </trkpt>
      <trkpt lat="36.81617" lon="-2.43465">
        <ele>62.53126</ele>
        <time>2022-04-23T09:17:18.000Z</time>
      </trkpt>
      <trkpt lat="36.81615" lon="-2.43439">
        <ele>62.822142</ele>
        <time>2022-04-23T09:17:25.000Z</time>
      </trkpt>
      <trkpt lat="36.81615" lon="-2.4343">
        <ele>62.918006</ele>
        <time>2022-04-23T09:17:27.000Z</time>
      </trkpt>
      <trkpt lat="36.81615" lon="-2.43426">
        <ele>62.968197</ele>
        <time>2022-04-23T09:17:28.000Z</time>
      </trkpt>
      <trkpt lat="36.81614" lon="-2.43416">
        <ele>63.073332</ele>
        <time>2022-04-23T09:17:30.000Z</time>
      </trkpt>
      <trkpt lat="36.81614" lon="-2.43402">
        <ele>63.123221</ele>
        <time>2022-04-23T09:17:33.000Z</time>
      </trkpt>
      <trkpt lat="36.8161" lon="-2.43345">
        <ele>63.295188</ele>
        <time>2022-04-23T09:17:44.000Z</time>
      </trkpt>
      <trkpt lat="36.81607" lon="-2.43302">
        <ele>63.426923</ele>
        <time>2022-04-23T09:17:52.000Z</time>
      </trkpt>
      <trkpt lat="36.81607" lon="-2.4327">
        <ele>63.524827</ele>
        <time>2022-04-23T09:17:57.000Z</time>
      </trkpt>
      <trkpt lat="36.81602" lon="-2.43209">
        <ele>63.709961</ele>
        <time>2022-04-23T09:18:07.000Z</time>
      </trkpt>
      <trkpt lat="36.816" lon="-2.43181">
        <ele>63.878756</ele>
        <time>2022-04-23T09:18:12.000Z</time>
      </trkpt>
      <trkpt lat="36.816" lon="-2.43176">
        <ele>63.929101</ele>
        <time>2022-04-23T09:18:13.000Z</time>
      </trkpt>
      <trkpt lat="36.81601" lon="-2.43172">
        <ele>63.982096</ele>
        <time>2022-04-23T09:18:15.000Z</time>
      </trkpt>
      <trkpt lat="36.81601" lon="-2.4317">
        <ele>63.997368</ele>
        <time>2022-04-23T09:18:16.000Z</time>
      </trkpt>
      <trkpt lat="36.81601" lon="-2.43161">
        <ele>64.095544</ele>
        <time>2022-04-23T09:18:21.000Z</time>
      </trkpt>
      <trkpt lat="36.81599" lon="-2.43139">
        <ele>64.34271</ele>
        <time>2022-04-23T09:18:26.000Z</time>
      </trkpt>
      <trkpt lat="36.81598" lon="-2.43122">
        <ele>64.518674</ele>
        <time>2022-04-23T09:18:29.000Z</time>
      </trkpt>
      <trkpt lat="36.81598" lon="-2.43111">
        <ele>64.645396</ele>
        <time>2022-04-23T09:18:31.000Z</time>
      </trkpt>
      <trkpt lat="36.81597" lon="-2.43099">
        <ele>64.771109</ele>
        <time>2022-04-23T09:18:33.000Z</time>
      </trkpt>
      <trkpt lat="36.81597" lon="-2.43094">
        <ele>64.830156</ele>
        <time>2022-04-23T09:18:34.000Z</time>
      </trkpt>
      <trkpt lat="36.81594" lon="-2.43068">
        <ele>65.119398</ele>
        <time>2022-04-23T09:18:39.000Z</time>
      </trkpt>
      <trkpt lat="36.81594" lon="-2.43063">
        <ele>65.173282</ele>
        <time>2022-04-23T09:18:40.000Z</time>
      </trkpt>
      <trkpt lat="36.81592" lon="-2.43042">
        <ele>65.40424</ele>
        <time>2022-04-23T09:18:45.000Z</time>
      </trkpt>
      <trkpt lat="36.81592" lon="-2.43038">
        <ele>65.443534</ele>
        <time>2022-04-23T09:18:46.000Z</time>
      </trkpt>
      <trkpt lat="36.81592" lon="-2.43016">
        <ele>65.685797</ele>
        <time>2022-04-23T09:18:52.000Z</time>
      </trkpt>
      <trkpt lat="36.81591" lon="-2.43009">
        <ele>65.759201</ele>
        <time>2022-04-23T09:18:54.000Z</time>
      </trkpt>
      <trkpt lat="36.81589" lon="-2.42979">
        <ele>66.089652</ele>
        <time>2022-04-23T09:19:02.000Z</time>
      </trkpt>
      <trkpt lat="36.81588" lon="-2.42937">
        <ele>66.117344</ele>
        <time>2022-04-23T09:19:12.000Z</time>
      </trkpt>
      <trkpt lat="36.81586" lon="-2.42903">
        <ele>66.009543</ele>
        <time>2022-04-23T09:19:19.000Z</time>
      </trkpt>
      <trkpt lat="36.81586" lon="-2.42899">
        <ele>65.994632</ele>
        <time>2022-04-23T09:19:20.000Z</time>
      </trkpt>
      <trkpt lat="36.81585" lon="-2.42881">
        <ele>65.940258</ele>
        <time>2022-04-23T09:19:24.000Z</time>
      </trkpt>
      <trkpt lat="36.81584" lon="-2.4286">
        <ele>65.871009</ele>
        <time>2022-04-23T09:19:29.000Z</time>
      </trkpt>
      <trkpt lat="36.81582" lon="-2.42847">
        <ele>65.831864</ele>
        <time>2022-04-23T09:19:32.000Z</time>
      </trkpt>
      <trkpt lat="36.81582" lon="-2.42839">
        <ele>65.804835</ele>
        <time>2022-04-23T09:19:34.000Z</time>
      </trkpt>
      <trkpt lat="36.81581" lon="-2.42825">
        <ele>65.761006</ele>
        <time>2022-04-23T09:19:37.000Z</time>
      </trkpt>
      <trkpt lat="36.8158" lon="-2.4279">
        <ele>65.649572</ele>
        <time>2022-04-23T09:19:44.000Z</time>
      </trkpt>
      <trkpt lat="36.81577" lon="-2.42763">
        <ele>65.563777</ele>
        <time>2022-04-23T09:19:49.000Z</time>
      </trkpt>
      <trkpt lat="36.81576" lon="-2.42739">
        <ele>65.438271</ele>
        <time>2022-04-23T09:19:53.000Z</time>
      </trkpt>
      <trkpt lat="36.81575" lon="-2.4272">
        <ele>65.163204</ele>
        <time>2022-04-23T09:19:56.000Z</time>
      </trkpt>
      <trkpt lat="36.81574" lon="-2.42713">
        <ele>65.063033</ele>
        <time>2022-04-23T09:19:57.000Z</time>
      </trkpt>
      <trkpt lat="36.8157" lon="-2.42697">
        <ele>64.833842</ele>
        <time>2022-04-23T09:19:59.000Z</time>
      </trkpt>
      <trkpt lat="36.81569" lon="-2.42691">
        <ele>64.749541</ele>
        <time>2022-04-23T09:20:00.000Z</time>
      </trkpt>
      <trkpt lat="36.81568" lon="-2.42677">
        <ele>64.545585</ele>
        <time>2022-04-23T09:20:02.000Z</time>
      </trkpt>
      <trkpt lat="36.81567" lon="-2.42655">
        <ele>64.233534</ele>
        <time>2022-04-23T09:20:05.000Z</time>
      </trkpt>
      <trkpt lat="36.81566" lon="-2.42631">
        <ele>63.895942</ele>
        <time>2022-04-23T09:20:08.000Z</time>
      </trkpt>
      <trkpt lat="36.81566" lon="-2.42611">
        <ele>63.614141</ele>
        <time>2022-04-23T09:20:11.000Z</time>
      </trkpt>
      <trkpt lat="36.81562" lon="-2.42556">
        <ele>62.837211</ele>
        <time>2022-04-23T09:20:19.000Z</time>
      </trkpt>
      <trkpt lat="36.81557" lon="-2.42492">
        <ele>62.228849</ele>
        <time>2022-04-23T09:20:28.000Z</time>
      </trkpt>
      <trkpt lat="36.81555" lon="-2.4246">
        <ele>62.109478</ele>
        <time>2022-04-23T09:20:32.000Z</time>
      </trkpt>
      <trkpt lat="36.81554" lon="-2.42438">
        <ele>62.027214</ele>
        <time>2022-04-23T09:20:35.000Z</time>
      </trkpt>
      <trkpt lat="36.81554" lon="-2.42423">
        <ele>61.970449</ele>
        <time>2022-04-23T09:20:37.000Z</time>
      </trkpt>
      <trkpt lat="36.81557" lon="-2.42378">
        <ele>61.803697</ele>
        <time>2022-04-23T09:20:43.000Z</time>
      </trkpt>
      <trkpt lat="36.81566" lon="-2.42334">
        <ele>61.634557</ele>
        <time>2022-04-23T09:20:49.000Z</time>
      </trkpt>
      <trkpt lat="36.81587" lon="-2.42267">
        <ele>61.538747</ele>
        <time>2022-04-23T09:20:59.000Z</time>
      </trkpt>
      <trkpt lat="36.81608" lon="-2.42223">
        <ele>61.599327</ele>
        <time>2022-04-23T09:21:07.000Z</time>
      </trkpt>
      <trkpt lat="36.81626" lon="-2.42191">
        <ele>61.645187</ele>
        <time>2022-04-23T09:21:13.000Z</time>
      </trkpt>
      <trkpt lat="36.81632" lon="-2.42181">
        <ele>61.660119</ele>
        <time>2022-04-23T09:21:15.000Z</time>
      </trkpt>
      <trkpt lat="36.81643" lon="-2.42161">
        <ele>61.688376</ele>
        <time>2022-04-23T09:21:19.000Z</time>
      </trkpt>
      <trkpt lat="36.81646" lon="-2.42156">
        <ele>61.695526</ele>
        <time>2022-04-23T09:21:20.000Z</time>
      </trkpt>
      <trkpt lat="36.81655" lon="-2.42142">
        <ele>61.716358</ele>
        <time>2022-04-23T09:21:23.000Z</time>
      </trkpt>
      <trkpt lat="36.81671" lon="-2.42112">
        <ele>61.758528</ele>
        <time>2022-04-23T09:21:29.000Z</time>
      </trkpt>
      <trkpt lat="36.81681" lon="-2.42094">
        <ele>61.925842</ele>
        <time>2022-04-23T09:21:33.000Z</time>
      </trkpt>
      <trkpt lat="36.81705" lon="-2.42047">
        <ele>62.373962</ele>
        <time>2022-04-23T09:21:43.000Z</time>
      </trkpt>
      <trkpt lat="36.81713" lon="-2.42026">
        <ele>62.560216</ele>
        <time>2022-04-23T09:21:47.000Z</time>
      </trkpt>
      <trkpt lat="36.81721" lon="-2.42005">
        <ele>62.743199</ele>
        <time>2022-04-23T09:21:51.000Z</time>
      </trkpt>
      <trkpt lat="36.81726" lon="-2.4199">
        <ele>62.872202</ele>
        <time>2022-04-23T09:21:54.000Z</time>
      </trkpt>
      <trkpt lat="36.81728" lon="-2.41986">
        <ele>62.914897</ele>
        <time>2022-04-23T09:21:55.000Z</time>
      </trkpt>
      <trkpt lat="36.81735" lon="-2.41966">
        <ele>63.084539</ele>
        <time>2022-04-23T09:21:59.000Z</time>
      </trkpt>
      <trkpt lat="36.81742" lon="-2.41948">
        <ele>63.246149</ele>
        <time>2022-04-23T09:22:03.000Z</time>
      </trkpt>
      <trkpt lat="36.81755" lon="-2.41904">
        <ele>63.548974</ele>
        <time>2022-04-23T09:22:11.000Z</time>
      </trkpt>
      <trkpt lat="36.81767" lon="-2.4186">
        <ele>63.46047</ele>
        <time>2022-04-23T09:22:18.000Z</time>
      </trkpt>
      <trkpt lat="36.81778" lon="-2.41821">
        <ele>63.381605</ele>
        <time>2022-04-23T09:22:24.000Z</time>
      </trkpt>
      <trkpt lat="36.81784" lon="-2.41802">
        <ele>63.342366</ele>
        <time>2022-04-23T09:22:27.000Z</time>
      </trkpt>
      <trkpt lat="36.81799" lon="-2.41748">
        <ele>63.234829</ele>
        <time>2022-04-23T09:22:35.000Z</time>
      </trkpt>
      <trkpt lat="36.81801" lon="-2.41742">
        <ele>63.22131</ele>
        <time>2022-04-23T09:22:36.000Z</time>
      </trkpt>
      <trkpt lat="36.81816" lon="-2.41688">
        <ele>63.174096</ele>
        <time>2022-04-23T09:22:44.000Z</time>
      </trkpt>
      <trkpt lat="36.81823" lon="-2.41657">
        <ele>63.273241</ele>
        <time>2022-04-23T09:22:49.000Z</time>
      </trkpt>
      <trkpt lat="36.81827" lon="-2.41639">
        <ele>63.333394</ele>
        <time>2022-04-23T09:22:52.000Z</time>
      </trkpt>
      <trkpt lat="36.81833" lon="-2.41608">
        <ele>63.433464</ele>
        <time>2022-04-23T09:22:57.000Z</time>
      </trkpt>
      <trkpt lat="36.81836" lon="-2.41588">
        <ele>63.495757</ele>
        <time>2022-04-23T09:23:00.000Z</time>
      </trkpt>
      <trkpt lat="36.81844" lon="-2.41545">
        <ele>63.636034</ele>
        <time>2022-04-23T09:23:07.000Z</time>
      </trkpt>
      <trkpt lat="36.81852" lon="-2.41501">
        <ele>63.777822</ele>
        <time>2022-04-23T09:23:14.000Z</time>
      </trkpt>
      <trkpt lat="36.81863" lon="-2.41443">
        <ele>63.745867</ele>
        <time>2022-04-23T09:23:23.000Z</time>
      </trkpt>
      <trkpt lat="36.81868" lon="-2.41417">
        <ele>63.678714</ele>
        <time>2022-04-23T09:23:27.000Z</time>
      </trkpt>
      <trkpt lat="36.81875" lon="-2.41384">
        <ele>63.594668</ele>
        <time>2022-04-23T09:23:32.000Z</time>
      </trkpt>
      <trkpt lat="36.81893" lon="-2.41326">
        <ele>63.441512</ele>
        <time>2022-04-23T09:23:41.000Z</time>
      </trkpt>
      <trkpt lat="36.81914" lon="-2.4128">
        <ele>63.311812</ele>
        <time>2022-04-23T09:23:48.000Z</time>
      </trkpt>
      <trkpt lat="36.81938" lon="-2.41233">
        <ele>63.162802</ele>
        <time>2022-04-23T09:23:56.000Z</time>
      </trkpt>
      <trkpt lat="36.81945" lon="-2.41221">
        <ele>63.124641</ele>
        <time>2022-04-23T09:23:58.000Z</time>
      </trkpt>
      <trkpt lat="36.8195" lon="-2.41209">
        <ele>63.087402</ele>
        <time>2022-04-23T09:24:00.000Z</time>
      </trkpt>
      <trkpt lat="36.81963" lon="-2.41186">
        <ele>63.011195</ele>
        <time>2022-04-23T09:24:04.000Z</time>
      </trkpt>
      <trkpt lat="36.81992" lon="-2.41133">
        <ele>62.83929</ele>
        <time>2022-04-23T09:24:13.000Z</time>
      </trkpt>
      <trkpt lat="36.8202" lon="-2.41097">
        <ele>62.704889</ele>
        <time>2022-04-23T09:24:20.000Z</time>
      </trkpt>
      <trkpt lat="36.82039" lon="-2.41076">
        <ele>62.665944</ele>
        <time>2022-04-23T09:24:25.000Z</time>
      </trkpt>
      <trkpt lat="36.82041" lon="-2.41072">
        <ele>62.662533</ele>
        <time>2022-04-23T09:24:26.000Z</time>
      </trkpt>
      <trkpt lat="36.82044" lon="-2.4106">
        <ele>62.65356</ele>
        <time>2022-04-23T09:24:29.000Z</time>
      </trkpt>
      <trkpt lat="36.82047" lon="-2.41057">
        <ele>62.650251</ele>
        <time>2022-04-23T09:24:30.000Z</time>
      </trkpt>
      <trkpt lat="36.82076" lon="-2.41032">
        <ele>62.618835</ele>
        <time>2022-04-23T09:24:38.000Z</time>
      </trkpt>
      <trkpt lat="36.82105" lon="-2.41007">
        <ele>62.587724</ele>
        <time>2022-04-23T09:24:46.000Z</time>
      </trkpt>
      <trkpt lat="36.82114" lon="-2.41003">
        <ele>62.579132</ele>
        <time>2022-04-23T09:24:49.000Z</time>
      </trkpt>
      <trkpt lat="36.82117" lon="-2.41004">
        <ele>62.576088</ele>
        <time>2022-04-23T09:24:50.000Z</time>
      </trkpt>
      <trkpt lat="36.82129" lon="-2.41001">
        <ele>62.564764</ele>
        <time>2022-04-23T09:24:54.000Z</time>
      </trkpt>
      <trkpt lat="36.82158" lon="-2.40979">
        <ele>62.534999</ele>
        <time>2022-04-23T09:25:01.000Z</time>
      </trkpt>
      <trkpt lat="36.82194" lon="-2.40951">
        <ele>62.392813</ele>
        <time>2022-04-23T09:25:09.000Z</time>
      </trkpt>
      <trkpt lat="36.82235" lon="-2.40917">
        <ele>62.169415</ele>
        <time>2022-04-23T09:25:18.000Z</time>
      </trkpt>
      <trkpt lat="36.82274" lon="-2.40887">
        <ele>61.966582</ele>
        <time>2022-04-23T09:25:26.000Z</time>
      </trkpt>
      <trkpt lat="36.82309" lon="-2.40862">
        <ele>61.785549</ele>
        <time>2022-04-23T09:25:33.000Z</time>
      </trkpt>
      <trkpt lat="36.8234" lon="-2.40839">
        <ele>61.506553</ele>
        <time>2022-04-23T09:25:39.000Z</time>
      </trkpt>
      <trkpt lat="36.82385" lon="-2.40801">
        <ele>60.954274</ele>
        <time>2022-04-23T09:25:48.000Z</time>
      </trkpt>
      <trkpt lat="36.82395" lon="-2.40792">
        <ele>60.829007</ele>
        <time>2022-04-23T09:25:50.000Z</time>
      </trkpt>
      <trkpt lat="36.82414" lon="-2.40772">
        <ele>60.574396</ele>
        <time>2022-04-23T09:25:54.000Z</time>
      </trkpt>
      <trkpt lat="36.82447" lon="-2.40738">
        <ele>60.144259</ele>
        <time>2022-04-23T09:26:01.000Z</time>
      </trkpt>
      <trkpt lat="36.82489" lon="-2.40694">
        <ele>59.897482</ele>
        <time>2022-04-23T09:26:10.000Z</time>
      </trkpt>
      <trkpt lat="36.82504" lon="-2.40678">
        <ele>59.898331</ele>
        <time>2022-04-23T09:26:13.000Z</time>
      </trkpt>
      <trkpt lat="36.82544" lon="-2.40638">
        <ele>59.900522</ele>
        <time>2022-04-23T09:26:22.000Z</time>
      </trkpt>
      <trkpt lat="36.82573" lon="-2.40608">
        <ele>59.902127</ele>
        <time>2022-04-23T09:26:29.000Z</time>
      </trkpt>
      <trkpt lat="36.82585" lon="-2.40594">
        <ele>59.902839</ele>
        <time>2022-04-23T09:26:32.000Z</time>
      </trkpt>
      <trkpt lat="36.8259" lon="-2.4059">
        <ele>59.903074</ele>
        <time>2022-04-23T09:26:33.000Z</time>
      </trkpt>
      <trkpt lat="36.82625" lon="-2.40551">
        <ele>59.778161</ele>
        <time>2022-04-23T09:26:42.000Z</time>
      </trkpt>
      <trkpt lat="36.82665" lon="-2.405">
        <ele>59.524864</ele>
        <time>2022-04-23T09:26:52.000Z</time>
      </trkpt>
      <trkpt lat="36.82672" lon="-2.40491">
        <ele>59.477902</ele>
        <time>2022-04-23T09:26:54.000Z</time>
      </trkpt>
      <trkpt lat="36.82675" lon="-2.40487">
        <ele>59.461438</ele>
        <time>2022-04-23T09:26:55.000Z</time>
      </trkpt>
      <trkpt lat="36.82684" lon="-2.40476">
        <ele>59.403006</ele>
        <time>2022-04-23T09:27:00.000Z</time>
      </trkpt>
      <trkpt lat="36.82684" lon="-2.40474">
        <ele>59.397705</ele>
        <time>2022-04-23T09:27:01.000Z</time>
      </trkpt>
      <trkpt lat="36.82685" lon="-2.40474">
        <ele>59.395387</ele>
        <time>2022-04-23T09:27:03.000Z</time>
      </trkpt>
      <trkpt lat="36.82685" lon="-2.40474">
        <ele>59.395387</ele>
        <time>2022-04-23T09:27:04.000Z</time>
      </trkpt>
      <trkpt lat="36.82685" lon="-2.40474">
        <ele>59.395387</ele>
        <time>2022-04-23T09:27:08.000Z</time>
      </trkpt>
      <trkpt lat="36.82685" lon="-2.40474">
        <ele>59.395387</ele>
        <time>2022-04-23T09:27:16.000Z</time>
      </trkpt>
      <trkpt lat="36.82685" lon="-2.40474">
        <ele>59.395387</ele>
        <time>2022-04-23T09:27:28.000Z</time>
      </trkpt>
      <trkpt lat="36.82684" lon="-2.40474">
        <ele>59.393605</ele>
        <time>2022-04-23T09:27:37.000Z</time>
      </trkpt>
      <trkpt lat="36.82684" lon="-2.40474">
        <ele>59.393605</ele>
        <time>2022-04-23T09:27:42.000Z</time>
      </trkpt>
      <trkpt lat="36.82684" lon="-2.40473">
        <ele>59.392464</ele>
        <time>2022-04-23T09:27:43.000Z</time>
      </trkpt>
      <trkpt lat="36.82688" lon="-2.4047">
        <ele>59.371695</ele>
        <time>2022-04-23T09:27:45.000Z</time>
      </trkpt>
      <trkpt lat="36.82693" lon="-2.40464">
        <ele>59.343248</ele>
        <time>2022-04-23T09:27:47.000Z</time>
      </trkpt>
      <trkpt lat="36.82702" lon="-2.40449">
        <ele>59.273347</ele>
        <time>2022-04-23T09:27:51.000Z</time>
      </trkpt>
      <trkpt lat="36.82724" lon="-2.40413">
        <ele>59.114896</ele>
        <time>2022-04-23T09:27:59.000Z</time>
      </trkpt>
      <trkpt lat="36.82737" lon="-2.40388">
        <ele>59.138376</ele>
        <time>2022-04-23T09:28:04.000Z</time>
      </trkpt>
      <trkpt lat="36.8275" lon="-2.40367">
        <ele>59.172864</ele>
        <time>2022-04-23T09:28:08.000Z</time>
      </trkpt>
      <trkpt lat="36.82781" lon="-2.40305">
        <ele>59.27158</ele>
        <time>2022-04-23T09:28:19.000Z</time>
      </trkpt>
      <trkpt lat="36.82803" lon="-2.40255">
        <ele>59.347412</ele>
        <time>2022-04-23T09:28:27.000Z</time>
      </trkpt>
      <trkpt lat="36.82821" lon="-2.4021">
        <ele>59.444046</ele>
        <time>2022-04-23T09:28:34.000Z</time>
      </trkpt>
      <trkpt lat="36.82843" lon="-2.40153">
        <ele>59.734508</ele>
        <time>2022-04-23T09:28:43.000Z</time>
      </trkpt>
      <trkpt lat="36.82853" lon="-2.40122">
        <ele>59.886681</ele>
        <time>2022-04-23T09:28:48.000Z</time>
      </trkpt>
      <trkpt lat="36.82857" lon="-2.4011">
        <ele>59.946279</ele>
        <time>2022-04-23T09:28:50.000Z</time>
      </trkpt>
      <trkpt lat="36.82858" lon="-2.40104">
        <ele>59.976145</ele>
        <time>2022-04-23T09:28:51.000Z</time>
      </trkpt>
      <trkpt lat="36.82874" lon="-2.40047">
        <ele>60.250228</ele>
        <time>2022-04-23T09:29:00.000Z</time>
      </trkpt>
      <trkpt lat="36.82889" lon="-2.39997">
        <ele>60.41628</ele>
        <time>2022-04-23T09:29:08.000Z</time>
      </trkpt>
      <trkpt lat="36.82908" lon="-2.39941">
        <ele>60.344686</ele>
        <time>2022-04-23T09:29:17.000Z</time>
      </trkpt>
      <trkpt lat="36.82916" lon="-2.39917">
        <ele>60.313375</ele>
        <time>2022-04-23T09:29:21.000Z</time>
      </trkpt>
      <trkpt lat="36.82924" lon="-2.39892">
        <ele>60.281451</ele>
        <time>2022-04-23T09:29:25.000Z</time>
      </trkpt>
      <trkpt lat="36.8293" lon="-2.39874">
        <ele>60.259372</ele>
        <time>2022-04-23T09:29:28.000Z</time>
      </trkpt>
      <trkpt lat="36.82934" lon="-2.39863">
        <ele>60.24411</ele>
        <time>2022-04-23T09:29:30.000Z</time>
      </trkpt>
      <trkpt lat="36.82938" lon="-2.39848">
        <ele>60.225879</ele>
        <time>2022-04-23T09:29:33.000Z</time>
      </trkpt>
      <trkpt lat="36.82942" lon="-2.39837">
        <ele>60.211669</ele>
        <time>2022-04-23T09:29:35.000Z</time>
      </trkpt>
      <trkpt lat="36.82953" lon="-2.39801">
        <ele>60.164334</ele>
        <time>2022-04-23T09:29:42.000Z</time>
      </trkpt>
      <trkpt lat="36.82956" lon="-2.39789">
        <ele>60.105713</ele>
        <time>2022-04-23T09:29:44.000Z</time>
      </trkpt>
      <trkpt lat="36.82972" lon="-2.39735">
        <ele>59.844814</ele>
        <time>2022-04-23T09:29:53.000Z</time>
      </trkpt>
      <trkpt lat="36.82978" lon="-2.39711">
        <ele>59.730702</ele>
        <time>2022-04-23T09:29:57.000Z</time>
      </trkpt>
      <trkpt lat="36.82985" lon="-2.39691">
        <ele>59.631683</ele>
        <time>2022-04-23T09:30:00.000Z</time>
      </trkpt>
      <trkpt lat="36.83001" lon="-2.3964">
        <ele>59.383752</ele>
        <time>2022-04-23T09:30:08.000Z</time>
      </trkpt>
      <trkpt lat="36.83017" lon="-2.39587">
        <ele>59.123964</ele>
        <time>2022-04-23T09:30:16.000Z</time>
      </trkpt>
      <trkpt lat="36.83033" lon="-2.39538">
        <ele>58.850484</ele>
        <time>2022-04-23T09:30:24.000Z</time>
      </trkpt>
      <trkpt lat="36.83035" lon="-2.39532">
        <ele>58.816837</ele>
        <time>2022-04-23T09:30:25.000Z</time>
      </trkpt>
      <trkpt lat="36.83052" lon="-2.39483">
        <ele>58.539476</ele>
        <time>2022-04-23T09:30:33.000Z</time>
      </trkpt>
      <trkpt lat="36.83056" lon="-2.39471">
        <ele>58.468823</ele>
        <time>2022-04-23T09:30:35.000Z</time>
      </trkpt>
      <trkpt lat="36.83082" lon="-2.39404">
        <ele>58.088862</ele>
        <time>2022-04-23T09:30:46.000Z</time>
      </trkpt>
      <trkpt lat="36.83086" lon="-2.39392">
        <ele>58.016154</ele>
        <time>2022-04-23T09:30:48.000Z</time>
      </trkpt>
      <trkpt lat="36.83094" lon="-2.39373">
        <ele>58.001542</ele>
        <time>2022-04-23T09:30:51.000Z</time>
      </trkpt>
      <trkpt lat="36.83107" lon="-2.39338">
        <ele>58.043677</ele>
        <time>2022-04-23T09:30:56.000Z</time>
      </trkpt>
      <trkpt lat="36.83113" lon="-2.3932">
        <ele>58.065829</ele>
        <time>2022-04-23T09:30:59.000Z</time>
      </trkpt>
      <trkpt lat="36.83128" lon="-2.39282">
        <ele>58.112983</ele>
        <time>2022-04-23T09:31:05.000Z</time>
      </trkpt>
      <trkpt lat="36.8315" lon="-2.39226">
        <ele>58.182164</ele>
        <time>2022-04-23T09:31:14.000Z</time>
      </trkpt>
      <trkpt lat="36.83152" lon="-2.39221">
        <ele>58.189368</ele>
        <time>2022-04-23T09:31:15.000Z</time>
      </trkpt>
      <trkpt lat="36.83169" lon="-2.39181">
        <ele>58.241719</ele>
        <time>2022-04-23T09:31:22.000Z</time>
      </trkpt>
      <trkpt lat="36.83183" lon="-2.39151">
        <ele>58.297288</ele>
        <time>2022-04-23T09:31:28.000Z</time>
      </trkpt>
      <trkpt lat="36.83191" lon="-2.39134">
        <ele>58.328152</ele>
        <time>2022-04-23T09:31:31.000Z</time>
      </trkpt>
      <trkpt lat="36.83204" lon="-2.39106">
        <ele>58.379069</ele>
        <time>2022-04-23T09:31:36.000Z</time>
      </trkpt>
      <trkpt lat="36.83216" lon="-2.39083">
        <ele>58.423466</ele>
        <time>2022-04-23T09:31:40.000Z</time>
      </trkpt>
      <trkpt lat="36.83244" lon="-2.39026">
        <ele>58.530492</ele>
        <time>2022-04-23T09:31:50.000Z</time>
      </trkpt>
      <trkpt lat="36.83254" lon="-2.39004">
        <ele>58.570599</ele>
        <time>2022-04-23T09:31:54.000Z</time>
      </trkpt>
      <trkpt lat="36.83265" lon="-2.38983">
        <ele>58.568893</ele>
        <time>2022-04-23T09:31:58.000Z</time>
      </trkpt>
      <trkpt lat="36.83273" lon="-2.38968">
        <ele>58.526628</ele>
        <time>2022-04-23T09:32:01.000Z</time>
      </trkpt>
      <trkpt lat="36.83295" lon="-2.38922">
        <ele>58.400582</ele>
        <time>2022-04-23T09:32:10.000Z</time>
      </trkpt>
      <trkpt lat="36.83308" lon="-2.38896">
        <ele>58.328223</ele>
        <time>2022-04-23T09:32:16.000Z</time>
      </trkpt>
      <trkpt lat="36.83325" lon="-2.38865">
        <ele>58.238797</ele>
        <time>2022-04-23T09:32:23.000Z</time>
      </trkpt>
      <trkpt lat="36.83328" lon="-2.38859">
        <ele>58.223255</ele>
        <time>2022-04-23T09:32:24.000Z</time>
      </trkpt>
      <trkpt lat="36.83335" lon="-2.3885">
        <ele>58.191883</ele>
        <time>2022-04-23T09:32:26.000Z</time>
      </trkpt>
      <trkpt lat="36.83346" lon="-2.38838">
        <ele>58.151162</ele>
        <time>2022-04-23T09:32:29.000Z</time>
      </trkpt>
      <trkpt lat="36.8336" lon="-2.38813">
        <ele>58.079234</ele>
        <time>2022-04-23T09:32:34.000Z</time>
      </trkpt>
      <trkpt lat="36.83366" lon="-2.38803">
        <ele>58.05493</ele>
        <time>2022-04-23T09:32:36.000Z</time>
      </trkpt>
      <trkpt lat="36.83389" lon="-2.38765">
        <ele>57.987421</ele>
        <time>2022-04-23T09:32:43.000Z</time>
      </trkpt>
      <trkpt lat="36.83414" lon="-2.38723">
        <ele>57.910812</ele>
        <time>2022-04-23T09:32:51.000Z</time>
      </trkpt>
      <trkpt lat="36.83435" lon="-2.38687">
        <ele>57.846604</ele>
        <time>2022-04-23T09:32:58.000Z</time>
      </trkpt>
      <trkpt lat="36.83437" lon="-2.38681">
        <ele>57.837328</ele>
        <time>2022-04-23T09:32:59.000Z</time>
      </trkpt>
      <trkpt lat="36.83446" lon="-2.38664">
        <ele>57.808727</ele>
        <time>2022-04-23T09:33:02.000Z</time>
      </trkpt>
      <trkpt lat="36.83457" lon="-2.38641">
        <ele>57.769823</ele>
        <time>2022-04-23T09:33:06.000Z</time>
      </trkpt>
      <trkpt lat="36.83474" lon="-2.38601">
        <ele>57.774406</ele>
        <time>2022-04-23T09:33:13.000Z</time>
      </trkpt>
      <trkpt lat="36.83499" lon="-2.38541">
        <ele>57.863242</ele>
        <time>2022-04-23T09:33:23.000Z</time>
      </trkpt>
      <trkpt lat="36.83521" lon="-2.38502">
        <ele>57.925898</ele>
        <time>2022-04-23T09:33:30.000Z</time>
      </trkpt>
      <trkpt lat="36.83544" lon="-2.38468">
        <ele>57.985151</ele>
        <time>2022-04-23T09:33:37.000Z</time>
      </trkpt>
      <trkpt lat="36.83548" lon="-2.38461">
        <ele>57.997869</ele>
        <time>2022-04-23T09:33:40.000Z</time>
      </trkpt>
      <trkpt lat="36.83549" lon="-2.38458">
        <ele>58.002042</ele>
        <time>2022-04-23T09:33:41.000Z</time>
      </trkpt>
      <trkpt lat="36.83549" lon="-2.38454">
        <ele>58.00643</ele>
        <time>2022-04-23T09:33:42.000Z</time>
      </trkpt>
      <trkpt lat="36.83547" lon="-2.38441">
        <ele>58.024393</ele>
        <time>2022-04-23T09:33:48.000Z</time>
      </trkpt>
      <trkpt lat="36.83546" lon="-2.38438">
        <ele>58.028442</ele>
        <time>2022-04-23T09:33:58.000Z</time>
      </trkpt>
      <trkpt lat="36.83546" lon="-2.38435">
        <ele>58.032146</ele>
        <time>2022-04-23T09:34:06.000Z</time>
      </trkpt>
      <trkpt lat="36.83546" lon="-2.38435">
        <ele>58.032146</ele>
        <time>2022-04-23T09:34:09.000Z</time>
      </trkpt>
      <trkpt lat="36.83546" lon="-2.38435">
        <ele>58.032146</ele>
        <time>2022-04-23T09:34:11.000Z</time>
      </trkpt>
      <trkpt lat="36.83546" lon="-2.38435">
        <ele>58.032569</ele>
        <time>2022-04-23T09:34:15.000Z</time>
      </trkpt>
      <trkpt lat="36.8355" lon="-2.38434">
        <ele>58.038814</ele>
        <time>2022-04-23T09:34:18.000Z</time>
      </trkpt>
      <trkpt lat="36.83551" lon="-2.38433">
        <ele>58.040018</ele>
        <time>2022-04-23T09:34:19.000Z</time>
      </trkpt>
      <trkpt lat="36.83552" lon="-2.38432">
        <ele>58.040906</ele>
        <time>2022-04-23T09:34:22.000Z</time>
      </trkpt>
      <trkpt lat="36.83552" lon="-2.38432">
        <ele>58.041169</ele>
        <time>2022-04-23T09:34:23.000Z</time>
      </trkpt>
      <trkpt lat="36.83562" lon="-2.38416">
        <ele>58.057546</ele>
        <time>2022-04-23T09:34:29.000Z</time>
      </trkpt>
      <trkpt lat="36.83572" lon="-2.38389">
        <ele>58.081855</ele>
        <time>2022-04-23T09:34:35.000Z</time>
      </trkpt>
      <trkpt lat="36.83578" lon="-2.38374">
        <ele>58.095454</ele>
        <time>2022-04-23T09:34:38.000Z</time>
      </trkpt>
      <trkpt lat="36.83583" lon="-2.38363">
        <ele>58.105513</ele>
        <time>2022-04-23T09:34:40.000Z</time>
      </trkpt>
      <trkpt lat="36.83585" lon="-2.38358">
        <ele>58.109892</ele>
        <time>2022-04-23T09:34:41.000Z</time>
      </trkpt>
      <trkpt lat="36.83602" lon="-2.38319">
        <ele>58.146044</ele>
        <time>2022-04-23T09:34:49.000Z</time>
      </trkpt>
      <trkpt lat="36.83611" lon="-2.38293">
        <ele>58.169262</ele>
        <time>2022-04-23T09:34:54.000Z</time>
      </trkpt>
      <trkpt lat="36.83618" lon="-2.38277">
        <ele>58.183242</ele>
        <time>2022-04-23T09:34:57.000Z</time>
      </trkpt>
      <trkpt lat="36.83624" lon="-2.38263">
        <ele>58.196677</ele>
        <time>2022-04-23T09:35:00.000Z</time>
      </trkpt>
      <trkpt lat="36.83626" lon="-2.38258">
        <ele>58.20119</ele>
        <time>2022-04-23T09:35:01.000Z</time>
      </trkpt>
      <trkpt lat="36.83636" lon="-2.38231">
        <ele>58.209631</ele>
        <time>2022-04-23T09:35:06.000Z</time>
      </trkpt>
      <trkpt lat="36.83642" lon="-2.38216">
        <ele>58.17882</ele>
        <time>2022-04-23T09:35:09.000Z</time>
      </trkpt>
      <trkpt lat="36.83656" lon="-2.38181">
        <ele>58.109027</ele>
        <time>2022-04-23T09:35:16.000Z</time>
      </trkpt>
      <trkpt lat="36.8367" lon="-2.38143">
        <ele>58.035134</ele>
        <time>2022-04-23T09:35:23.000Z</time>
      </trkpt>
      <trkpt lat="36.83679" lon="-2.38119">
        <ele>57.986785</ele>
        <time>2022-04-23T09:35:28.000Z</time>
      </trkpt>
      <trkpt lat="36.83683" lon="-2.38109">
        <ele>57.967901</ele>
        <time>2022-04-23T09:35:30.000Z</time>
      </trkpt>
      <trkpt lat="36.83687" lon="-2.381">
        <ele>57.949115</ele>
        <time>2022-04-23T09:35:32.000Z</time>
      </trkpt>
      <trkpt lat="36.8369" lon="-2.3809">
        <ele>57.930046</ele>
        <time>2022-04-23T09:35:34.000Z</time>
      </trkpt>
      <trkpt lat="36.83698" lon="-2.38064">
        <ele>57.881263</ele>
        <time>2022-04-23T09:35:39.000Z</time>
      </trkpt>
      <trkpt lat="36.83699" lon="-2.3805">
        <ele>57.855597</ele>
        <time>2022-04-23T09:35:42.000Z</time>
      </trkpt>
      <trkpt lat="36.83707" lon="-2.38031">
        <ele>57.818751</ele>
        <time>2022-04-23T09:35:46.000Z</time>
      </trkpt>
      <trkpt lat="36.83709" lon="-2.38026">
        <ele>57.812784</ele>
        <time>2022-04-23T09:35:47.000Z</time>
      </trkpt>
      <trkpt lat="36.83716" lon="-2.38011">
        <ele>57.794879</ele>
        <time>2022-04-23T09:35:50.000Z</time>
      </trkpt>
      <trkpt lat="36.83722" lon="-2.38003">
        <ele>57.783281</ele>
        <time>2022-04-23T09:35:52.000Z</time>
      </trkpt>
      <trkpt lat="36.83725" lon="-2.38">
        <ele>57.777934</ele>
        <time>2022-04-23T09:35:53.000Z</time>
      </trkpt>
      <trkpt lat="36.83727" lon="-2.37995">
        <ele>57.772336</ele>
        <time>2022-04-23T09:35:54.000Z</time>
      </trkpt>
      <trkpt lat="36.8373" lon="-2.37991">
        <ele>57.766782</ele>
        <time>2022-04-23T09:35:55.000Z</time>
      </trkpt>
      <trkpt lat="36.83734" lon="-2.37981">
        <ele>57.755414</ele>
        <time>2022-04-23T09:35:57.000Z</time>
      </trkpt>
      <trkpt lat="36.83735" lon="-2.37976">
        <ele>57.749639</ele>
        <time>2022-04-23T09:35:58.000Z</time>
      </trkpt>
      <trkpt lat="36.83739" lon="-2.37966">
        <ele>57.738197</ele>
        <time>2022-04-23T09:36:00.000Z</time>
      </trkpt>
      <trkpt lat="36.83745" lon="-2.37952">
        <ele>57.721004</ele>
        <time>2022-04-23T09:36:03.000Z</time>
      </trkpt>
      <trkpt lat="36.83747" lon="-2.37947">
        <ele>57.715325</ele>
        <time>2022-04-23T09:36:04.000Z</time>
      </trkpt>
      <trkpt lat="36.83763" lon="-2.37908">
        <ele>57.669659</ele>
        <time>2022-04-23T09:36:12.000Z</time>
      </trkpt>
      <trkpt lat="36.83774" lon="-2.37877">
        <ele>57.633492</ele>
        <time>2022-04-23T09:36:18.000Z</time>
      </trkpt>
      <trkpt lat="36.83782" lon="-2.37857">
        <ele>57.609774</ele>
        <time>2022-04-23T09:36:22.000Z</time>
      </trkpt>
      <trkpt lat="36.8379" lon="-2.37836">
        <ele>57.585823</ele>
        <time>2022-04-23T09:36:26.000Z</time>
      </trkpt>
      <trkpt lat="36.83791" lon="-2.37831">
        <ele>57.579797</ele>
        <time>2022-04-23T09:36:27.000Z</time>
      </trkpt>
      <trkpt lat="36.83791" lon="-2.37817">
        <ele>57.563622</ele>
        <time>2022-04-23T09:36:30.000Z</time>
      </trkpt>
      <trkpt lat="36.83794" lon="-2.37805">
        <ele>57.550366</ele>
        <time>2022-04-23T09:36:33.000Z</time>
      </trkpt>
      <trkpt lat="36.83797" lon="-2.37798">
        <ele>57.540664</ele>
        <time>2022-04-23T09:36:35.000Z</time>
      </trkpt>
      <trkpt lat="36.83804" lon="-2.3778">
        <ele>57.519109</ele>
        <time>2022-04-23T09:36:39.000Z</time>
      </trkpt>
      <trkpt lat="36.83813" lon="-2.37758">
        <ele>57.491427</ele>
        <time>2022-04-23T09:36:44.000Z</time>
      </trkpt>
      <trkpt lat="36.83826" lon="-2.37723">
        <ele>57.449797</ele>
        <time>2022-04-23T09:36:51.000Z</time>
      </trkpt>
      <trkpt lat="36.83827" lon="-2.37713">
        <ele>57.43794</ele>
        <time>2022-04-23T09:36:53.000Z</time>
      </trkpt>
      <trkpt lat="36.83829" lon="-2.37702">
        <ele>57.425562</ele>
        <time>2022-04-23T09:36:55.000Z</time>
      </trkpt>
      <trkpt lat="36.83831" lon="-2.37697">
        <ele>57.419243</ele>
        <time>2022-04-23T09:36:56.000Z</time>
      </trkpt>
      <trkpt lat="36.83845" lon="-2.37662">
        <ele>57.375817</ele>
        <time>2022-04-23T09:37:03.000Z</time>
      </trkpt>
      <trkpt lat="36.83862" lon="-2.37631">
        <ele>57.335072</ele>
        <time>2022-04-23T09:37:10.000Z</time>
      </trkpt>
      <trkpt lat="36.83872" lon="-2.37615">
        <ele>57.355782</ele>
        <time>2022-04-23T09:37:14.000Z</time>
      </trkpt>
      <trkpt lat="36.83877" lon="-2.37607">
        <ele>57.365874</ele>
        <time>2022-04-23T09:37:16.000Z</time>
      </trkpt>
      <trkpt lat="36.83881" lon="-2.37598">
        <ele>57.375998</ele>
        <time>2022-04-23T09:37:18.000Z</time>
      </trkpt>
      <trkpt lat="36.83885" lon="-2.37591">
        <ele>57.384994</ele>
        <time>2022-04-23T09:37:20.000Z</time>
      </trkpt>
      <trkpt lat="36.83895" lon="-2.37571">
        <ele>57.408588</ele>
        <time>2022-04-23T09:37:26.000Z</time>
      </trkpt>
      <trkpt lat="36.83899" lon="-2.37558">
        <ele>57.422374</ele>
        <time>2022-04-23T09:37:31.000Z</time>
      </trkpt>
      <trkpt lat="36.83899" lon="-2.37557">
        <ele>57.423586</ele>
        <time>2022-04-23T09:37:32.000Z</time>
      </trkpt>
      <trkpt lat="36.83898" lon="-2.37557">
        <ele>57.424129</ele>
        <time>2022-04-23T09:37:34.000Z</time>
      </trkpt>
      <trkpt lat="36.83898" lon="-2.37557">
        <ele>57.424129</ele>
        <time>2022-04-23T09:37:35.000Z</time>
      </trkpt>
      <trkpt lat="36.83898" lon="-2.37557">
        <ele>57.424129</ele>
        <time>2022-04-23T09:37:47.000Z</time>
      </trkpt>
      <trkpt lat="36.839" lon="-2.37558">
        <ele>57.425878</ele>
        <time>2022-04-23T09:38:05.000Z</time>
      </trkpt>
      <trkpt lat="36.839" lon="-2.37559">
        <ele>57.427426</ele>
        <time>2022-04-23T09:38:06.000Z</time>
      </trkpt>
      <trkpt lat="36.839" lon="-2.37561">
        <ele>57.429022</ele>
        <time>2022-04-23T09:38:07.000Z</time>
      </trkpt>
      <trkpt lat="36.83896" lon="-2.37564">
        <ele>57.435404</ele>
        <time>2022-04-23T09:38:10.000Z</time>
      </trkpt>
      <trkpt lat="36.83894" lon="-2.37569">
        <ele>57.440848</ele>
        <time>2022-04-23T09:38:12.000Z</time>
      </trkpt>
      <trkpt lat="36.83889" lon="-2.37579">
        <ele>57.453012</ele>
        <time>2022-04-23T09:38:16.000Z</time>
      </trkpt>
      <trkpt lat="36.83888" lon="-2.37582">
        <ele>57.456346</ele>
        <time>2022-04-23T09:38:17.000Z</time>
      </trkpt>
      <trkpt lat="36.83886" lon="-2.37585">
        <ele>57.459615</ele>
        <time>2022-04-23T09:38:18.000Z</time>
      </trkpt>
      <trkpt lat="36.83882" lon="-2.37594">
        <ele>57.469702</ele>
        <time>2022-04-23T09:38:21.000Z</time>
      </trkpt>
      <trkpt lat="36.83881" lon="-2.37596">
        <ele>57.472783</ele>
        <time>2022-04-23T09:38:22.000Z</time>
      </trkpt>
      <trkpt lat="36.83877" lon="-2.37603">
        <ele>57.480794</ele>
        <time>2022-04-23T09:38:25.000Z</time>
      </trkpt>
      <trkpt lat="36.83873" lon="-2.3761">
        <ele>57.489865</ele>
        <time>2022-04-23T09:38:28.000Z</time>
      </trkpt>
      <trkpt lat="36.83869" lon="-2.37619">
        <ele>57.500173</ele>
        <time>2022-04-23T09:38:31.000Z</time>
      </trkpt>
      <trkpt lat="36.83867" lon="-2.37621">
        <ele>57.503485</ele>
        <time>2022-04-23T09:38:32.000Z</time>
      </trkpt>
      <trkpt lat="36.8386" lon="-2.37636">
        <ele>57.520694</ele>
        <time>2022-04-23T09:38:37.000Z</time>
      </trkpt>
      <trkpt lat="36.83857" lon="-2.37641">
        <ele>57.527474</ele>
        <time>2022-04-23T09:38:39.000Z</time>
      </trkpt>
      <trkpt lat="36.83855" lon="-2.37644">
        <ele>57.530551</ele>
        <time>2022-04-23T09:38:40.000Z</time>
      </trkpt>
      <trkpt lat="36.83851" lon="-2.3765">
        <ele>57.539461</ele>
        <time>2022-04-23T09:38:43.000Z</time>
      </trkpt>
      <trkpt lat="36.83847" lon="-2.37657">
        <ele>57.547739</ele>
        <time>2022-04-23T09:38:46.000Z</time>
      </trkpt>
      <trkpt lat="36.83844" lon="-2.37661">
        <ele>57.553573</ele>
        <time>2022-04-23T09:38:48.000Z</time>
      </trkpt>
      <trkpt lat="36.83839" lon="-2.37672">
        <ele>57.545047</ele>
        <time>2022-04-23T09:38:52.000Z</time>
      </trkpt>
      <trkpt lat="36.83836" lon="-2.37677">
        <ele>57.520352</ele>
        <time>2022-04-23T09:38:54.000Z</time>
      </trkpt>
      <trkpt lat="36.83832" lon="-2.37691">
        <ele>57.455599</ele>
        <time>2022-04-23T09:38:59.000Z</time>
      </trkpt>
      <trkpt lat="36.83831" lon="-2.37694">
        <ele>57.441703</ele>
        <time>2022-04-23T09:39:00.000Z</time>
      </trkpt>
      <trkpt lat="36.8383" lon="-2.37698">
        <ele>57.427495</ele>
        <time>2022-04-23T09:39:01.000Z</time>
      </trkpt>
      <trkpt lat="36.83827" lon="-2.37711">
        <ele>57.367967</ele>
        <time>2022-04-23T09:39:05.000Z</time>
      </trkpt>
      <trkpt lat="36.83826" lon="-2.37714">
        <ele>57.353543</ele>
        <time>2022-04-23T09:39:06.000Z</time>
      </trkpt>
      <trkpt lat="36.83825" lon="-2.37717">
        <ele>57.341081</ele>
        <time>2022-04-23T09:39:07.000Z</time>
      </trkpt>
      <trkpt lat="36.83824" lon="-2.37722">
        <ele>57.317455</ele>
        <time>2022-04-23T09:39:09.000Z</time>
      </trkpt>
      <trkpt lat="36.83822" lon="-2.37731">
        <ele>57.282101</ele>
        <time>2022-04-23T09:39:12.000Z</time>
      </trkpt>
      <trkpt lat="36.83819" lon="-2.37738">
        <ele>57.249456</ele>
        <time>2022-04-23T09:39:14.000Z</time>
      </trkpt>
      <trkpt lat="36.83818" lon="-2.37741">
        <ele>57.235455</ele>
        <time>2022-04-23T09:39:15.000Z</time>
      </trkpt>
      <trkpt lat="36.83814" lon="-2.37754">
        <ele>57.174555</ele>
        <time>2022-04-23T09:39:20.000Z</time>
      </trkpt>
      <trkpt lat="36.83811" lon="-2.3776">
        <ele>57.146961</ele>
        <time>2022-04-23T09:39:22.000Z</time>
      </trkpt>
      <trkpt lat="36.83807" lon="-2.37769">
        <ele>57.103595</ele>
        <time>2022-04-23T09:39:25.000Z</time>
      </trkpt>
      <trkpt lat="36.83801" lon="-2.3778">
        <ele>57.048417</ele>
        <time>2022-04-23T09:39:29.000Z</time>
      </trkpt>
      <trkpt lat="36.83801" lon="-2.37783">
        <ele>57.035327</ele>
        <time>2022-04-23T09:39:30.000Z</time>
      </trkpt>
      <trkpt lat="36.83799" lon="-2.37788">
        <ele>57.010437</ele>
        <time>2022-04-23T09:39:32.000Z</time>
      </trkpt>
      <trkpt lat="36.83795" lon="-2.37796">
        <ele>56.972621</ele>
        <time>2022-04-23T09:39:35.000Z</time>
      </trkpt>
      <trkpt lat="36.83794" lon="-2.37799">
        <ele>56.960158</ele>
        <time>2022-04-23T09:39:36.000Z</time>
      </trkpt>
      <trkpt lat="36.83787" lon="-2.37815">
        <ele>56.882548</ele>
        <time>2022-04-23T09:39:42.000Z</time>
      </trkpt>
      <trkpt lat="36.83787" lon="-2.37821">
        <ele>56.859085</ele>
        <time>2022-04-23T09:39:44.000Z</time>
      </trkpt>
      <trkpt lat="36.83788" lon="-2.3783">
        <ele>56.819779</ele>
        <time>2022-04-23T09:39:47.000Z</time>
      </trkpt>
      <trkpt lat="36.83783" lon="-2.37847">
        <ele>56.743082</ele>
        <time>2022-04-23T09:39:53.000Z</time>
      </trkpt>
      <trkpt lat="36.83781" lon="-2.37853">
        <ele>56.715055</ele>
        <time>2022-04-23T09:39:55.000Z</time>
      </trkpt>
      <trkpt lat="36.83775" lon="-2.37865">
        <ele>56.657552</ele>
        <time>2022-04-23T09:39:59.000Z</time>
      </trkpt>
      <trkpt lat="36.83771" lon="-2.37874">
        <ele>56.65452</ele>
        <time>2022-04-23T09:40:02.000Z</time>
      </trkpt>
      <trkpt lat="36.83767" lon="-2.37882">
        <ele>56.868323</ele>
        <time>2022-04-23T09:40:05.000Z</time>
      </trkpt>
      <trkpt lat="36.83766" lon="-2.37885">
        <ele>56.933485</ele>
        <time>2022-04-23T09:40:06.000Z</time>
      </trkpt>
      <trkpt lat="36.83765" lon="-2.3789">
        <ele>57.059338</ele>
        <time>2022-04-23T09:40:08.000Z</time>
      </trkpt>
      <trkpt lat="36.83763" lon="-2.37896">
        <ele>57.190309</ele>
        <time>2022-04-23T09:40:10.000Z</time>
      </trkpt>
      <trkpt lat="36.83762" lon="-2.37899">
        <ele>57.264146</ele>
        <time>2022-04-23T09:40:11.000Z</time>
      </trkpt>
      <trkpt lat="36.83757" lon="-2.37913">
        <ele>57.614872</ele>
        <time>2022-04-23T09:40:15.000Z</time>
      </trkpt>
      <trkpt lat="36.83752" lon="-2.37926">
        <ele>57.928355</ele>
        <time>2022-04-23T09:40:20.000Z</time>
      </trkpt>
      <trkpt lat="36.83751" lon="-2.37931">
        <ele>58.049031</ele>
        <time>2022-04-23T09:40:22.000Z</time>
      </trkpt>
      <trkpt lat="36.83748" lon="-2.37939">
        <ele>58.2405</ele>
        <time>2022-04-23T09:40:25.000Z</time>
      </trkpt>
      <trkpt lat="36.83747" lon="-2.37941">
        <ele>58.298253</ele>
        <time>2022-04-23T09:40:26.000Z</time>
      </trkpt>
      <trkpt lat="36.83744" lon="-2.37946">
        <ele>58.422099</ele>
        <time>2022-04-23T09:40:28.000Z</time>
      </trkpt>
      <trkpt lat="36.83742" lon="-2.37951">
        <ele>58.546268</ele>
        <time>2022-04-23T09:40:30.000Z</time>
      </trkpt>
      <trkpt lat="36.83739" lon="-2.37961">
        <ele>58.788169</ele>
        <time>2022-04-23T09:40:34.000Z</time>
      </trkpt>
      <trkpt lat="36.83736" lon="-2.3797">
        <ele>58.995451</ele>
        <time>2022-04-23T09:40:37.000Z</time>
      </trkpt>
      <trkpt lat="36.83732" lon="-2.37982">
        <ele>59.295648</ele>
        <time>2022-04-23T09:40:41.000Z</time>
      </trkpt>
      <trkpt lat="36.83731" lon="-2.37985">
        <ele>59.377114</ele>
        <time>2022-04-23T09:40:42.000Z</time>
      </trkpt>
      <trkpt lat="36.83729" lon="-2.37989">
        <ele>59.463742</ele>
        <time>2022-04-23T09:40:43.000Z</time>
      </trkpt>
      <trkpt lat="36.83721" lon="-2.38007">
        <ele>59.924185</ele>
        <time>2022-04-23T09:40:49.000Z</time>
      </trkpt>
      <trkpt lat="36.8372" lon="-2.3801">
        <ele>59.996707</ele>
        <time>2022-04-23T09:40:50.000Z</time>
      </trkpt>
      <trkpt lat="36.83717" lon="-2.38016">
        <ele>60.145757</ele>
        <time>2022-04-23T09:40:52.000Z</time>
      </trkpt>
      <trkpt lat="36.83709" lon="-2.38036">
        <ele>60.640771</ele>
        <time>2022-04-23T09:40:59.000Z</time>
      </trkpt>
      <trkpt lat="36.83708" lon="-2.38039">
        <ele>60.716004</ele>
        <time>2022-04-23T09:41:00.000Z</time>
      </trkpt>
      <trkpt lat="36.83704" lon="-2.38048">
        <ele>60.944295</ele>
        <time>2022-04-23T09:41:03.000Z</time>
      </trkpt>
      <trkpt lat="36.83702" lon="-2.38055">
        <ele>61.109405</ele>
        <time>2022-04-23T09:41:05.000Z</time>
      </trkpt>
      <trkpt lat="36.83701" lon="-2.38058">
        <ele>61.188475</ele>
        <time>2022-04-23T09:41:06.000Z</time>
      </trkpt>
      <trkpt lat="36.83698" lon="-2.38064">
        <ele>61.345257</ele>
        <time>2022-04-23T09:41:08.000Z</time>
      </trkpt>
      <trkpt lat="36.83695" lon="-2.38069">
        <ele>61.475855</ele>
        <time>2022-04-23T09:41:10.000Z</time>
      </trkpt>
      <trkpt lat="36.83695" lon="-2.38071">
        <ele>61.523302</ele>
        <time>2022-04-23T09:41:11.000Z</time>
      </trkpt>
      <trkpt lat="36.83695" lon="-2.38072">
        <ele>61.559807</ele>
        <time>2022-04-23T09:41:12.000Z</time>
      </trkpt>
      <trkpt lat="36.83696" lon="-2.38073">
        <ele>61.586137</ele>
        <time>2022-04-23T09:41:13.000Z</time>
      </trkpt>
      <trkpt lat="36.83696" lon="-2.38073">
        <ele>61.595575</ele>
        <time>2022-04-23T09:41:15.000Z</time>
      </trkpt>
      <trkpt lat="36.83696" lon="-2.38073">
        <ele>61.595575</ele>
        <time>2022-04-23T09:41:16.000Z</time>
      </trkpt>
      <trkpt lat="36.83696" lon="-2.38073">
        <ele>61.595575</ele>
        <time>2022-04-23T09:41:18.000Z</time>
      </trkpt>
      <trkpt lat="36.83698" lon="-2.38075">
        <ele>61.602382</ele>
        <time>2022-04-23T09:41:22.000Z</time>
      </trkpt>
      <trkpt lat="36.83699" lon="-2.38075">
        <ele>61.60021</ele>
        <time>2022-04-23T09:41:24.000Z</time>
      </trkpt>
      <trkpt lat="36.83699" lon="-2.38075">
        <ele>61.598726</ele>
        <time>2022-04-23T09:41:25.000Z</time>
      </trkpt>
      <trkpt lat="36.83708" lon="-2.38079">
        <ele>61.553773</ele>
        <time>2022-04-23T09:41:30.000Z</time>
      </trkpt>
      <trkpt lat="36.83724" lon="-2.3809">
        <ele>61.461248</ele>
        <time>2022-04-23T09:41:36.000Z</time>
      </trkpt>
      <trkpt lat="36.83739" lon="-2.38098">
        <ele>61.381698</ele>
        <time>2022-04-23T09:41:41.000Z</time>
      </trkpt>
      <trkpt lat="36.83751" lon="-2.38105">
        <ele>61.314537</ele>
        <time>2022-04-23T09:41:45.000Z</time>
      </trkpt>
      <trkpt lat="36.8377" lon="-2.38115">
        <ele>61.211393</ele>
        <time>2022-04-23T09:41:52.000Z</time>
      </trkpt>
      <trkpt lat="36.83772" lon="-2.38116">
        <ele>61.200124</ele>
        <time>2022-04-23T09:41:53.000Z</time>
      </trkpt>
      <trkpt lat="36.83774" lon="-2.3812">
        <ele>61.182291</ele>
        <time>2022-04-23T09:41:55.000Z</time>
      </trkpt>
      <trkpt lat="36.83773" lon="-2.38134">
        <ele>61.128698</ele>
        <time>2022-04-23T09:42:00.000Z</time>
      </trkpt>
      <trkpt lat="36.83772" lon="-2.38137">
        <ele>61.115266</ele>
        <time>2022-04-23T09:42:01.000Z</time>
      </trkpt>
      <trkpt lat="36.83771" lon="-2.3814">
        <ele>61.101106</ele>
        <time>2022-04-23T09:42:02.000Z</time>
      </trkpt>
      <trkpt lat="36.83764" lon="-2.38156">
        <ele>61.029103</ele>
        <time>2022-04-23T09:42:07.000Z</time>
      </trkpt>
      <trkpt lat="36.83758" lon="-2.3817">
        <ele>60.965267</ele>
        <time>2022-04-23T09:42:11.000Z</time>
      </trkpt>
      <trkpt lat="36.83755" lon="-2.38179">
        <ele>60.928268</ele>
        <time>2022-04-23T09:42:13.000Z</time>
      </trkpt>
      <trkpt lat="36.83753" lon="-2.38183">
        <ele>60.909502</ele>
        <time>2022-04-23T09:42:14.000Z</time>
      </trkpt>
      <trkpt lat="36.83749" lon="-2.3819">
        <ele>60.876809</ele>
        <time>2022-04-23T09:42:16.000Z</time>
      </trkpt>
      <trkpt lat="36.83745" lon="-2.38201">
        <ele>60.826366</ele>
        <time>2022-04-23T09:42:19.000Z</time>
      </trkpt>
      <trkpt lat="36.83742" lon="-2.38209">
        <ele>60.791976</ele>
        <time>2022-04-23T09:42:21.000Z</time>
      </trkpt>
      <trkpt lat="36.83741" lon="-2.38213">
        <ele>60.774684</ele>
        <time>2022-04-23T09:42:22.000Z</time>
      </trkpt>
      <trkpt lat="36.83733" lon="-2.38232">
        <ele>60.732584</ele>
        <time>2022-04-23T09:42:27.000Z</time>
      </trkpt>
      <trkpt lat="36.83723" lon="-2.3826">
        <ele>60.770783</ele>
        <time>2022-04-23T09:42:34.000Z</time>
      </trkpt>
      <trkpt lat="36.83715" lon="-2.38279">
        <ele>60.797492</ele>
        <time>2022-04-23T09:42:39.000Z</time>
      </trkpt>
      <trkpt lat="36.83712" lon="-2.38291">
        <ele>60.812519</ele>
        <time>2022-04-23T09:42:42.000Z</time>
      </trkpt>
      <trkpt lat="36.8371" lon="-2.38324">
        <ele>60.854008</ele>
        <time>2022-04-23T09:42:50.000Z</time>
      </trkpt>
      <trkpt lat="36.83706" lon="-2.38357">
        <ele>60.89541</ele>
        <time>2022-04-23T09:42:57.000Z</time>
      </trkpt>
      <trkpt lat="36.83704" lon="-2.38388">
        <ele>60.93466</ele>
        <time>2022-04-23T09:43:04.000Z</time>
      </trkpt>
      <trkpt lat="36.83703" lon="-2.38411">
        <ele>60.963931</ele>
        <time>2022-04-23T09:43:10.000Z</time>
      </trkpt>
      <trkpt lat="36.83702" lon="-2.38415">
        <ele>60.968636</ele>
        <time>2022-04-23T09:43:11.000Z</time>
      </trkpt>
      <trkpt lat="36.83701" lon="-2.38418">
        <ele>60.973104</ele>
        <time>2022-04-23T09:43:12.000Z</time>
      </trkpt>
      <trkpt lat="36.83697" lon="-2.38432">
        <ele>60.991126</ele>
        <time>2022-04-23T09:43:17.000Z</time>
      </trkpt>
      <trkpt lat="36.83695" lon="-2.38432">
        <ele>60.992997</ele>
        <time>2022-04-23T09:43:18.000Z</time>
      </trkpt>
      <trkpt lat="36.83687" lon="-2.38433">
        <ele>61.004469</ele>
        <time>2022-04-23T09:43:22.000Z</time>
      </trkpt>
      <trkpt lat="36.83676" lon="-2.3843">
        <ele>61.014852</ele>
        <time>2022-04-23T09:43:26.000Z</time>
      </trkpt>
      <trkpt lat="36.83674" lon="-2.38431">
        <ele>61.016785</ele>
        <time>2022-04-23T09:43:27.000Z</time>
      </trkpt>
      <trkpt lat="36.83672" lon="-2.38433">
        <ele>61.019127</ele>
        <time>2022-04-23T09:43:28.000Z</time>
      </trkpt>
      <trkpt lat="36.83669" lon="-2.38444">
        <ele>61.026961</ele>
        <time>2022-04-23T09:43:31.000Z</time>
      </trkpt>
      <trkpt lat="36.83661" lon="-2.38468">
        <ele>61.045061</ele>
        <time>2022-04-23T09:43:37.000Z</time>
      </trkpt>
      <trkpt lat="36.8365" lon="-2.38496">
        <ele>61.06724</ele>
        <time>2022-04-23T09:43:45.000Z</time>
      </trkpt>
      <trkpt lat="36.83646" lon="-2.38508">
        <ele>61.075657</ele>
        <time>2022-04-23T09:43:48.000Z</time>
      </trkpt>
      <trkpt lat="36.83645" lon="-2.38511">
        <ele>61.078221</ele>
        <time>2022-04-23T09:43:49.000Z</time>
      </trkpt>
      <trkpt lat="36.83643" lon="-2.38521">
        <ele>61.085635</ele>
        <time>2022-04-23T09:43:52.000Z</time>
      </trkpt>
      <trkpt lat="36.83641" lon="-2.38525">
        <ele>61.088221</ele>
        <time>2022-04-23T09:43:53.000Z</time>
      </trkpt>
      <trkpt lat="36.83633" lon="-2.38543">
        <ele>61.102796</ele>
        <time>2022-04-23T09:43:59.000Z</time>
      </trkpt>
      <trkpt lat="36.8362" lon="-2.38571">
        <ele>61.12588</ele>
        <time>2022-04-23T09:44:08.000Z</time>
      </trkpt>
      <trkpt lat="36.83603" lon="-2.38606">
        <ele>61.153879</ele>
        <time>2022-04-23T09:44:19.000Z</time>
      </trkpt>
      <trkpt lat="36.83592" lon="-2.38631">
        <ele>61.254503</ele>
        <time>2022-04-23T09:44:27.000Z</time>
      </trkpt>
      <trkpt lat="36.83587" lon="-2.38642">
        <ele>61.314172</ele>
        <time>2022-04-23T09:44:31.000Z</time>
      </trkpt>
      <trkpt lat="36.83581" lon="-2.38653">
        <ele>61.374999</ele>
        <time>2022-04-23T09:44:35.000Z</time>
      </trkpt>
      <trkpt lat="36.83566" lon="-2.38679">
        <ele>61.520369</ele>
        <time>2022-04-23T09:44:45.000Z</time>
      </trkpt>
      <trkpt lat="36.83561" lon="-2.38682">
        <ele>61.552007</ele>
        <time>2022-04-23T09:44:47.000Z</time>
      </trkpt>
      <trkpt lat="36.83555" lon="-2.38681">
        <ele>61.587639</ele>
        <time>2022-04-23T09:44:49.000Z</time>
      </trkpt>
      <trkpt lat="36.83535" lon="-2.3867">
        <ele>61.71167</ele>
        <time>2022-04-23T09:44:55.000Z</time>
      </trkpt>
      <trkpt lat="36.83529" lon="-2.38665">
        <ele>61.754512</ele>
        <time>2022-04-23T09:44:57.000Z</time>
      </trkpt>
      <trkpt lat="36.8352" lon="-2.38656">
        <ele>61.822132</ele>
        <time>2022-04-23T09:45:00.000Z</time>
      </trkpt>
      <trkpt lat="36.8351" lon="-2.38644">
        <ele>61.897831</ele>
        <time>2022-04-23T09:45:03.000Z</time>
      </trkpt>
      <trkpt lat="36.83491" lon="-2.38622">
        <ele>62.051008</ele>
        <time>2022-04-23T09:45:10.000Z</time>
      </trkpt>
      <trkpt lat="36.83477" lon="-2.38607">
        <ele>62.151416</ele>
        <time>2022-04-23T09:45:17.000Z</time>
      </trkpt>
      <trkpt lat="36.83476" lon="-2.38607">
        <ele>62.159568</ele>
        <time>2022-04-23T09:45:21.000Z</time>
      </trkpt>
      <trkpt lat="36.83474" lon="-2.38608">
        <ele>62.173229</ele>
        <time>2022-04-23T09:45:24.000Z</time>
      </trkpt>
      <trkpt lat="36.83472" lon="-2.38613">
        <ele>62.185643</ele>
        <time>2022-04-23T09:45:26.000Z</time>
      </trkpt>
      <trkpt lat="36.83469" lon="-2.38621">
        <ele>62.125365</ele>
        <time>2022-04-23T09:45:29.000Z</time>
      </trkpt>
      <trkpt lat="36.83469" lon="-2.38626">
        <ele>62.094487</ele>
        <time>2022-04-23T09:45:31.000Z</time>
      </trkpt>
      <trkpt lat="36.8347" lon="-2.38627">
        <ele>62.086447</ele>
        <time>2022-04-23T09:45:35.000Z</time>
      </trkpt>
      <trkpt lat="36.8347" lon="-2.3863">
        <ele>62.067998</ele>
        <time>2022-04-23T09:45:38.000Z</time>
      </trkpt>
      <trkpt lat="36.83469" lon="-2.38634">
        <ele>62.043797</ele>
        <time>2022-04-23T09:45:41.000Z</time>
      </trkpt>
      <trkpt lat="36.83468" lon="-2.38635">
        <ele>62.036628</ele>
        <time>2022-04-23T09:45:42.000Z</time>
      </trkpt>
      <trkpt lat="36.83468" lon="-2.38638">
        <ele>62.01532</ele>
        <time>2022-04-23T09:45:49.000Z</time>
      </trkpt>
      <trkpt lat="36.83468" lon="-2.38639">
        <ele>62.011767</ele>
        <time>2022-04-23T09:45:55.000Z</time>
      </trkpt>
      <trkpt lat="36.83468" lon="-2.38639">
        <ele>62.011767</ele>
        <time>2022-04-23T09:46:07.000Z</time>
      </trkpt>
      <trkpt lat="36.83468" lon="-2.38638">
        <ele>62.009286</ele>
        <time>2022-04-23T09:46:14.000Z</time>
      </trkpt>
      <trkpt lat="36.83467" lon="-2.38638">
        <ele>62.003173</ele>
        <time>2022-04-23T09:46:21.000Z</time>
      </trkpt>
      <trkpt lat="36.83473" lon="-2.38635">
        <ele>61.947693</ele>
        <time>2022-04-23T10:10:31.000Z</time>
      </trkpt>
      <trkpt lat="36.83451" lon="-2.38636">
        <ele>61.773643</ele>
        <time>2022-04-23T10:10:33.000Z</time>
      </trkpt>
      <trkpt lat="36.83468" lon="-2.3864">
        <ele>61.641992</ele>
        <time>2022-04-23T10:10:38.000Z</time>
      </trkpt>
      <trkpt lat="36.8347" lon="-2.38642">
        <ele>61.619509</ele>
        <time>2022-04-23T10:10:42.000Z</time>
      </trkpt>
      <trkpt lat="36.83467" lon="-2.38638">
        <ele>61.586723</ele>
        <time>2022-04-23T10:10:50.000Z</time>
      </trkpt>
      <trkpt lat="36.83466" lon="-2.38638">
        <ele>61.577952</ele>
        <time>2022-04-23T10:10:51.000Z</time>
      </trkpt>
      <trkpt lat="36.83459" lon="-2.3864">
        <ele>61.522997</ele>
        <time>2022-04-23T10:10:54.000Z</time>
      </trkpt>
      <trkpt lat="36.83459" lon="-2.38643">
        <ele>61.507028</ele>
        <time>2022-04-23T10:10:55.000Z</time>
      </trkpt>
      <trkpt lat="36.83457" lon="-2.38651">
        <ele>61.454971</ele>
        <time>2022-04-23T10:10:59.000Z</time>
      </trkpt>
      <trkpt lat="36.83454" lon="-2.38655">
        <ele>61.416711</ele>
        <time>2022-04-23T10:11:03.000Z</time>
      </trkpt>
      <trkpt lat="36.83449" lon="-2.38663">
        <ele>61.355642</ele>
        <time>2022-04-23T10:11:06.000Z</time>
      </trkpt>
      <trkpt lat="36.83448" lon="-2.38665">
        <ele>61.335271</ele>
        <time>2022-04-23T10:11:07.000Z</time>
      </trkpt>
      <trkpt lat="36.83447" lon="-2.38671">
        <ele>61.296104</ele>
        <time>2022-04-23T10:11:10.000Z</time>
      </trkpt>
      <trkpt lat="36.83447" lon="-2.38672">
        <ele>61.293053</ele>
        <time>2022-04-23T10:11:13.000Z</time>
      </trkpt>
      <trkpt lat="36.83446" lon="-2.38672">
        <ele>61.28735</ele>
        <time>2022-04-23T10:11:16.000Z</time>
      </trkpt>
      <trkpt lat="36.83444" lon="-2.38674">
        <ele>61.263104</ele>
        <time>2022-04-23T10:11:19.000Z</time>
      </trkpt>
      <trkpt lat="36.83441" lon="-2.38678">
        <ele>61.227715</ele>
        <time>2022-04-23T10:11:21.000Z</time>
      </trkpt>
      <trkpt lat="36.83433" lon="-2.38694">
        <ele>61.107144</ele>
        <time>2022-04-23T10:11:26.000Z</time>
      </trkpt>
      <trkpt lat="36.83422" lon="-2.38715">
        <ele>60.952988</ele>
        <time>2022-04-23T10:11:31.000Z</time>
      </trkpt>
      <trkpt lat="36.83407" lon="-2.38742">
        <ele>60.776404</ele>
        <time>2022-04-23T10:11:38.000Z</time>
      </trkpt>
      <trkpt lat="36.83399" lon="-2.38756">
        <ele>60.830957</ele>
        <time>2022-04-23T10:11:42.000Z</time>
      </trkpt>
      <trkpt lat="36.83394" lon="-2.38765">
        <ele>60.867173</ele>
        <time>2022-04-23T10:11:45.000Z</time>
      </trkpt>
      <trkpt lat="36.83391" lon="-2.38772">
        <ele>60.895098</ele>
        <time>2022-04-23T10:11:48.000Z</time>
      </trkpt>
      <trkpt lat="36.83391" lon="-2.38773">
        <ele>60.898471</ele>
        <time>2022-04-23T10:11:49.000Z</time>
      </trkpt>
      <trkpt lat="36.8339" lon="-2.38781">
        <ele>60.923724</ele>
        <time>2022-04-23T10:11:55.000Z</time>
      </trkpt>
      <trkpt lat="36.83389" lon="-2.38782">
        <ele>60.928438</ele>
        <time>2022-04-23T10:11:56.000Z</time>
      </trkpt>
      <trkpt lat="36.83388" lon="-2.38782">
        <ele>60.933794</ele>
        <time>2022-04-23T10:11:57.000Z</time>
      </trkpt>
      <trkpt lat="36.83383" lon="-2.38783">
        <ele>60.955586</ele>
        <time>2022-04-23T10:12:00.000Z</time>
      </trkpt>
      <trkpt lat="36.83379" lon="-2.3879">
        <ele>60.984239</ele>
        <time>2022-04-23T10:12:04.000Z</time>
      </trkpt>
      <trkpt lat="36.83378" lon="-2.38791">
        <ele>60.986566</ele>
        <time>2022-04-23T10:12:05.000Z</time>
      </trkpt>
      <trkpt lat="36.83378" lon="-2.38792">
        <ele>60.991968</ele>
        <time>2022-04-23T10:12:09.000Z</time>
      </trkpt>
      <trkpt lat="36.83378" lon="-2.38793">
        <ele>60.993277</ele>
        <time>2022-04-23T10:12:11.000Z</time>
      </trkpt>
      <trkpt lat="36.83377" lon="-2.38793">
        <ele>60.995322</ele>
        <time>2022-04-23T10:12:12.000Z</time>
      </trkpt>
      <trkpt lat="36.83374" lon="-2.38795">
        <ele>61.009383</ele>
        <time>2022-04-23T10:12:17.000Z</time>
      </trkpt>
      <trkpt lat="36.83373" lon="-2.38797">
        <ele>61.017827</ele>
        <time>2022-04-23T10:12:18.000Z</time>
      </trkpt>
      <trkpt lat="36.83363" lon="-2.38814">
        <ele>61.086104</ele>
        <time>2022-04-23T10:12:24.000Z</time>
      </trkpt>
      <trkpt lat="36.83361" lon="-2.38816">
        <ele>61.098118</ele>
        <time>2022-04-23T10:12:25.000Z</time>
      </trkpt>
      <trkpt lat="36.83358" lon="-2.38823">
        <ele>61.122674</ele>
        <time>2022-04-23T10:12:28.000Z</time>
      </trkpt>
      <trkpt lat="36.83355" lon="-2.38826">
        <ele>61.139683</ele>
        <time>2022-04-23T10:12:30.000Z</time>
      </trkpt>
      <trkpt lat="36.83346" lon="-2.3884">
        <ele>61.198974</ele>
        <time>2022-04-23T10:12:37.000Z</time>
      </trkpt>
      <trkpt lat="36.83344" lon="-2.38843">
        <ele>61.210835</ele>
        <time>2022-04-23T10:12:38.000Z</time>
      </trkpt>
      <trkpt lat="36.83332" lon="-2.38855">
        <ele>61.274123</ele>
        <time>2022-04-23T10:12:44.000Z</time>
      </trkpt>
      <trkpt lat="36.83322" lon="-2.3887">
        <ele>61.335961</ele>
        <time>2022-04-23T10:12:50.000Z</time>
      </trkpt>
      <trkpt lat="36.83316" lon="-2.38882">
        <ele>61.384303</ele>
        <time>2022-04-23T10:12:56.000Z</time>
      </trkpt>
      <trkpt lat="36.83315" lon="-2.38885">
        <ele>61.393354</ele>
        <time>2022-04-23T10:12:57.000Z</time>
      </trkpt>
      <trkpt lat="36.83313" lon="-2.38889">
        <ele>61.409473</ele>
        <time>2022-04-23T10:12:59.000Z</time>
      </trkpt>
      <trkpt lat="36.83308" lon="-2.389">
        <ele>61.451705</ele>
        <time>2022-04-23T10:13:03.000Z</time>
      </trkpt>
      <trkpt lat="36.83303" lon="-2.38912">
        <ele>61.495135</ele>
        <time>2022-04-23T10:13:07.000Z</time>
      </trkpt>
      <trkpt lat="36.83301" lon="-2.38914">
        <ele>61.502015</ele>
        <time>2022-04-23T10:13:08.000Z</time>
      </trkpt>
      <trkpt lat="36.83298" lon="-2.3892">
        <ele>61.512308</ele>
        <time>2022-04-23T10:13:10.000Z</time>
      </trkpt>
      <trkpt lat="36.83288" lon="-2.38937">
        <ele>61.544424</ele>
        <time>2022-04-23T10:13:16.000Z</time>
      </trkpt>
      <trkpt lat="36.83286" lon="-2.38942">
        <ele>61.554314</ele>
        <time>2022-04-23T10:13:18.000Z</time>
      </trkpt>
      <trkpt lat="36.83281" lon="-2.38954">
        <ele>61.574108</ele>
        <time>2022-04-23T10:13:23.000Z</time>
      </trkpt>
      <trkpt lat="36.8328" lon="-2.38956">
        <ele>61.578085</ele>
        <time>2022-04-23T10:13:24.000Z</time>
      </trkpt>
      <trkpt lat="36.83276" lon="-2.38963">
        <ele>61.591562</ele>
        <time>2022-04-23T10:13:27.000Z</time>
      </trkpt>
      <trkpt lat="36.83271" lon="-2.38974">
        <ele>61.610721</ele>
        <time>2022-04-23T10:13:31.000Z</time>
      </trkpt>
      <trkpt lat="36.83259" lon="-2.38998">
        <ele>61.653569</ele>
        <time>2022-04-23T10:13:40.000Z</time>
      </trkpt>
      <trkpt lat="36.83247" lon="-2.39025">
        <ele>61.701994</ele>
        <time>2022-04-23T10:13:50.000Z</time>
      </trkpt>
      <trkpt lat="36.83243" lon="-2.39033">
        <ele>61.716123</ele>
        <time>2022-04-23T10:13:53.000Z</time>
      </trkpt>
      <trkpt lat="36.83241" lon="-2.39036">
        <ele>61.721397</ele>
        <time>2022-04-23T10:13:54.000Z</time>
      </trkpt>
      <trkpt lat="36.83235" lon="-2.3905">
        <ele>61.746834</ele>
        <time>2022-04-23T10:13:59.000Z</time>
      </trkpt>
      <trkpt lat="36.8323" lon="-2.39058">
        <ele>61.762047</ele>
        <time>2022-04-23T10:14:02.000Z</time>
      </trkpt>
      <trkpt lat="36.83221" lon="-2.39076">
        <ele>61.79438</ele>
        <time>2022-04-23T10:14:09.000Z</time>
      </trkpt>
      <trkpt lat="36.8322" lon="-2.39079">
        <ele>61.799475</ele>
        <time>2022-04-23T10:14:10.000Z</time>
      </trkpt>
      <trkpt lat="36.83215" lon="-2.3909">
        <ele>61.819257</ele>
        <time>2022-04-23T10:14:14.000Z</time>
      </trkpt>
      <trkpt lat="36.8321" lon="-2.39101">
        <ele>61.837527</ele>
        <time>2022-04-23T10:14:18.000Z</time>
      </trkpt>
      <trkpt lat="36.83196" lon="-2.39128">
        <ele>61.910639</ele>
        <time>2022-04-23T10:14:29.000Z</time>
      </trkpt>
      <trkpt lat="36.83192" lon="-2.39135">
        <ele>61.932217</ele>
        <time>2022-04-23T10:14:32.000Z</time>
      </trkpt>
      <trkpt lat="36.83186" lon="-2.39149">
        <ele>61.970528</ele>
        <time>2022-04-23T10:14:37.000Z</time>
      </trkpt>
      <trkpt lat="36.83184" lon="-2.39152">
        <ele>61.978588</ele>
        <time>2022-04-23T10:14:38.000Z</time>
      </trkpt>
      <trkpt lat="36.83172" lon="-2.39178">
        <ele>62.050109</ele>
        <time>2022-04-23T10:14:47.000Z</time>
      </trkpt>
      <trkpt lat="36.83163" lon="-2.39197">
        <ele>62.10316</ele>
        <time>2022-04-23T10:14:54.000Z</time>
      </trkpt>
      <trkpt lat="36.8315" lon="-2.39227">
        <ele>62.183737</ele>
        <time>2022-04-23T10:15:03.000Z</time>
      </trkpt>
      <trkpt lat="36.83147" lon="-2.39234">
        <ele>62.202215</ele>
        <time>2022-04-23T10:15:05.000Z</time>
      </trkpt>
      <trkpt lat="36.83145" lon="-2.39239">
        <ele>62.216635</ele>
        <time>2022-04-23T10:15:07.000Z</time>
      </trkpt>
      <trkpt lat="36.83139" lon="-2.39255">
        <ele>62.25723</ele>
        <time>2022-04-23T10:15:12.000Z</time>
      </trkpt>
      <trkpt lat="36.83129" lon="-2.3928">
        <ele>62.323823</ele>
        <time>2022-04-23T10:15:20.000Z</time>
      </trkpt>
      <trkpt lat="36.83123" lon="-2.39295">
        <ele>62.363812</ele>
        <time>2022-04-23T10:15:25.000Z</time>
      </trkpt>
      <trkpt lat="36.83118" lon="-2.3931">
        <ele>62.35374</ele>
        <time>2022-04-23T10:15:30.000Z</time>
      </trkpt>
      <trkpt lat="36.83115" lon="-2.39316">
        <ele>62.337774</ele>
        <time>2022-04-23T10:15:32.000Z</time>
      </trkpt>
      <trkpt lat="36.83111" lon="-2.39328">
        <ele>62.305664</ele>
        <time>2022-04-23T10:15:36.000Z</time>
      </trkpt>
      <trkpt lat="36.83105" lon="-2.3934">
        <ele>62.274044</ele>
        <time>2022-04-23T10:15:40.000Z</time>
      </trkpt>
      <trkpt lat="36.83099" lon="-2.39358">
        <ele>62.225548</ele>
        <time>2022-04-23T10:15:46.000Z</time>
      </trkpt>
      <trkpt lat="36.83095" lon="-2.39367">
        <ele>62.20216</ele>
        <time>2022-04-23T10:15:49.000Z</time>
      </trkpt>
      <trkpt lat="36.83092" lon="-2.39379">
        <ele>62.172418</ele>
        <time>2022-04-23T10:15:53.000Z</time>
      </trkpt>
      <trkpt lat="36.83088" lon="-2.39388">
        <ele>62.149156</ele>
        <time>2022-04-23T10:15:56.000Z</time>
      </trkpt>
      <trkpt lat="36.83087" lon="-2.39391">
        <ele>62.141326</ele>
        <time>2022-04-23T10:15:57.000Z</time>
      </trkpt>
      <trkpt lat="36.83079" lon="-2.3941">
        <ele>62.090395</ele>
        <time>2022-04-23T10:16:04.000Z</time>
      </trkpt>
      <trkpt lat="36.83069" lon="-2.39438">
        <ele>62.016693</ele>
        <time>2022-04-23T10:16:13.000Z</time>
      </trkpt>
      <trkpt lat="36.83064" lon="-2.39453">
        <ele>61.977155</ele>
        <time>2022-04-23T10:16:18.000Z</time>
      </trkpt>
      <trkpt lat="36.83052" lon="-2.39484">
        <ele>61.897454</ele>
        <time>2022-04-23T10:16:27.000Z</time>
      </trkpt>
      <trkpt lat="36.83049" lon="-2.39493">
        <ele>61.87222</ele>
        <time>2022-04-23T10:16:30.000Z</time>
      </trkpt>
      <trkpt lat="36.83042" lon="-2.39513">
        <ele>61.812833</ele>
        <time>2022-04-23T10:16:36.000Z</time>
      </trkpt>
      <trkpt lat="36.83039" lon="-2.39521">
        <ele>61.77915</ele>
        <time>2022-04-23T10:16:39.000Z</time>
      </trkpt>
      <trkpt lat="36.83032" lon="-2.39538">
        <ele>61.716564</ele>
        <time>2022-04-23T10:16:45.000Z</time>
      </trkpt>
      <trkpt lat="36.83031" lon="-2.39541">
        <ele>61.706785</ele>
        <time>2022-04-23T10:16:46.000Z</time>
      </trkpt>
      <trkpt lat="36.83023" lon="-2.39567">
        <ele>61.611544</ele>
        <time>2022-04-23T10:16:55.000Z</time>
      </trkpt>
      <trkpt lat="36.83016" lon="-2.39588">
        <ele>61.532215</ele>
        <time>2022-04-23T10:17:02.000Z</time>
      </trkpt>
      <trkpt lat="36.83012" lon="-2.39601">
        <ele>61.488194</ele>
        <time>2022-04-23T10:17:06.000Z</time>
      </trkpt>
      <trkpt lat="36.83008" lon="-2.39614">
        <ele>61.438833</ele>
        <time>2022-04-23T10:17:11.000Z</time>
      </trkpt>
      <trkpt lat="36.83006" lon="-2.39619">
        <ele>61.419754</ele>
        <time>2022-04-23T10:17:13.000Z</time>
      </trkpt>
      <trkpt lat="36.83006" lon="-2.39621">
        <ele>61.411759</ele>
        <time>2022-04-23T10:17:14.000Z</time>
      </trkpt>
      <trkpt lat="36.83004" lon="-2.39629">
        <ele>61.383161</ele>
        <time>2022-04-23T10:17:17.000Z</time>
      </trkpt>
      <trkpt lat="36.83003" lon="-2.39632">
        <ele>61.373062</ele>
        <time>2022-04-23T10:17:18.000Z</time>
      </trkpt>
      <trkpt lat="36.82995" lon="-2.39657">
        <ele>61.281923</ele>
        <time>2022-04-23T10:17:27.000Z</time>
      </trkpt>
      <trkpt lat="36.82994" lon="-2.3966">
        <ele>61.272612</ele>
        <time>2022-04-23T10:17:28.000Z</time>
      </trkpt>
      <trkpt lat="36.8299" lon="-2.39672">
        <ele>61.225772</ele>
        <time>2022-04-23T10:17:33.000Z</time>
      </trkpt>
      <trkpt lat="36.82989" lon="-2.39675">
        <ele>61.215523</ele>
        <time>2022-04-23T10:17:34.000Z</time>
      </trkpt>
      <trkpt lat="36.82981" lon="-2.39702">
        <ele>61.117262</ele>
        <time>2022-04-23T10:17:44.000Z</time>
      </trkpt>
      <trkpt lat="36.82977" lon="-2.39713">
        <ele>61.086964</ele>
        <time>2022-04-23T10:17:48.000Z</time>
      </trkpt>
      <trkpt lat="36.82975" lon="-2.39721">
        <ele>61.129215</ele>
        <time>2022-04-23T10:17:51.000Z</time>
      </trkpt>
      <trkpt lat="36.82974" lon="-2.39724">
        <ele>61.143264</ele>
        <time>2022-04-23T10:17:52.000Z</time>
      </trkpt>
      <trkpt lat="36.82974" lon="-2.39729">
        <ele>61.172932</ele>
        <time>2022-04-23T10:17:54.000Z</time>
      </trkpt>
      <trkpt lat="36.82969" lon="-2.39741">
        <ele>61.235371</ele>
        <time>2022-04-23T10:17:58.000Z</time>
      </trkpt>
      <trkpt lat="36.82963" lon="-2.3976">
        <ele>61.33587</ele>
        <time>2022-04-23T10:18:05.000Z</time>
      </trkpt>
      <trkpt lat="36.82962" lon="-2.39762">
        <ele>61.350119</ele>
        <time>2022-04-23T10:18:06.000Z</time>
      </trkpt>
      <trkpt lat="36.82953" lon="-2.39794">
        <ele>61.515075</ele>
        <time>2022-04-23T10:18:17.000Z</time>
      </trkpt>
      <trkpt lat="36.82945" lon="-2.39819">
        <ele>61.647664</ele>
        <time>2022-04-23T10:18:26.000Z</time>
      </trkpt>
      <trkpt lat="36.82937" lon="-2.39844">
        <ele>61.782492</ele>
        <time>2022-04-23T10:18:35.000Z</time>
      </trkpt>
      <trkpt lat="36.8293" lon="-2.39871">
        <ele>61.925333</ele>
        <time>2022-04-23T10:18:44.000Z</time>
      </trkpt>
      <trkpt lat="36.82921" lon="-2.39898">
        <ele>62.066833</ele>
        <time>2022-04-23T10:18:52.000Z</time>
      </trkpt>
      <trkpt lat="36.82913" lon="-2.3992">
        <ele>62.186757</ele>
        <time>2022-04-23T10:18:59.000Z</time>
      </trkpt>
      <trkpt lat="36.82901" lon="-2.39962">
        <ele>61.568842</ele>
        <time>2022-04-23T10:19:12.000Z</time>
      </trkpt>
      <trkpt lat="36.829" lon="-2.39965">
        <ele>61.521094</ele>
        <time>2022-04-23T10:19:13.000Z</time>
      </trkpt>
      <trkpt lat="36.82898" lon="-2.39971">
        <ele>61.430745</ele>
        <time>2022-04-23T10:19:15.000Z</time>
      </trkpt>
      <trkpt lat="36.82892" lon="-2.3999">
        <ele>61.134958</ele>
        <time>2022-04-23T10:19:22.000Z</time>
      </trkpt>
      <trkpt lat="36.82886" lon="-2.40011">
        <ele>60.817006</ele>
        <time>2022-04-23T10:19:30.000Z</time>
      </trkpt>
      <trkpt lat="36.8288" lon="-2.40029">
        <ele>60.541084</ele>
        <time>2022-04-23T10:19:37.000Z</time>
      </trkpt>
      <trkpt lat="36.82878" lon="-2.40034">
        <ele>60.461497</ele>
        <time>2022-04-23T10:19:39.000Z</time>
      </trkpt>
      <trkpt lat="36.82871" lon="-2.40056">
        <ele>60.124589</ele>
        <time>2022-04-23T10:19:47.000Z</time>
      </trkpt>
      <trkpt lat="36.82865" lon="-2.40077">
        <ele>59.811566</ele>
        <time>2022-04-23T10:19:54.000Z</time>
      </trkpt>
      <trkpt lat="36.8286" lon="-2.40096">
        <ele>59.514657</ele>
        <time>2022-04-23T10:20:00.000Z</time>
      </trkpt>
      <trkpt lat="36.82857" lon="-2.40105">
        <ele>59.378011</ele>
        <time>2022-04-23T10:20:03.000Z</time>
      </trkpt>
      <trkpt lat="36.82855" lon="-2.40111">
        <ele>59.284384</ele>
        <time>2022-04-23T10:20:05.000Z</time>
      </trkpt>
      <trkpt lat="36.8285" lon="-2.40127">
        <ele>59.042952</ele>
        <time>2022-04-23T10:20:10.000Z</time>
      </trkpt>
      <trkpt lat="36.82848" lon="-2.40133">
        <ele>58.942227</ele>
        <time>2022-04-23T10:20:12.000Z</time>
      </trkpt>
      <trkpt lat="36.8284" lon="-2.4016">
        <ele>58.517009</ele>
        <time>2022-04-23T10:20:20.000Z</time>
      </trkpt>
      <trkpt lat="36.82837" lon="-2.40167">
        <ele>58.400335</ele>
        <time>2022-04-23T10:20:22.000Z</time>
      </trkpt>
      <trkpt lat="36.82832" lon="-2.40182">
        <ele>58.164881</ele>
        <time>2022-04-23T10:20:26.000Z</time>
      </trkpt>
      <trkpt lat="36.82828" lon="-2.40192">
        <ele>57.996833</ele>
        <time>2022-04-23T10:20:29.000Z</time>
      </trkpt>
      <trkpt lat="36.82827" lon="-2.40195">
        <ele>57.949891</ele>
        <time>2022-04-23T10:20:30.000Z</time>
      </trkpt>
      <trkpt lat="36.8282" lon="-2.40213">
        <ele>57.653992</ele>
        <time>2022-04-23T10:20:36.000Z</time>
      </trkpt>
      <trkpt lat="36.82818" lon="-2.40219">
        <ele>57.560421</ele>
        <time>2022-04-23T10:20:38.000Z</time>
      </trkpt>
      <trkpt lat="36.82809" lon="-2.40241">
        <ele>57.193469</ele>
        <time>2022-04-23T10:20:46.000Z</time>
      </trkpt>
      <trkpt lat="36.82806" lon="-2.40249">
        <ele>57.064263</ele>
        <time>2022-04-23T10:20:49.000Z</time>
      </trkpt>
      <trkpt lat="36.82801" lon="-2.4026">
        <ele>56.865314</ele>
        <time>2022-04-23T10:20:54.000Z</time>
      </trkpt>
      <trkpt lat="36.8279" lon="-2.4029">
        <ele>56.376175</ele>
        <time>2022-04-23T10:21:04.000Z</time>
      </trkpt>
      <trkpt lat="36.82787" lon="-2.40296">
        <ele>56.270589</ele>
        <time>2022-04-23T10:21:06.000Z</time>
      </trkpt>
      <trkpt lat="36.82774" lon="-2.40324">
        <ele>55.793891</ele>
        <time>2022-04-23T10:21:15.000Z</time>
      </trkpt>
      <trkpt lat="36.82759" lon="-2.40355">
        <ele>55.799939</ele>
        <time>2022-04-23T10:21:26.000Z</time>
      </trkpt>
      <trkpt lat="36.82748" lon="-2.40376">
        <ele>55.949804</ele>
        <time>2022-04-23T10:21:34.000Z</time>
      </trkpt>
      <trkpt lat="36.82742" lon="-2.40385">
        <ele>56.021895</ele>
        <time>2022-04-23T10:21:38.000Z</time>
      </trkpt>
      <trkpt lat="36.82733" lon="-2.404">
        <ele>56.135064</ele>
        <time>2022-04-23T10:21:44.000Z</time>
      </trkpt>
      <trkpt lat="36.82727" lon="-2.40411">
        <ele>56.212922</ele>
        <time>2022-04-23T10:21:48.000Z</time>
      </trkpt>
      <trkpt lat="36.82719" lon="-2.40425">
        <ele>56.319083</ele>
        <time>2022-04-23T10:21:54.000Z</time>
      </trkpt>
      <trkpt lat="36.82715" lon="-2.40432">
        <ele>56.370012</ele>
        <time>2022-04-23T10:21:57.000Z</time>
      </trkpt>
      <trkpt lat="36.8271" lon="-2.40439">
        <ele>56.428911</ele>
        <time>2022-04-23T10:22:00.000Z</time>
      </trkpt>
      <trkpt lat="36.82707" lon="-2.40445">
        <ele>56.469016</ele>
        <time>2022-04-23T10:22:02.000Z</time>
      </trkpt>
      <trkpt lat="36.82701" lon="-2.40453">
        <ele>56.532634</ele>
        <time>2022-04-23T10:22:05.000Z</time>
      </trkpt>
      <trkpt lat="36.82693" lon="-2.40466">
        <ele>56.633488</ele>
        <time>2022-04-23T10:22:10.000Z</time>
      </trkpt>
      <trkpt lat="36.82686" lon="-2.40475">
        <ele>56.708425</ele>
        <time>2022-04-23T10:22:14.000Z</time>
      </trkpt>
      <trkpt lat="36.82684" lon="-2.40478">
        <ele>56.729334</ele>
        <time>2022-04-23T10:22:15.000Z</time>
      </trkpt>
      <trkpt lat="36.82668" lon="-2.40499">
        <ele>56.908278</ele>
        <time>2022-04-23T10:22:24.000Z</time>
      </trkpt>
      <trkpt lat="36.82651" lon="-2.40521">
        <ele>57.083</ele>
        <time>2022-04-23T10:22:31.000Z</time>
      </trkpt>
      <trkpt lat="36.82634" lon="-2.40541">
        <ele>57.24326</ele>
        <time>2022-04-23T10:22:38.000Z</time>
      </trkpt>
      <trkpt lat="36.82628" lon="-2.4055">
        <ele>57.311251</ele>
        <time>2022-04-23T10:22:42.000Z</time>
      </trkpt>
      <trkpt lat="36.82625" lon="-2.40554">
        <ele>57.342734</ele>
        <time>2022-04-23T10:22:44.000Z</time>
      </trkpt>
      <trkpt lat="36.82621" lon="-2.40558">
        <ele>57.375613</ele>
        <time>2022-04-23T10:22:46.000Z</time>
      </trkpt>
      <trkpt lat="36.82602" lon="-2.4058">
        <ele>57.555256</ele>
        <time>2022-04-23T10:22:55.000Z</time>
      </trkpt>
      <trkpt lat="36.82583" lon="-2.40599">
        <ele>57.721808</ele>
        <time>2022-04-23T10:23:02.000Z</time>
      </trkpt>
      <trkpt lat="36.82581" lon="-2.40602">
        <ele>57.746539</ele>
        <time>2022-04-23T10:23:03.000Z</time>
      </trkpt>
      <trkpt lat="36.82567" lon="-2.40616">
        <ele>57.870536</ele>
        <time>2022-04-23T10:23:08.000Z</time>
      </trkpt>
      <trkpt lat="36.82558" lon="-2.40625">
        <ele>57.945773</ele>
        <time>2022-04-23T10:23:11.000Z</time>
      </trkpt>
      <trkpt lat="36.82535" lon="-2.40649">
        <ele>58.151527</ele>
        <time>2022-04-23T10:23:20.000Z</time>
      </trkpt>
      <trkpt lat="36.82509" lon="-2.40676">
        <ele>58.391833</ele>
        <time>2022-04-23T10:23:30.000Z</time>
      </trkpt>
      <trkpt lat="36.82481" lon="-2.40705">
        <ele>58.652344</ele>
        <time>2022-04-23T10:23:41.000Z</time>
      </trkpt>
      <trkpt lat="36.8246" lon="-2.40726">
        <ele>58.840841</ele>
        <time>2022-04-23T10:23:49.000Z</time>
      </trkpt>
      <trkpt lat="36.82443" lon="-2.40745">
        <ele>59.006663</ele>
        <time>2022-04-23T10:23:57.000Z</time>
      </trkpt>
      <trkpt lat="36.82428" lon="-2.40759">
        <ele>59.139993</ele>
        <time>2022-04-23T10:24:03.000Z</time>
      </trkpt>
      <trkpt lat="36.82415" lon="-2.40773">
        <ele>59.259383</ele>
        <time>2022-04-23T10:24:08.000Z</time>
      </trkpt>
      <trkpt lat="36.82392" lon="-2.40797">
        <ele>59.476028</ele>
        <time>2022-04-23T10:24:18.000Z</time>
      </trkpt>
      <trkpt lat="36.82372" lon="-2.40815">
        <ele>59.69133</ele>
        <time>2022-04-23T10:24:27.000Z</time>
      </trkpt>
      <trkpt lat="36.82355" lon="-2.40829">
        <ele>59.882474</ele>
        <time>2022-04-23T10:24:35.000Z</time>
      </trkpt>
      <trkpt lat="36.82331" lon="-2.40847">
        <ele>60.135207</ele>
        <time>2022-04-23T10:24:45.000Z</time>
      </trkpt>
      <trkpt lat="36.8231" lon="-2.40862">
        <ele>60.362804</ele>
        <time>2022-04-23T10:24:54.000Z</time>
      </trkpt>
      <trkpt lat="36.82305" lon="-2.40866">
        <ele>60.419059</ele>
        <time>2022-04-23T10:24:56.000Z</time>
      </trkpt>
      <trkpt lat="36.8228" lon="-2.40884">
        <ele>60.681612</ele>
        <time>2022-04-23T10:25:05.000Z</time>
      </trkpt>
      <trkpt lat="36.82255" lon="-2.40904">
        <ele>60.95941</ele>
        <time>2022-04-23T10:25:14.000Z</time>
      </trkpt>
      <trkpt lat="36.82233" lon="-2.40922">
        <ele>61.190662</ele>
        <time>2022-04-23T10:25:22.000Z</time>
      </trkpt>
      <trkpt lat="36.82206" lon="-2.40943">
        <ele>61.238878</ele>
        <time>2022-04-23T10:25:32.000Z</time>
      </trkpt>
      <trkpt lat="36.82186" lon="-2.40958">
        <ele>61.274186</ele>
        <time>2022-04-23T10:25:39.000Z</time>
      </trkpt>
      <trkpt lat="36.82164" lon="-2.40976">
        <ele>61.314857</ele>
        <time>2022-04-23T10:25:47.000Z</time>
      </trkpt>
      <trkpt lat="36.82152" lon="-2.40986">
        <ele>61.335714</ele>
        <time>2022-04-23T10:25:51.000Z</time>
      </trkpt>
      <trkpt lat="36.82137" lon="-2.40996">
        <ele>61.362077</ele>
        <time>2022-04-23T10:25:57.000Z</time>
      </trkpt>
      <trkpt lat="36.82129" lon="-2.41003">
        <ele>61.377514</ele>
        <time>2022-04-23T10:26:01.000Z</time>
      </trkpt>
      <trkpt lat="36.82124" lon="-2.41008">
        <ele>61.386745</ele>
        <time>2022-04-23T10:26:03.000Z</time>
      </trkpt>
      <trkpt lat="36.82105" lon="-2.41016">
        <ele>61.417262</ele>
        <time>2022-04-23T10:26:09.000Z</time>
      </trkpt>
      <trkpt lat="36.82099" lon="-2.41014">
        <ele>61.426874</ele>
        <time>2022-04-23T10:26:11.000Z</time>
      </trkpt>
      <trkpt lat="36.82093" lon="-2.41017">
        <ele>61.435807</ele>
        <time>2022-04-23T10:26:13.000Z</time>
      </trkpt>
      <trkpt lat="36.82075" lon="-2.41035">
        <ele>61.465089</ele>
        <time>2022-04-23T10:26:19.000Z</time>
      </trkpt>
      <trkpt lat="36.82055" lon="-2.41053">
        <ele>61.479447</ele>
        <time>2022-04-23T10:26:25.000Z</time>
      </trkpt>
      <trkpt lat="36.82052" lon="-2.41056">
        <ele>61.481892</ele>
        <time>2022-04-23T10:26:26.000Z</time>
      </trkpt>
      <trkpt lat="36.82047" lon="-2.41063">
        <ele>61.486156</ele>
        <time>2022-04-23T10:26:28.000Z</time>
      </trkpt>
      <trkpt lat="36.82044" lon="-2.41076">
        <ele>61.492356</ele>
        <time>2022-04-23T10:26:31.000Z</time>
      </trkpt>
      <trkpt lat="36.82042" lon="-2.41079">
        <ele>61.494547</ele>
        <time>2022-04-23T10:26:32.000Z</time>
      </trkpt>
      <trkpt lat="36.82019" lon="-2.41101">
        <ele>61.511268</ele>
        <time>2022-04-23T10:26:40.000Z</time>
      </trkpt>
      <trkpt lat="36.82014" lon="-2.41107">
        <ele>61.515295</ele>
        <time>2022-04-23T10:26:42.000Z</time>
      </trkpt>
      <trkpt lat="36.82007" lon="-2.41115">
        <ele>61.521169</ele>
        <time>2022-04-23T10:26:45.000Z</time>
      </trkpt>
      <trkpt lat="36.82002" lon="-2.41121">
        <ele>61.525123</ele>
        <time>2022-04-23T10:26:47.000Z</time>
      </trkpt>
      <trkpt lat="36.81983" lon="-2.4115">
        <ele>61.542514</ele>
        <time>2022-04-23T10:26:56.000Z</time>
      </trkpt>
      <trkpt lat="36.81963" lon="-2.4119">
        <ele>61.564212</ele>
        <time>2022-04-23T10:27:07.000Z</time>
      </trkpt>
      <trkpt lat="36.81951" lon="-2.41214">
        <ele>61.668212</ele>
        <time>2022-04-23T10:27:14.000Z</time>
      </trkpt>
      <trkpt lat="36.8195" lon="-2.41216">
        <ele>61.67687</ele>
        <time>2022-04-23T10:27:15.000Z</time>
      </trkpt>
      <trkpt lat="36.81949" lon="-2.41217">
        <ele>61.685215</ele>
        <time>2022-04-23T10:27:17.000Z</time>
      </trkpt>
      <trkpt lat="36.81949" lon="-2.41218">
        <ele>61.686347</ele>
        <time>2022-04-23T10:27:18.000Z</time>
      </trkpt>
      <trkpt lat="36.8195" lon="-2.41217">
        <ele>61.693076</ele>
        <time>2022-04-23T10:27:33.000Z</time>
      </trkpt>
      <trkpt lat="36.8195" lon="-2.41217">
        <ele>61.693076</ele>
        <time>2022-04-23T10:27:48.000Z</time>
      </trkpt>
      <trkpt lat="36.8195" lon="-2.41216">
        <ele>61.693497</ele>
        <time>2022-04-23T10:28:00.000Z</time>
      </trkpt>
      <trkpt lat="36.81945" lon="-2.41225">
        <ele>61.736497</ele>
        <time>2022-04-23T10:28:06.000Z</time>
      </trkpt>
      <trkpt lat="36.81939" lon="-2.41236">
        <ele>61.792883</ele>
        <time>2022-04-23T10:28:09.000Z</time>
      </trkpt>
      <trkpt lat="36.81932" lon="-2.41252">
        <ele>61.870404</ele>
        <time>2022-04-23T10:28:13.000Z</time>
      </trkpt>
      <trkpt lat="36.81916" lon="-2.41284">
        <ele>62.028147</ele>
        <time>2022-04-23T10:28:21.000Z</time>
      </trkpt>
      <trkpt lat="36.8191" lon="-2.41294">
        <ele>62.08255</ele>
        <time>2022-04-23T10:28:24.000Z</time>
      </trkpt>
      <trkpt lat="36.81902" lon="-2.41309">
        <ele>62.154515</ele>
        <time>2022-04-23T10:28:28.000Z</time>
      </trkpt>
      <trkpt lat="36.81901" lon="-2.41312">
        <ele>62.171019</ele>
        <time>2022-04-23T10:28:29.000Z</time>
      </trkpt>
      <trkpt lat="36.81899" lon="-2.41316">
        <ele>62.188336</ele>
        <time>2022-04-23T10:28:30.000Z</time>
      </trkpt>
      <trkpt lat="36.81887" lon="-2.41346">
        <ele>62.332306</ele>
        <time>2022-04-23T10:28:38.000Z</time>
      </trkpt>
      <trkpt lat="36.81881" lon="-2.41362">
        <ele>62.404425</ele>
        <time>2022-04-23T10:28:42.000Z</time>
      </trkpt>
      <trkpt lat="36.81875" lon="-2.41385">
        <ele>62.505864</ele>
        <time>2022-04-23T10:28:48.000Z</time>
      </trkpt>
      <trkpt lat="36.81871" lon="-2.41407">
        <ele>62.395548</ele>
        <time>2022-04-23T10:28:54.000Z</time>
      </trkpt>
      <trkpt lat="36.81865" lon="-2.41438">
        <ele>62.219982</ele>
        <time>2022-04-23T10:29:02.000Z</time>
      </trkpt>
      <trkpt lat="36.81858" lon="-2.41473">
        <ele>62.021461</ele>
        <time>2022-04-23T10:29:10.000Z</time>
      </trkpt>
      <trkpt lat="36.81858" lon="-2.41478">
        <ele>61.99764</ele>
        <time>2022-04-23T10:29:11.000Z</time>
      </trkpt>
      <trkpt lat="36.81853" lon="-2.41511">
        <ele>61.81342</ele>
        <time>2022-04-23T10:29:18.000Z</time>
      </trkpt>
      <trkpt lat="36.81846" lon="-2.41544">
        <ele>61.629334</ele>
        <time>2022-04-23T10:29:25.000Z</time>
      </trkpt>
      <trkpt lat="36.81842" lon="-2.41567">
        <ele>61.500278</ele>
        <time>2022-04-23T10:29:30.000Z</time>
      </trkpt>
      <trkpt lat="36.81839" lon="-2.41585">
        <ele>61.397263</ele>
        <time>2022-04-23T10:29:34.000Z</time>
      </trkpt>
      <trkpt lat="36.81831" lon="-2.41623">
        <ele>61.27758</ele>
        <time>2022-04-23T10:29:42.000Z</time>
      </trkpt>
      <trkpt lat="36.8183" lon="-2.41628">
        <ele>61.275789</ele>
        <time>2022-04-23T10:29:43.000Z</time>
      </trkpt>
      <trkpt lat="36.81829" lon="-2.41632">
        <ele>61.274112</ele>
        <time>2022-04-23T10:29:44.000Z</time>
      </trkpt>
      <trkpt lat="36.81828" lon="-2.4164">
        <ele>61.271018</ele>
        <time>2022-04-23T10:29:46.000Z</time>
      </trkpt>
      <trkpt lat="36.81825" lon="-2.41656">
        <ele>61.264552</ele>
        <time>2022-04-23T10:29:50.000Z</time>
      </trkpt>
      <trkpt lat="36.81823" lon="-2.41663">
        <ele>61.26136</ele>
        <time>2022-04-23T10:29:52.000Z</time>
      </trkpt>
      <trkpt lat="36.81819" lon="-2.41681">
        <ele>61.253983</ele>
        <time>2022-04-23T10:29:56.000Z</time>
      </trkpt>
      <trkpt lat="36.81815" lon="-2.41695">
        <ele>61.248339</ele>
        <time>2022-04-23T10:29:59.000Z</time>
      </trkpt>
      <trkpt lat="36.81813" lon="-2.41704">
        <ele>61.244752</ele>
        <time>2022-04-23T10:30:01.000Z</time>
      </trkpt>
      <trkpt lat="36.81803" lon="-2.41744">
        <ele>61.228134</ele>
        <time>2022-04-23T10:30:10.000Z</time>
      </trkpt>
      <trkpt lat="36.81798" lon="-2.41758">
        <ele>61.221871</ele>
        <time>2022-04-23T10:30:14.000Z</time>
      </trkpt>
      <trkpt lat="36.81794" lon="-2.41773">
        <ele>61.215635</ele>
        <time>2022-04-23T10:30:18.000Z</time>
      </trkpt>
      <trkpt lat="36.81786" lon="-2.41799">
        <ele>61.204681</ele>
        <time>2022-04-23T10:30:25.000Z</time>
      </trkpt>
      <trkpt lat="36.8178" lon="-2.41819">
        <ele>61.19657</ele>
        <time>2022-04-23T10:30:30.000Z</time>
      </trkpt>
      <trkpt lat="36.81773" lon="-2.41842">
        <ele>61.246247</ele>
        <time>2022-04-23T10:30:36.000Z</time>
      </trkpt>
      <trkpt lat="36.81765" lon="-2.41867">
        <ele>61.300158</ele>
        <time>2022-04-23T10:30:42.000Z</time>
      </trkpt>
      <trkpt lat="36.81762" lon="-2.41876">
        <ele>61.31854</ele>
        <time>2022-04-23T10:30:44.000Z</time>
      </trkpt>
      <trkpt lat="36.81759" lon="-2.41888">
        <ele>61.343838</ele>
        <time>2022-04-23T10:30:47.000Z</time>
      </trkpt>
      <trkpt lat="36.81753" lon="-2.41911">
        <ele>61.392173</ele>
        <time>2022-04-23T10:30:53.000Z</time>
      </trkpt>
      <trkpt lat="36.81744" lon="-2.41943">
        <ele>61.460539</ele>
        <time>2022-04-23T10:31:02.000Z</time>
      </trkpt>
      <trkpt lat="36.81738" lon="-2.41958">
        <ele>61.492239</ele>
        <time>2022-04-23T10:31:06.000Z</time>
      </trkpt>
      <trkpt lat="36.81733" lon="-2.41974">
        <ele>61.52649</ele>
        <time>2022-04-23T10:31:10.000Z</time>
      </trkpt>
      <trkpt lat="36.81729" lon="-2.41986">
        <ele>61.55401</ele>
        <time>2022-04-23T10:31:13.000Z</time>
      </trkpt>
      <trkpt lat="36.81719" lon="-2.42016">
        <ele>61.617439</ele>
        <time>2022-04-23T10:31:19.000Z</time>
      </trkpt>
      <trkpt lat="36.81706" lon="-2.42051">
        <ele>61.506274</ele>
        <time>2022-04-23T10:31:26.000Z</time>
      </trkpt>
      <trkpt lat="36.81689" lon="-2.42086">
        <ele>61.29428</ele>
        <time>2022-04-23T10:31:33.000Z</time>
      </trkpt>
      <trkpt lat="36.81677" lon="-2.42106">
        <ele>61.160031</ele>
        <time>2022-04-23T10:31:37.000Z</time>
      </trkpt>
      <trkpt lat="36.81668" lon="-2.42122">
        <ele>61.057484</ele>
        <time>2022-04-23T10:31:40.000Z</time>
      </trkpt>
      <trkpt lat="36.8165" lon="-2.42153">
        <ele>60.856968</ele>
        <time>2022-04-23T10:31:46.000Z</time>
      </trkpt>
      <trkpt lat="36.81645" lon="-2.42162">
        <ele>60.795706</ele>
        <time>2022-04-23T10:31:48.000Z</time>
      </trkpt>
      <trkpt lat="36.81632" lon="-2.42185">
        <ele>60.649918</ele>
        <time>2022-04-23T10:31:53.000Z</time>
      </trkpt>
      <trkpt lat="36.81627" lon="-2.42194">
        <ele>60.592693</ele>
        <time>2022-04-23T10:31:55.000Z</time>
      </trkpt>
      <trkpt lat="36.81606" lon="-2.42232">
        <ele>60.415162</ele>
        <time>2022-04-23T10:32:04.000Z</time>
      </trkpt>
      <trkpt lat="36.81602" lon="-2.42241">
        <ele>60.392736</ele>
        <time>2022-04-23T10:32:06.000Z</time>
      </trkpt>
      <trkpt lat="36.81588" lon="-2.42273">
        <ele>60.311925</ele>
        <time>2022-04-23T10:32:13.000Z</time>
      </trkpt>
      <trkpt lat="36.81575" lon="-2.42311">
        <ele>60.222951</ele>
        <time>2022-04-23T10:32:21.000Z</time>
      </trkpt>
      <trkpt lat="36.81565" lon="-2.42351">
        <ele>60.132111</ele>
        <time>2022-04-23T10:32:30.000Z</time>
      </trkpt>
      <trkpt lat="36.8156" lon="-2.42378">
        <ele>60.072802</ele>
        <time>2022-04-23T10:32:37.000Z</time>
      </trkpt>
      <trkpt lat="36.81557" lon="-2.42406">
        <ele>60.009921</ele>
        <time>2022-04-23T10:32:45.000Z</time>
      </trkpt>
      <trkpt lat="36.81556" lon="-2.42437">
        <ele>60.046598</ele>
        <time>2022-04-23T10:32:54.000Z</time>
      </trkpt>
      <trkpt lat="36.81556" lon="-2.42459">
        <ele>60.169238</ele>
        <time>2022-04-23T10:32:59.000Z</time>
      </trkpt>
      <trkpt lat="36.81558" lon="-2.42476">
        <ele>60.265377</ele>
        <time>2022-04-23T10:33:04.000Z</time>
      </trkpt>
      <trkpt lat="36.81561" lon="-2.42504">
        <ele>60.426578</ele>
        <time>2022-04-23T10:33:13.000Z</time>
      </trkpt>
      <trkpt lat="36.81563" lon="-2.42533">
        <ele>60.591445</ele>
        <time>2022-04-23T10:33:22.000Z</time>
      </trkpt>
      <trkpt lat="36.81563" lon="-2.42551">
        <ele>60.691619</ele>
        <time>2022-04-23T10:33:26.000Z</time>
      </trkpt>
      <trkpt lat="36.81565" lon="-2.42581">
        <ele>60.862417</ele>
        <time>2022-04-23T10:33:33.000Z</time>
      </trkpt>
      <trkpt lat="36.81566" lon="-2.42585">
        <ele>60.886861</ele>
        <time>2022-04-23T10:33:34.000Z</time>
      </trkpt>
      <trkpt lat="36.81567" lon="-2.42599">
        <ele>60.961892</ele>
        <time>2022-04-23T10:33:37.000Z</time>
      </trkpt>
      <trkpt lat="36.81567" lon="-2.42612">
        <ele>61.035108</ele>
        <time>2022-04-23T10:33:40.000Z</time>
      </trkpt>
      <trkpt lat="36.81568" lon="-2.4262">
        <ele>61.08031</ele>
        <time>2022-04-23T10:33:42.000Z</time>
      </trkpt>
      <trkpt lat="36.81568" lon="-2.42645">
        <ele>61.220393</ele>
        <time>2022-04-23T10:33:48.000Z</time>
      </trkpt>
      <trkpt lat="36.81568" lon="-2.42654">
        <ele>61.29748</ele>
        <time>2022-04-23T10:33:50.000Z</time>
      </trkpt>
      <trkpt lat="36.81569" lon="-2.42663">
        <ele>61.391258</ele>
        <time>2022-04-23T10:33:52.000Z</time>
      </trkpt>
      <trkpt lat="36.8157" lon="-2.42679">
        <ele>61.546428</ele>
        <time>2022-04-23T10:33:55.000Z</time>
      </trkpt>
      <trkpt lat="36.81573" lon="-2.42695">
        <ele>61.700053</ele>
        <time>2022-04-23T10:33:58.000Z</time>
      </trkpt>
      <trkpt lat="36.81573" lon="-2.42705">
        <ele>61.797486</ele>
        <time>2022-04-23T10:34:00.000Z</time>
      </trkpt>
      <trkpt lat="36.81577" lon="-2.42725">
        <ele>62.001145</ele>
        <time>2022-04-23T10:34:05.000Z</time>
      </trkpt>
      <trkpt lat="36.81577" lon="-2.42745">
        <ele>62.196452</ele>
        <time>2022-04-23T10:34:10.000Z</time>
      </trkpt>
      <trkpt lat="36.8158" lon="-2.4278">
        <ele>62.530236</ele>
        <time>2022-04-23T10:34:18.000Z</time>
      </trkpt>
      <trkpt lat="36.8158" lon="-2.42784">
        <ele>62.571331</ele>
        <time>2022-04-23T10:34:19.000Z</time>
      </trkpt>
      <trkpt lat="36.81581" lon="-2.42796">
        <ele>62.690616</ele>
        <time>2022-04-23T10:34:22.000Z</time>
      </trkpt>
      <trkpt lat="36.81582" lon="-2.42804">
        <ele>62.769913</ele>
        <time>2022-04-23T10:34:24.000Z</time>
      </trkpt>
      <trkpt lat="36.81582" lon="-2.42808">
        <ele>62.807825</ele>
        <time>2022-04-23T10:34:25.000Z</time>
      </trkpt>
      <trkpt lat="36.81582" lon="-2.42821">
        <ele>62.932285</ele>
        <time>2022-04-23T10:34:28.000Z</time>
      </trkpt>
      <trkpt lat="36.81584" lon="-2.42842">
        <ele>63.143713</ele>
        <time>2022-04-23T10:34:34.000Z</time>
      </trkpt>
      <trkpt lat="36.81584" lon="-2.42846">
        <ele>63.17774</ele>
        <time>2022-04-23T10:34:35.000Z</time>
      </trkpt>
      <trkpt lat="36.81584" lon="-2.4285">
        <ele>63.214979</ele>
        <time>2022-04-23T10:34:36.000Z</time>
      </trkpt>
      <trkpt lat="36.81585" lon="-2.42861">
        <ele>63.320165</ele>
        <time>2022-04-23T10:34:39.000Z</time>
      </trkpt>
      <trkpt lat="36.81586" lon="-2.42867">
        <ele>63.382925</ele>
        <time>2022-04-23T10:34:41.000Z</time>
      </trkpt>
      <trkpt lat="36.81586" lon="-2.42888">
        <ele>63.342842</ele>
        <time>2022-04-23T10:34:47.000Z</time>
      </trkpt>
      <trkpt lat="36.81587" lon="-2.42895">
        <ele>63.311987</ele>
        <time>2022-04-23T10:34:49.000Z</time>
      </trkpt>
      <trkpt lat="36.81587" lon="-2.42901">
        <ele>63.285243</ele>
        <time>2022-04-23T10:34:51.000Z</time>
      </trkpt>
      <trkpt lat="36.81589" lon="-2.42927">
        <ele>63.166358</ele>
        <time>2022-04-23T10:34:58.000Z</time>
      </trkpt>
      <trkpt lat="36.81589" lon="-2.42932">
        <ele>63.1472</ele>
        <time>2022-04-23T10:34:59.000Z</time>
      </trkpt>
      <trkpt lat="36.81589" lon="-2.42936">
        <ele>63.127129</ele>
        <time>2022-04-23T10:35:00.000Z</time>
      </trkpt>
      <trkpt lat="36.81591" lon="-2.42959">
        <ele>63.024757</ele>
        <time>2022-04-23T10:35:06.000Z</time>
      </trkpt>
      <trkpt lat="36.81591" lon="-2.42962">
        <ele>63.009574</ele>
        <time>2022-04-23T10:35:07.000Z</time>
      </trkpt>
      <trkpt lat="36.81591" lon="-2.42982">
        <ele>62.924467</ele>
        <time>2022-04-23T10:35:13.000Z</time>
      </trkpt>
      <trkpt lat="36.81591" lon="-2.42985">
        <ele>62.910173</ele>
        <time>2022-04-23T10:35:14.000Z</time>
      </trkpt>
      <trkpt lat="36.81593" lon="-2.43002">
        <ele>62.834119</ele>
        <time>2022-04-23T10:35:20.000Z</time>
      </trkpt>
      <trkpt lat="36.81595" lon="-2.43032">
        <ele>62.700893</ele>
        <time>2022-04-23T10:35:29.000Z</time>
      </trkpt>
      <trkpt lat="36.81596" lon="-2.43049">
        <ele>62.623161</ele>
        <time>2022-04-23T10:35:35.000Z</time>
      </trkpt>
      <trkpt lat="36.81596" lon="-2.43052">
        <ele>62.609255</ele>
        <time>2022-04-23T10:35:36.000Z</time>
      </trkpt>
      <trkpt lat="36.81597" lon="-2.43059">
        <ele>62.578788</ele>
        <time>2022-04-23T10:35:38.000Z</time>
      </trkpt>
      <trkpt lat="36.81597" lon="-2.43066">
        <ele>62.545757</ele>
        <time>2022-04-23T10:35:40.000Z</time>
      </trkpt>
      <trkpt lat="36.81599" lon="-2.43086">
        <ele>62.457235</ele>
        <time>2022-04-23T10:35:46.000Z</time>
      </trkpt>
      <trkpt lat="36.81599" lon="-2.43089">
        <ele>62.445643</ele>
        <time>2022-04-23T10:35:47.000Z</time>
      </trkpt>
      <trkpt lat="36.81599" lon="-2.4309">
        <ele>62.437607</ele>
        <time>2022-04-23T10:35:48.000Z</time>
      </trkpt>
      <trkpt lat="36.81599" lon="-2.43092">
        <ele>62.430396</ele>
        <time>2022-04-23T10:35:49.000Z</time>
      </trkpt>
      <trkpt lat="36.81602" lon="-2.43095">
        <ele>62.426658</ele>
        <time>2022-04-23T10:35:51.000Z</time>
      </trkpt>
      <trkpt lat="36.81604" lon="-2.43095">
        <ele>62.437653</ele>
        <time>2022-04-23T10:35:52.000Z</time>
      </trkpt>
      <trkpt lat="36.8161" lon="-2.43095">
        <ele>62.46796</ele>
        <time>2022-04-23T10:35:54.000Z</time>
      </trkpt>
      <trkpt lat="36.81621" lon="-2.43093">
        <ele>62.526294</ele>
        <time>2022-04-23T10:35:57.000Z</time>
      </trkpt>
      <trkpt lat="36.81631" lon="-2.43092">
        <ele>62.579557</ele>
        <time>2022-04-23T10:36:00.000Z</time>
      </trkpt>
      <trkpt lat="36.81641" lon="-2.4309">
        <ele>62.632246</ele>
        <time>2022-04-23T10:36:03.000Z</time>
      </trkpt>
      <trkpt lat="36.81655" lon="-2.43085">
        <ele>62.708434</ele>
        <time>2022-04-23T10:36:08.000Z</time>
      </trkpt>
      <trkpt lat="36.81656" lon="-2.43082">
        <ele>62.722791</ele>
        <time>2022-04-23T10:36:09.000Z</time>
      </trkpt>
      <trkpt lat="36.81656" lon="-2.4306">
        <ele>62.81474</ele>
        <time>2022-04-23T10:36:14.000Z</time>
      </trkpt>
      <trkpt lat="36.81656" lon="-2.43056">
        <ele>62.83278</ele>
        <time>2022-04-23T10:36:15.000Z</time>
      </trkpt>
      <trkpt lat="36.81653" lon="-2.43013">
        <ele>63.009946</ele>
        <time>2022-04-23T10:36:24.000Z</time>
      </trkpt>
      <trkpt lat="36.81654" lon="-2.43003">
        <ele>63.052065</ele>
        <time>2022-04-23T10:36:26.000Z</time>
      </trkpt>
      <trkpt lat="36.81661" lon="-2.42997">
        <ele>63.094197</ele>
        <time>2022-04-23T10:36:28.000Z</time>
      </trkpt>
      <trkpt lat="36.81678" lon="-2.42993">
        <ele>63.185181</ele>
        <time>2022-04-23T10:36:32.000Z</time>
      </trkpt>
      <trkpt lat="36.81686" lon="-2.42991">
        <ele>63.229371</ele>
        <time>2022-04-23T10:36:34.000Z</time>
      </trkpt>
      <trkpt lat="36.81721" lon="-2.42986">
        <ele>63.401401</ele>
        <time>2022-04-23T10:36:42.000Z</time>
      </trkpt>
      <trkpt lat="36.81725" lon="-2.42986">
        <ele>63.418632</ele>
        <time>2022-04-23T10:36:43.000Z</time>
      </trkpt>
      <trkpt lat="36.81728" lon="-2.42985">
        <ele>63.435072</ele>
        <time>2022-04-23T10:36:44.000Z</time>
      </trkpt>
      <trkpt lat="36.81736" lon="-2.42983">
        <ele>63.46772</ele>
        <time>2022-04-23T10:36:46.000Z</time>
      </trkpt>
      <trkpt lat="36.81745" lon="-2.42981">
        <ele>63.505763</ele>
        <time>2022-04-23T10:36:48.000Z</time>
      </trkpt>
      <trkpt lat="36.81749" lon="-2.42981">
        <ele>63.52501</ele>
        <time>2022-04-23T10:36:49.000Z</time>
      </trkpt>
      <trkpt lat="36.81774" lon="-2.42977">
        <ele>63.631835</ele>
        <time>2022-04-23T10:36:55.000Z</time>
      </trkpt>
      <trkpt lat="36.818" lon="-2.42976">
        <ele>63.740334</ele>
        <time>2022-04-23T10:37:02.000Z</time>
      </trkpt>
      <trkpt lat="36.8181" lon="-2.42976">
        <ele>63.784281</ele>
        <time>2022-04-23T10:37:05.000Z</time>
      </trkpt>
      <trkpt lat="36.81835" lon="-2.42973">
        <ele>63.89035</ele>
        <time>2022-04-23T10:37:11.000Z</time>
      </trkpt>
      <trkpt lat="36.81843" lon="-2.42971">
        <ele>63.927189</ele>
        <time>2022-04-23T10:37:13.000Z</time>
      </trkpt>
      <trkpt lat="36.8186" lon="-2.42967">
        <ele>64.001591</ele>
        <time>2022-04-23T10:37:17.000Z</time>
      </trkpt>
      <trkpt lat="36.81879" lon="-2.42964">
        <ele>64.082115</ele>
        <time>2022-04-23T10:37:21.000Z</time>
      </trkpt>
      <trkpt lat="36.81888" lon="-2.42963">
        <ele>64.119812</ele>
        <time>2022-04-23T10:37:23.000Z</time>
      </trkpt>
      <trkpt lat="36.81931" lon="-2.42954">
        <ele>64.386745</ele>
        <time>2022-04-23T10:37:32.000Z</time>
      </trkpt>
      <trkpt lat="36.81949" lon="-2.4295">
        <ele>64.499269</ele>
        <time>2022-04-23T10:37:36.000Z</time>
      </trkpt>
      <trkpt lat="36.81967" lon="-2.42947">
        <ele>64.614643</ele>
        <time>2022-04-23T10:37:40.000Z</time>
      </trkpt>
      <trkpt lat="36.81991" lon="-2.42942">
        <ele>64.763941</ele>
        <time>2022-04-23T10:37:45.000Z</time>
      </trkpt>
      <trkpt lat="36.82001" lon="-2.4294">
        <ele>64.821836</ele>
        <time>2022-04-23T10:37:47.000Z</time>
      </trkpt>
      <trkpt lat="36.82049" lon="-2.42932">
        <ele>65.119872</ele>
        <time>2022-04-23T10:37:57.000Z</time>
      </trkpt>
      <trkpt lat="36.82063" lon="-2.4293">
        <ele>65.209729</ele>
        <time>2022-04-23T10:38:00.000Z</time>
      </trkpt>
      <trkpt lat="36.82082" lon="-2.42925">
        <ele>65.355265</ele>
        <time>2022-04-23T10:38:04.000Z</time>
      </trkpt>
      <trkpt lat="36.82087" lon="-2.42925">
        <ele>65.394026</ele>
        <time>2022-04-23T10:38:05.000Z</time>
      </trkpt>
      <trkpt lat="36.82106" lon="-2.42922">
        <ele>65.548548</ele>
        <time>2022-04-23T10:38:09.000Z</time>
      </trkpt>
      <trkpt lat="36.8211" lon="-2.42922">
        <ele>65.584048</ele>
        <time>2022-04-23T10:38:10.000Z</time>
      </trkpt>
      <trkpt lat="36.82155" lon="-2.42913">
        <ele>65.951229</ele>
        <time>2022-04-23T10:38:20.000Z</time>
      </trkpt>
      <trkpt lat="36.82187" lon="-2.42907">
        <ele>66.208944</ele>
        <time>2022-04-23T10:38:27.000Z</time>
      </trkpt>
      <trkpt lat="36.82191" lon="-2.42906">
        <ele>66.244212</ele>
        <time>2022-04-23T10:38:28.000Z</time>
      </trkpt>
      <trkpt lat="36.8221" lon="-2.42902">
        <ele>66.396992</ele>
        <time>2022-04-23T10:38:33.000Z</time>
      </trkpt>
      <trkpt lat="36.82235" lon="-2.42895">
        <ele>66.604153</ele>
        <time>2022-04-23T10:38:40.000Z</time>
      </trkpt>
      <trkpt lat="36.82252" lon="-2.42892">
        <ele>66.713967</ele>
        <time>2022-04-23T10:38:44.000Z</time>
      </trkpt>
      <trkpt lat="36.82272" lon="-2.42888">
        <ele>66.81468</ele>
        <time>2022-04-23T10:38:49.000Z</time>
      </trkpt>
      <trkpt lat="36.82317" lon="-2.42879">
        <ele>67.037759</ele>
        <time>2022-04-23T10:38:59.000Z</time>
      </trkpt>
      <trkpt lat="36.82335" lon="-2.42876">
        <ele>67.12842</ele>
        <time>2022-04-23T10:39:03.000Z</time>
      </trkpt>
      <trkpt lat="36.82344" lon="-2.42875">
        <ele>67.172409</ele>
        <time>2022-04-23T10:39:05.000Z</time>
      </trkpt>
      <trkpt lat="36.82348" lon="-2.42874">
        <ele>67.19205</ele>
        <time>2022-04-23T10:39:06.000Z</time>
      </trkpt>
      <trkpt lat="36.8237" lon="-2.42868">
        <ele>67.302077</ele>
        <time>2022-04-23T10:39:11.000Z</time>
      </trkpt>
      <trkpt lat="36.82408" lon="-2.4286">
        <ele>67.490942</ele>
        <time>2022-04-23T10:39:20.000Z</time>
      </trkpt>
      <trkpt lat="36.82412" lon="-2.42859">
        <ele>67.511932</ele>
        <time>2022-04-23T10:39:21.000Z</time>
      </trkpt>
      <trkpt lat="36.82425" lon="-2.42857">
        <ele>67.577765</ele>
        <time>2022-04-23T10:39:24.000Z</time>
      </trkpt>
      <trkpt lat="36.82448" lon="-2.42853">
        <ele>67.692666</ele>
        <time>2022-04-23T10:39:29.000Z</time>
      </trkpt>
      <trkpt lat="36.82482" lon="-2.42846">
        <ele>67.868803</ele>
        <time>2022-04-23T10:39:37.000Z</time>
      </trkpt>
      <trkpt lat="36.8249" lon="-2.42844">
        <ele>67.912994</ele>
        <time>2022-04-23T10:39:39.000Z</time>
      </trkpt>
      <trkpt lat="36.825" lon="-2.42843">
        <ele>67.959984</ele>
        <time>2022-04-23T10:39:41.000Z</time>
      </trkpt>
      <trkpt lat="36.82514" lon="-2.4284">
        <ele>68.031871</ele>
        <time>2022-04-23T10:39:44.000Z</time>
      </trkpt>
      <trkpt lat="36.82523" lon="-2.42837">
        <ele>68.079837</ele>
        <time>2022-04-23T10:39:46.000Z</time>
      </trkpt>
      <trkpt lat="36.82554" lon="-2.42832">
        <ele>68.237186</ele>
        <time>2022-04-23T10:39:53.000Z</time>
      </trkpt>
      <trkpt lat="36.8259" lon="-2.42826">
        <ele>68.425943</ele>
        <time>2022-04-23T10:40:01.000Z</time>
      </trkpt>
      <trkpt lat="36.82643" lon="-2.42818">
        <ele>68.694744</ele>
        <time>2022-04-23T10:40:12.000Z</time>
      </trkpt>
      <trkpt lat="36.82648" lon="-2.42818">
        <ele>68.718577</ele>
        <time>2022-04-23T10:40:13.000Z</time>
      </trkpt>
      <trkpt lat="36.82657" lon="-2.42818">
        <ele>68.765266</ele>
        <time>2022-04-23T10:40:15.000Z</time>
      </trkpt>
      <trkpt lat="36.82666" lon="-2.42819">
        <ele>68.811012</ele>
        <time>2022-04-23T10:40:17.000Z</time>
      </trkpt>
      <trkpt lat="36.82683" lon="-2.42824">
        <ele>68.899961</ele>
        <time>2022-04-23T10:40:21.000Z</time>
      </trkpt>
      <trkpt lat="36.82716" lon="-2.42836">
        <ele>69.074075</ele>
        <time>2022-04-23T10:40:29.000Z</time>
      </trkpt>
      <trkpt lat="36.82748" lon="-2.42852">
        <ele>69.250162</ele>
        <time>2022-04-23T10:40:38.000Z</time>
      </trkpt>
      <trkpt lat="36.82752" lon="-2.42853">
        <ele>69.268312</ele>
        <time>2022-04-23T10:40:39.000Z</time>
      </trkpt>
      <trkpt lat="36.82763" lon="-2.42857">
        <ele>69.326027</ele>
        <time>2022-04-23T10:40:42.000Z</time>
      </trkpt>
      <trkpt lat="36.82776" lon="-2.42857">
        <ele>69.393227</ele>
        <time>2022-04-23T10:40:46.000Z</time>
      </trkpt>
      <trkpt lat="36.82794" lon="-2.42842">
        <ele>69.493951</ele>
        <time>2022-04-23T10:40:52.000Z</time>
      </trkpt>
      <trkpt lat="36.82815" lon="-2.42833">
        <ele>69.596425</ele>
        <time>2022-04-23T10:40:57.000Z</time>
      </trkpt>
      <trkpt lat="36.82819" lon="-2.4283">
        <ele>69.617311</ele>
        <time>2022-04-23T10:40:58.000Z</time>
      </trkpt>
      <trkpt lat="36.82822" lon="-2.42828">
        <ele>69.637913</ele>
        <time>2022-04-23T10:40:59.000Z</time>
      </trkpt>
      <trkpt lat="36.82834" lon="-2.42819">
        <ele>69.699125</ele>
        <time>2022-04-23T10:41:02.000Z</time>
      </trkpt>
      <trkpt lat="36.82842" lon="-2.42816">
        <ele>69.738144</ele>
        <time>2022-04-23T10:41:04.000Z</time>
      </trkpt>
      <trkpt lat="36.82845" lon="-2.42813">
        <ele>69.758199</ele>
        <time>2022-04-23T10:41:05.000Z</time>
      </trkpt>
      <trkpt lat="36.82861" lon="-2.42805">
        <ele>69.836658</ele>
        <time>2022-04-23T10:41:09.000Z</time>
      </trkpt>
      <trkpt lat="36.82868" lon="-2.42803">
        <ele>69.872179</ele>
        <time>2022-04-23T10:41:11.000Z</time>
      </trkpt>
      <trkpt lat="36.82896" lon="-2.42798">
        <ele>70.001251</ele>
        <time>2022-04-23T10:41:18.000Z</time>
      </trkpt>
      <trkpt lat="36.82931" lon="-2.42798">
        <ele>70.167028</ele>
        <time>2022-04-23T10:41:26.000Z</time>
      </trkpt>
      <trkpt lat="36.82948" lon="-2.42798">
        <ele>70.252373</ele>
        <time>2022-04-23T10:41:30.000Z</time>
      </trkpt>
      <trkpt lat="36.82961" lon="-2.42799">
        <ele>70.332382</ele>
        <time>2022-04-23T10:41:33.000Z</time>
      </trkpt>
      <trkpt lat="36.82965" lon="-2.42799">
        <ele>70.359015</ele>
        <time>2022-04-23T10:41:34.000Z</time>
      </trkpt>
      <trkpt lat="36.82992" lon="-2.428">
        <ele>70.524983</ele>
        <time>2022-04-23T10:41:40.000Z</time>
      </trkpt>
      <trkpt lat="36.83023" lon="-2.428">
        <ele>70.716959</ele>
        <time>2022-04-23T10:41:48.000Z</time>
      </trkpt>
      <trkpt lat="36.83058" lon="-2.42801">
        <ele>70.936842</ele>
        <time>2022-04-23T10:41:56.000Z</time>
      </trkpt>
      <trkpt lat="36.83097" lon="-2.42804">
        <ele>71.174582</ele>
        <time>2022-04-23T10:42:05.000Z</time>
      </trkpt>
      <trkpt lat="36.83114" lon="-2.42809">
        <ele>71.281692</ele>
        <time>2022-04-23T10:42:09.000Z</time>
      </trkpt>
      <trkpt lat="36.83134" lon="-2.42816">
        <ele>71.46114</ele>
        <time>2022-04-23T10:42:14.000Z</time>
      </trkpt>
      <trkpt lat="36.83137" lon="-2.42818">
        <ele>71.497249</ele>
        <time>2022-04-23T10:42:15.000Z</time>
      </trkpt>
      <trkpt lat="36.83161" lon="-2.42832">
        <ele>71.76195</ele>
        <time>2022-04-23T10:42:22.000Z</time>
      </trkpt>
      <trkpt lat="36.83182" lon="-2.42846">
        <ele>71.998353</ele>
        <time>2022-04-23T10:42:29.000Z</time>
      </trkpt>
      <trkpt lat="36.83187" lon="-2.42851">
        <ele>72.067696</ele>
        <time>2022-04-23T10:42:31.000Z</time>
      </trkpt>
      <trkpt lat="36.83201" lon="-2.42857">
        <ele>72.214077</ele>
        <time>2022-04-23T10:42:36.000Z</time>
      </trkpt>
      <trkpt lat="36.8321" lon="-2.42864">
        <ele>72.321966</ele>
        <time>2022-04-23T10:42:41.000Z</time>
      </trkpt>
      <trkpt lat="36.8321" lon="-2.42865">
        <ele>72.326674</ele>
        <time>2022-04-23T10:42:45.000Z</time>
      </trkpt>
      <trkpt lat="36.83211" lon="-2.42867">
        <ele>72.343905</ele>
        <time>2022-04-23T10:42:51.000Z</time>
      </trkpt>
      <trkpt lat="36.83211" lon="-2.42867">
        <ele>72.34653</ele>
        <time>2022-04-23T10:42:54.000Z</time>
      </trkpt>
      <trkpt lat="36.83211" lon="-2.42868">
        <ele>72.355097</ele>
        <time>2022-04-23T10:43:07.000Z</time>
      </trkpt>
      <trkpt lat="36.83211" lon="-2.42868">
        <ele>72.355097</ele>
        <time>2022-04-23T10:43:12.000Z</time>
      </trkpt>
      <trkpt lat="36.83212" lon="-2.42869">
        <ele>72.366347</ele>
        <time>2022-04-23T10:43:15.000Z</time>
      </trkpt>
      <trkpt lat="36.83213" lon="-2.42869">
        <ele>72.377217</ele>
        <time>2022-04-23T10:43:21.000Z</time>
      </trkpt>
      <trkpt lat="36.83213" lon="-2.42869">
        <ele>72.377217</ele>
        <time>2022-04-23T10:43:41.000Z</time>
      </trkpt>
      <trkpt lat="36.83213" lon="-2.42869">
        <ele>72.377217</ele>
        <time>2022-04-23T10:43:44.000Z</time>
      </trkpt>
      <trkpt lat="36.83213" lon="-2.42869">
        <ele>72.377217</ele>
        <time>2022-04-23T10:43:54.000Z</time>
      </trkpt>
      <trkpt lat="36.83213" lon="-2.42869">
        <ele>72.377217</ele>
        <time>2022-04-23T10:44:03.000Z</time>
      </trkpt>
      <trkpt lat="36.83213" lon="-2.42869">
        <ele>72.377217</ele>
        <time>2022-04-23T10:44:09.000Z</time>
      </trkpt>
      <trkpt lat="36.83213" lon="-2.4287">
        <ele>72.381027</ele>
        <time>2022-04-23T10:44:38.000Z</time>
      </trkpt>
      <trkpt lat="36.83213" lon="-2.4287">
        <ele>72.382319</ele>
        <time>2022-04-23T10:44:46.000Z</time>
      </trkpt>
      <trkpt lat="36.83213" lon="-2.4287">
        <ele>72.387569</ele>
        <time>2022-04-23T10:45:04.000Z</time>
      </trkpt>
      <trkpt lat="36.83213" lon="-2.4287">
        <ele>72.387569</ele>
        <time>2022-04-23T10:45:06.000Z</time>
      </trkpt>
      <trkpt lat="36.83213" lon="-2.4287">
        <ele>72.387569</ele>
        <time>2022-04-23T10:45:51.000Z</time>
      </trkpt>
      <trkpt lat="36.83213" lon="-2.42871">
        <ele>72.390155</ele>
        <time>2022-04-23T10:45:59.000Z</time>
      </trkpt>
      <trkpt lat="36.83213" lon="-2.42871">
        <ele>72.391447</ele>
        <time>2022-04-23T10:46:06.000Z</time>
      </trkpt>
      <trkpt lat="36.83213" lon="-2.42871">
        <ele>72.395257</ele>
        <time>2022-04-23T10:46:10.000Z</time>
      </trkpt>
      <trkpt lat="36.83215" lon="-2.42879">
        <ele>72.459751</ele>
        <time>2022-04-23T10:46:13.000Z</time>
      </trkpt>
      <trkpt lat="36.83216" lon="-2.4288">
        <ele>72.474311</ele>
        <time>2022-04-23T10:46:14.000Z</time>
      </trkpt>
      <trkpt lat="36.83222" lon="-2.42883">
        <ele>72.538967</ele>
        <time>2022-04-23T10:46:17.000Z</time>
      </trkpt>
      <trkpt lat="36.83224" lon="-2.42884">
        <ele>72.560221</ele>
        <time>2022-04-23T10:46:18.000Z</time>
      </trkpt>
      <trkpt lat="36.83231" lon="-2.42874">
        <ele>72.668358</ele>
        <time>2022-04-23T10:46:23.000Z</time>
      </trkpt>
      <trkpt lat="36.83241" lon="-2.42867">
        <ele>72.784371</ele>
        <time>2022-04-23T10:46:27.000Z</time>
      </trkpt>
      <trkpt lat="36.83256" lon="-2.42868">
        <ele>72.930926</ele>
        <time>2022-04-23T10:46:32.000Z</time>
      </trkpt>
      <trkpt lat="36.83266" lon="-2.42866">
        <ele>73.038995</ele>
        <time>2022-04-23T10:46:35.000Z</time>
      </trkpt>
      <trkpt lat="36.83286" lon="-2.42863">
        <ele>73.204691</ele>
        <time>2022-04-23T10:46:41.000Z</time>
      </trkpt>
      <trkpt lat="36.83291" lon="-2.42861">
        <ele>73.231594</ele>
        <time>2022-04-23T10:46:42.000Z</time>
      </trkpt>
      <trkpt lat="36.83305" lon="-2.42857">
        <ele>73.320232</ele>
        <time>2022-04-23T10:46:46.000Z</time>
      </trkpt>
      <trkpt lat="36.83318" lon="-2.42854">
        <ele>73.393184</ele>
        <time>2022-04-23T10:46:49.000Z</time>
      </trkpt>
      <trkpt lat="36.83334" lon="-2.42852">
        <ele>73.491572</ele>
        <time>2022-04-23T10:46:54.000Z</time>
      </trkpt>
      <trkpt lat="36.83356" lon="-2.42853">
        <ele>73.616637</ele>
        <time>2022-04-23T10:47:00.000Z</time>
      </trkpt>
      <trkpt lat="36.83392" lon="-2.42862">
        <ele>73.829382</ele>
        <time>2022-04-23T10:47:09.000Z</time>
      </trkpt>
      <trkpt lat="36.83421" lon="-2.4287">
        <ele>74.006477</ele>
        <time>2022-04-23T10:47:16.000Z</time>
      </trkpt>
      <trkpt lat="36.83429" lon="-2.42872">
        <ele>74.053188</ele>
        <time>2022-04-23T10:47:18.000Z</time>
      </trkpt>
      <trkpt lat="36.83455" lon="-2.4288">
        <ele>74.21943</ele>
        <time>2022-04-23T10:47:25.000Z</time>
      </trkpt>
      <trkpt lat="36.8348" lon="-2.42886">
        <ele>74.55672</ele>
        <time>2022-04-23T10:47:31.000Z</time>
      </trkpt>
      <trkpt lat="36.83492" lon="-2.4289">
        <ele>74.722617</ele>
        <time>2022-04-23T10:47:34.000Z</time>
      </trkpt>
      <trkpt lat="36.83502" lon="-2.42894">
        <ele>74.862295</ele>
        <time>2022-04-23T10:47:37.000Z</time>
      </trkpt>
      <trkpt lat="36.8352" lon="-2.429">
        <ele>75.109531</ele>
        <time>2022-04-23T10:47:43.000Z</time>
      </trkpt>
      <trkpt lat="36.83527" lon="-2.42902">
        <ele>75.209233</ele>
        <time>2022-04-23T10:47:45.000Z</time>
      </trkpt>
      <trkpt lat="36.83553" lon="-2.42911">
        <ele>75.56698</ele>
        <time>2022-04-23T10:47:52.000Z</time>
      </trkpt>
      <trkpt lat="36.83573" lon="-2.42918">
        <ele>75.852416</ele>
        <time>2022-04-23T10:47:57.000Z</time>
      </trkpt>
      <trkpt lat="36.83578" lon="-2.4292">
        <ele>75.911869</ele>
        <time>2022-04-23T10:47:58.000Z</time>
      </trkpt>
      <trkpt lat="36.8359" lon="-2.42925">
        <ele>76.089077</ele>
        <time>2022-04-23T10:48:01.000Z</time>
      </trkpt>
      <trkpt lat="36.83624" lon="-2.4294">
        <ele>76.569888</ele>
        <time>2022-04-23T10:48:09.000Z</time>
      </trkpt>
      <trkpt lat="36.83637" lon="-2.42946">
        <ele>76.664354</ele>
        <time>2022-04-23T10:48:12.000Z</time>
      </trkpt>
      <trkpt lat="36.8366" lon="-2.42955">
        <ele>76.783171</ele>
        <time>2022-04-23T10:48:17.000Z</time>
      </trkpt>
      <trkpt lat="36.83672" lon="-2.42961">
        <ele>76.84549</ele>
        <time>2022-04-23T10:48:20.000Z</time>
      </trkpt>
      <trkpt lat="36.83682" lon="-2.42966">
        <ele>76.895629</ele>
        <time>2022-04-23T10:48:22.000Z</time>
      </trkpt>
      <trkpt lat="36.83716" lon="-2.4298">
        <ele>77.074106</ele>
        <time>2022-04-23T10:48:30.000Z</time>
      </trkpt>
      <trkpt lat="36.83728" lon="-2.42986">
        <ele>77.134344</ele>
        <time>2022-04-23T10:48:33.000Z</time>
      </trkpt>
      <trkpt lat="36.83737" lon="-2.42989">
        <ele>77.183254</ele>
        <time>2022-04-23T10:48:35.000Z</time>
      </trkpt>
      <trkpt lat="36.83756" lon="-2.42997">
        <ele>77.278742</ele>
        <time>2022-04-23T10:48:39.000Z</time>
      </trkpt>
      <trkpt lat="36.83788" lon="-2.43011">
        <ele>77.447605</ele>
        <time>2022-04-23T10:48:47.000Z</time>
      </trkpt>
      <trkpt lat="36.83796" lon="-2.43013">
        <ele>77.484464</ele>
        <time>2022-04-23T10:48:49.000Z</time>
      </trkpt>
      <trkpt lat="36.83841" lon="-2.43027">
        <ele>77.801745</ele>
        <time>2022-04-23T10:48:59.000Z</time>
      </trkpt>
      <trkpt lat="36.83891" lon="-2.43043">
        <ele>78.160456</ele>
        <time>2022-04-23T10:49:10.000Z</time>
      </trkpt>
      <trkpt lat="36.83918" lon="-2.4305">
        <ele>78.350878</ele>
        <time>2022-04-23T10:49:16.000Z</time>
      </trkpt>
      <trkpt lat="36.83933" lon="-2.43054">
        <ele>78.454351</ele>
        <time>2022-04-23T10:49:19.000Z</time>
      </trkpt>
      <trkpt lat="36.83956" lon="-2.43058">
        <ele>78.613376</ele>
        <time>2022-04-23T10:49:24.000Z</time>
      </trkpt>
      <trkpt lat="36.83969" lon="-2.43061">
        <ele>78.704707</ele>
        <time>2022-04-23T10:49:27.000Z</time>
      </trkpt>
      <trkpt lat="36.83983" lon="-2.43064">
        <ele>78.961062</ele>
        <time>2022-04-23T10:49:30.000Z</time>
      </trkpt>
      <trkpt lat="36.83991" lon="-2.43065">
        <ele>79.129492</ele>
        <time>2022-04-23T10:49:32.000Z</time>
      </trkpt>
      <trkpt lat="36.84001" lon="-2.43065">
        <ele>79.355563</ele>
        <time>2022-04-23T10:49:35.000Z</time>
      </trkpt>
      <trkpt lat="36.84012" lon="-2.43061">
        <ele>79.598334</ele>
        <time>2022-04-23T10:49:38.000Z</time>
      </trkpt>
      <trkpt lat="36.84023" lon="-2.43059">
        <ele>79.853845</ele>
        <time>2022-04-23T10:49:41.000Z</time>
      </trkpt>
      <trkpt lat="36.84031" lon="-2.43059">
        <ele>80.024868</ele>
        <time>2022-04-23T10:49:43.000Z</time>
      </trkpt>
      <trkpt lat="36.84038" lon="-2.4306">
        <ele>80.183515</ele>
        <time>2022-04-23T10:49:45.000Z</time>
      </trkpt>
      <trkpt lat="36.84052" lon="-2.43062">
        <ele>80.487908</ele>
        <time>2022-04-23T10:49:48.000Z</time>
      </trkpt>
      <trkpt lat="36.84056" lon="-2.43063">
        <ele>80.582592</ele>
        <time>2022-04-23T10:49:49.000Z</time>
      </trkpt>
      <trkpt lat="36.84094" lon="-2.4307">
        <ele>81.420413</ele>
        <time>2022-04-23T10:49:57.000Z</time>
      </trkpt>
      <trkpt lat="36.84108" lon="-2.43076">
        <ele>81.755302</ele>
        <time>2022-04-23T10:50:02.000Z</time>
      </trkpt>
      <trkpt lat="36.84117" lon="-2.43088">
        <ele>82.028328</ele>
        <time>2022-04-23T10:50:07.000Z</time>
      </trkpt>
      <trkpt lat="36.84117" lon="-2.43091">
        <ele>82.08115</ele>
        <time>2022-04-23T10:50:08.000Z</time>
      </trkpt>
      <trkpt lat="36.84116" lon="-2.43108">
        <ele>82.372429</ele>
        <time>2022-04-23T10:50:12.000Z</time>
      </trkpt>
      <trkpt lat="36.84116" lon="-2.43119">
        <ele>82.576922</ele>
        <time>2022-04-23T10:50:15.000Z</time>
      </trkpt>
      <trkpt lat="36.84107" lon="-2.43147">
        <ele>82.860694</ele>
        <time>2022-04-23T10:50:22.000Z</time>
      </trkpt>
      <trkpt lat="36.84093" lon="-2.43161">
        <ele>83.029185</ele>
        <time>2022-04-23T10:50:27.000Z</time>
      </trkpt>
      <trkpt lat="36.8409" lon="-2.43163">
        <ele>83.069083</ele>
        <time>2022-04-23T10:50:28.000Z</time>
      </trkpt>
      <trkpt lat="36.84086" lon="-2.43165">
        <ele>83.104038</ele>
        <time>2022-04-23T10:50:29.000Z</time>
      </trkpt>
      <trkpt lat="36.84078" lon="-2.43173">
        <ele>83.202403</ele>
        <time>2022-04-23T10:50:32.000Z</time>
      </trkpt>
      <trkpt lat="36.84062" lon="-2.43192">
        <ele>83.412433</ele>
        <time>2022-04-23T10:50:38.000Z</time>
      </trkpt>
      <trkpt lat="36.84047" lon="-2.43213">
        <ele>83.631432</ele>
        <time>2022-04-23T10:50:44.000Z</time>
      </trkpt>
      <trkpt lat="36.84044" lon="-2.43221">
        <ele>83.699925</ele>
        <time>2022-04-23T10:50:48.000Z</time>
      </trkpt>
      <trkpt lat="36.84044" lon="-2.43224">
        <ele>83.721152</ele>
        <time>2022-04-23T10:50:50.000Z</time>
      </trkpt>
      <trkpt lat="36.84045" lon="-2.43225">
        <ele>83.729332</ele>
        <time>2022-04-23T10:50:53.000Z</time>
      </trkpt>
      <trkpt lat="36.84045" lon="-2.43225">
        <ele>83.729332</ele>
        <time>2022-04-23T10:50:54.000Z</time>
      </trkpt>
      <trkpt lat="36.84045" lon="-2.43225">
        <ele>83.729332</ele>
        <time>2022-04-23T10:50:58.000Z</time>
      </trkpt>
      <trkpt lat="36.84045" lon="-2.43225">
        <ele>83.729332</ele>
        <time>2022-04-23T10:51:08.000Z</time>
      </trkpt>
      <trkpt lat="36.84045" lon="-2.43225">
        <ele>83.729332</ele>
        <time>2022-04-23T10:51:18.000Z</time>
      </trkpt>
      <trkpt lat="36.84045" lon="-2.43225">
        <ele>83.729332</ele>
        <time>2022-04-23T10:51:31.000Z</time>
      </trkpt>
      <trkpt lat="36.84045" lon="-2.43225">
        <ele>83.729332</ele>
        <time>2022-04-23T10:51:46.000Z</time>
      </trkpt>
      <trkpt lat="36.84045" lon="-2.43226">
        <ele>83.740858</ele>
        <time>2022-04-23T10:51:52.000Z</time>
      </trkpt>
      <trkpt lat="36.84046" lon="-2.43226">
        <ele>83.744068</ele>
        <time>2022-04-23T10:52:01.000Z</time>
      </trkpt>
      <trkpt lat="36.84046" lon="-2.43235">
        <ele>83.810814</ele>
        <time>2022-04-23T10:52:04.000Z</time>
      </trkpt>
      <trkpt lat="36.84048" lon="-2.43244">
        <ele>83.884359</ele>
        <time>2022-04-23T10:52:07.000Z</time>
      </trkpt>
      <trkpt lat="36.8405" lon="-2.43246">
        <ele>83.909527</ele>
        <time>2022-04-23T10:52:08.000Z</time>
      </trkpt>
      <trkpt lat="36.84056" lon="-2.43249">
        <ele>83.966082</ele>
        <time>2022-04-23T10:52:10.000Z</time>
      </trkpt>
      <trkpt lat="36.84063" lon="-2.43256">
        <ele>84.056792</ele>
        <time>2022-04-23T10:52:13.000Z</time>
      </trkpt>
      <trkpt lat="36.84073" lon="-2.43277">
        <ele>84.242225</ele>
        <time>2022-04-23T10:52:19.000Z</time>
      </trkpt>
      <trkpt lat="36.84076" lon="-2.43282">
        <ele>84.291961</ele>
        <time>2022-04-23T10:52:21.000Z</time>
      </trkpt>
      <trkpt lat="36.84081" lon="-2.43288">
        <ele>84.36075</ele>
        <time>2022-04-23T10:52:23.000Z</time>
      </trkpt>
      <trkpt lat="36.84086" lon="-2.43293">
        <ele>84.38203</ele>
        <time>2022-04-23T10:52:25.000Z</time>
      </trkpt>
      <trkpt lat="36.84092" lon="-2.43297">
        <ele>84.332232</ele>
        <time>2022-04-23T10:52:27.000Z</time>
      </trkpt>
      <trkpt lat="36.841" lon="-2.43305">
        <ele>84.25426</ele>
        <time>2022-04-23T10:52:30.000Z</time>
      </trkpt>
      <trkpt lat="36.84106" lon="-2.43313">
        <ele>84.192217</ele>
        <time>2022-04-23T10:52:32.000Z</time>
      </trkpt>
      <trkpt lat="36.8411" lon="-2.43321">
        <ele>84.138911</ele>
        <time>2022-04-23T10:52:34.000Z</time>
      </trkpt>
      <trkpt lat="36.84113" lon="-2.4333">
        <ele>84.083075</ele>
        <time>2022-04-23T10:52:36.000Z</time>
      </trkpt>
      <trkpt lat="36.84115" lon="-2.43339">
        <ele>84.024019</ele>
        <time>2022-04-23T10:52:38.000Z</time>
      </trkpt>
      <trkpt lat="36.84124" lon="-2.43391">
        <ele>83.714692</ele>
        <time>2022-04-23T10:52:48.000Z</time>
      </trkpt>
      <trkpt lat="36.84127" lon="-2.43402">
        <ele>83.650312</ele>
        <time>2022-04-23T10:52:50.000Z</time>
      </trkpt>
      <trkpt lat="36.84136" lon="-2.43429">
        <ele>83.479863</ele>
        <time>2022-04-23T10:52:55.000Z</time>
      </trkpt>
      <trkpt lat="36.84142" lon="-2.43446">
        <ele>83.368515</ele>
        <time>2022-04-23T10:52:58.000Z</time>
      </trkpt>
      <trkpt lat="36.84149" lon="-2.43462">
        <ele>83.263619</ele>
        <time>2022-04-23T10:53:01.000Z</time>
      </trkpt>
      <trkpt lat="36.84157" lon="-2.43479">
        <ele>83.147554</ele>
        <time>2022-04-23T10:53:04.000Z</time>
      </trkpt>
      <trkpt lat="36.84161" lon="-2.43489">
        <ele>83.086264</ele>
        <time>2022-04-23T10:53:06.000Z</time>
      </trkpt>
      <trkpt lat="36.84163" lon="-2.43495">
        <ele>83.199193</ele>
        <time>2022-04-23T10:53:07.000Z</time>
      </trkpt>
      <trkpt lat="36.8417" lon="-2.43516">
        <ele>83.548939</ele>
        <time>2022-04-23T10:53:11.000Z</time>
      </trkpt>
      <trkpt lat="36.84173" lon="-2.43526">
        <ele>83.724205</ele>
        <time>2022-04-23T10:53:13.000Z</time>
      </trkpt>
      <trkpt lat="36.84175" lon="-2.4353">
        <ele>83.802748</ele>
        <time>2022-04-23T10:53:14.000Z</time>
      </trkpt>
      <trkpt lat="36.8418" lon="-2.43539">
        <ele>83.970341</ele>
        <time>2022-04-23T10:53:16.000Z</time>
      </trkpt>
      <trkpt lat="36.84198" lon="-2.43577">
        <ele>84.659899</ele>
        <time>2022-04-23T10:53:24.000Z</time>
      </trkpt>
      <trkpt lat="36.84209" lon="-2.43598">
        <ele>85.061256</ele>
        <time>2022-04-23T10:53:30.000Z</time>
      </trkpt>
      <trkpt lat="36.8421" lon="-2.43598">
        <ele>85.073893</ele>
        <time>2022-04-23T10:53:31.000Z</time>
      </trkpt>
      <trkpt lat="36.84209" lon="-2.43599">
        <ele>85.093871</ele>
        <time>2022-04-23T10:53:34.000Z</time>
      </trkpt>
      <trkpt lat="36.84209" lon="-2.43599">
        <ele>85.093871</ele>
        <time>2022-04-23T10:53:38.000Z</time>
      </trkpt>
      <trkpt lat="36.84209" lon="-2.43599">
        <ele>85.093871</ele>
        <time>2022-04-23T10:53:40.000Z</time>
      </trkpt>
      <trkpt lat="36.84209" lon="-2.43599">
        <ele>85.107774</ele>
        <time>2022-04-23T10:53:43.000Z</time>
      </trkpt>
      <trkpt lat="36.84208" lon="-2.436">
        <ele>85.116432</ele>
        <time>2022-04-23T10:53:44.000Z</time>
      </trkpt>
      <trkpt lat="36.84208" lon="-2.43602">
        <ele>85.151676</ele>
        <time>2022-04-23T10:53:46.000Z</time>
      </trkpt>
      <trkpt lat="36.84207" lon="-2.43604">
        <ele>85.185407</ele>
        <time>2022-04-23T10:53:47.000Z</time>
      </trkpt>
      <trkpt lat="36.84202" lon="-2.43613">
        <ele>85.367918</ele>
        <time>2022-04-23T10:53:51.000Z</time>
      </trkpt>
      <trkpt lat="36.84201" lon="-2.43615">
        <ele>85.411684</ele>
        <time>2022-04-23T10:53:52.000Z</time>
      </trkpt>
      <trkpt lat="36.84203" lon="-2.43621">
        <ele>85.515911</ele>
        <time>2022-04-23T10:53:54.000Z</time>
      </trkpt>
      <trkpt lat="36.84205" lon="-2.43624">
        <ele>85.570358</ele>
        <time>2022-04-23T10:53:55.000Z</time>
      </trkpt>
      <trkpt lat="36.84207" lon="-2.43625">
        <ele>85.604366</ele>
        <time>2022-04-23T10:53:56.000Z</time>
      </trkpt>
      <trkpt lat="36.84209" lon="-2.43624">
        <ele>85.653812</ele>
        <time>2022-04-23T10:53:57.000Z</time>
      </trkpt>
      <trkpt lat="36.84215" lon="-2.43622">
        <ele>85.77232</ele>
        <time>2022-04-23T10:53:59.000Z</time>
      </trkpt>
      <trkpt lat="36.8422" lon="-2.43625">
        <ele>85.875066</ele>
        <time>2022-04-23T10:54:01.000Z</time>
      </trkpt>
      <trkpt lat="36.84228" lon="-2.43638">
        <ele>86.141528</ele>
        <time>2022-04-23T10:54:06.000Z</time>
      </trkpt>
      <trkpt lat="36.84242" lon="-2.43669">
        <ele>86.712485</ele>
        <time>2022-04-23T10:54:16.000Z</time>
      </trkpt>
      <trkpt lat="36.84242" lon="-2.43671">
        <ele>86.761489</ele>
        <time>2022-04-23T10:54:17.000Z</time>
      </trkpt>
      <trkpt lat="36.84245" lon="-2.43675">
        <ele>86.84971</ele>
        <time>2022-04-23T10:54:19.000Z</time>
      </trkpt>
      <trkpt lat="36.84247" lon="-2.43675">
        <ele>86.890549</ele>
        <time>2022-04-23T10:54:20.000Z</time>
      </trkpt>
      <trkpt lat="36.84249" lon="-2.43675">
        <ele>86.94348</ele>
        <time>2022-04-23T10:54:21.000Z</time>
      </trkpt>
      <trkpt lat="36.84251" lon="-2.43677">
        <ele>86.998709</ele>
        <time>2022-04-23T10:54:22.000Z</time>
      </trkpt>
      <trkpt lat="36.84255" lon="-2.43684">
        <ele>87.170982</ele>
        <time>2022-04-23T10:54:25.000Z</time>
      </trkpt>
      <trkpt lat="36.84259" lon="-2.43694">
        <ele>87.382734</ele>
        <time>2022-04-23T10:54:29.000Z</time>
      </trkpt>
      <trkpt lat="36.8426" lon="-2.43696">
        <ele>87.430774</ele>
        <time>2022-04-23T10:54:30.000Z</time>
      </trkpt>
      <trkpt lat="36.84266" lon="-2.43705">
        <ele>87.647747</ele>
        <time>2022-04-23T10:54:34.000Z</time>
      </trkpt>
      <trkpt lat="36.84267" lon="-2.43707">
        <ele>87.703546</ele>
        <time>2022-04-23T10:54:35.000Z</time>
      </trkpt>
      <trkpt lat="36.84278" lon="-2.43733">
        <ele>88.252448</ele>
        <time>2022-04-23T10:54:45.000Z</time>
      </trkpt>
      <trkpt lat="36.8428" lon="-2.43737">
        <ele>88.358324</ele>
        <time>2022-04-23T10:54:47.000Z</time>
      </trkpt>
      <trkpt lat="36.84292" lon="-2.43761">
        <ele>88.88193</ele>
        <time>2022-04-23T10:54:56.000Z</time>
      </trkpt>
      <trkpt lat="36.84293" lon="-2.43764">
        <ele>88.94723</ele>
        <time>2022-04-23T10:54:57.000Z</time>
      </trkpt>
      <trkpt lat="36.84302" lon="-2.43786">
        <ele>89.435346</ele>
        <time>2022-04-23T10:55:04.000Z</time>
      </trkpt>
      <trkpt lat="36.84307" lon="-2.43799">
        <ele>89.704697</ele>
        <time>2022-04-23T10:55:08.000Z</time>
      </trkpt>
      <trkpt lat="36.84314" lon="-2.4382">
        <ele>90.139421</ele>
        <time>2022-04-23T10:55:14.000Z</time>
      </trkpt>
      <trkpt lat="36.8432" lon="-2.43843">
        <ele>90.595179</ele>
        <time>2022-04-23T10:55:20.000Z</time>
      </trkpt>
      <trkpt lat="36.84322" lon="-2.4385">
        <ele>90.752398</ele>
        <time>2022-04-23T10:55:22.000Z</time>
      </trkpt>
      <trkpt lat="36.84325" lon="-2.43862">
        <ele>90.878104</ele>
        <time>2022-04-23T10:55:25.000Z</time>
      </trkpt>
      <trkpt lat="36.84325" lon="-2.43866">
        <ele>90.790476</ele>
        <time>2022-04-23T10:55:26.000Z</time>
      </trkpt>
      <trkpt lat="36.84328" lon="-2.43889">
        <ele>90.28151</ele>
        <time>2022-04-23T10:55:32.000Z</time>
      </trkpt>
      <trkpt lat="36.84328" lon="-2.43893">
        <ele>90.195061</ele>
        <time>2022-04-23T10:55:33.000Z</time>
      </trkpt>
      <trkpt lat="36.8433" lon="-2.43922">
        <ele>89.553664</ele>
        <time>2022-04-23T10:55:40.000Z</time>
      </trkpt>
      <trkpt lat="36.8433" lon="-2.43939">
        <ele>89.171904</ele>
        <time>2022-04-23T10:55:44.000Z</time>
      </trkpt>
      <trkpt lat="36.84329" lon="-2.43959">
        <ele>88.728265</ele>
        <time>2022-04-23T10:55:49.000Z</time>
      </trkpt>
      <trkpt lat="36.84329" lon="-2.43964">
        <ele>88.628821</ele>
        <time>2022-04-23T10:55:50.000Z</time>
      </trkpt>
      <trkpt lat="36.84325" lon="-2.43997">
        <ele>87.8745</ele>
        <time>2022-04-23T10:55:57.000Z</time>
      </trkpt>
      <trkpt lat="36.84318" lon="-2.44025">
        <ele>87.248935</ele>
        <time>2022-04-23T10:56:03.000Z</time>
      </trkpt>
      <trkpt lat="36.84317" lon="-2.44032">
        <ele>87.073402</ele>
        <time>2022-04-23T10:56:05.000Z</time>
      </trkpt>
      <trkpt lat="36.84312" lon="-2.44046">
        <ele>86.751771</ele>
        <time>2022-04-23T10:56:10.000Z</time>
      </trkpt>
      <trkpt lat="36.84312" lon="-2.44049">
        <ele>86.684936</ele>
        <time>2022-04-23T10:56:15.000Z</time>
      </trkpt>
      <trkpt lat="36.84312" lon="-2.44049">
        <ele>86.671413</ele>
        <time>2022-04-23T10:56:27.000Z</time>
      </trkpt>
      <trkpt lat="36.84312" lon="-2.44049">
        <ele>86.662852</ele>
        <time>2022-04-23T10:56:28.000Z</time>
      </trkpt>
      <trkpt lat="36.84317" lon="-2.44051">
        <ele>86.515476</ele>
        <time>2022-04-23T10:56:30.000Z</time>
      </trkpt>
      <trkpt lat="36.8432" lon="-2.44054">
        <ele>86.412576</ele>
        <time>2022-04-23T10:56:32.000Z</time>
      </trkpt>
      <trkpt lat="36.84321" lon="-2.44054">
        <ele>86.387913</ele>
        <time>2022-04-23T10:56:34.000Z</time>
      </trkpt>
      <trkpt lat="36.84324" lon="-2.44055">
        <ele>86.317725</ele>
        <time>2022-04-23T10:56:40.000Z</time>
      </trkpt>
      <trkpt lat="36.84327" lon="-2.44057">
        <ele>86.215035</ele>
        <time>2022-04-23T10:56:42.000Z</time>
      </trkpt>
      <trkpt lat="36.84329" lon="-2.4406">
        <ele>86.123929</ele>
        <time>2022-04-23T10:56:44.000Z</time>
      </trkpt>
      <trkpt lat="36.84329" lon="-2.44061">
        <ele>86.081198</ele>
        <time>2022-04-23T10:56:46.000Z</time>
      </trkpt>
      <trkpt lat="36.84327" lon="-2.4407">
        <ele>85.8893</ele>
        <time>2022-04-23T10:56:50.000Z</time>
      </trkpt>
      <trkpt lat="36.84326" lon="-2.44074">
        <ele>85.815424</ele>
        <time>2022-04-23T10:56:51.000Z</time>
      </trkpt>
      <trkpt lat="36.84323" lon="-2.44081">
        <ele>85.65612</ele>
        <time>2022-04-23T10:56:53.000Z</time>
      </trkpt>
      <trkpt lat="36.84321" lon="-2.4409">
        <ele>85.480696</ele>
        <time>2022-04-23T10:56:55.000Z</time>
      </trkpt>
      <trkpt lat="36.8432" lon="-2.441">
        <ele>85.283584</ele>
        <time>2022-04-23T10:56:57.000Z</time>
      </trkpt>
      <trkpt lat="36.84321" lon="-2.44119">
        <ele>84.910612</ele>
        <time>2022-04-23T10:57:01.000Z</time>
      </trkpt>
      <trkpt lat="36.84322" lon="-2.44122">
        <ele>84.839658</ele>
        <time>2022-04-23T10:57:02.000Z</time>
      </trkpt>
      <trkpt lat="36.84327" lon="-2.44137">
        <ele>84.519513</ele>
        <time>2022-04-23T10:57:06.000Z</time>
      </trkpt>
      <trkpt lat="36.84329" lon="-2.44145">
        <ele>84.368016</ele>
        <time>2022-04-23T10:57:08.000Z</time>
      </trkpt>
      <trkpt lat="36.8433" lon="-2.44148">
        <ele>84.30867</ele>
        <time>2022-04-23T10:57:09.000Z</time>
      </trkpt>
      <trkpt lat="36.84331" lon="-2.44149">
        <ele>84.270242</ele>
        <time>2022-04-23T10:57:10.000Z</time>
      </trkpt>
      <trkpt lat="36.84332" lon="-2.44149">
        <ele>84.234016</ele>
        <time>2022-04-23T10:57:11.000Z</time>
      </trkpt>
      <trkpt lat="36.84339" lon="-2.44154">
        <ele>84.047104</ele>
        <time>2022-04-23T10:57:14.000Z</time>
      </trkpt>
      <trkpt lat="36.84344" lon="-2.44157">
        <ele>83.923531</ele>
        <time>2022-04-23T10:57:16.000Z</time>
      </trkpt>
      <trkpt lat="36.84346" lon="-2.44157">
        <ele>83.862215</ele>
        <time>2022-04-23T10:57:17.000Z</time>
      </trkpt>
      <trkpt lat="36.84351" lon="-2.44157">
        <ele>83.752055</ele>
        <time>2022-04-23T10:57:19.000Z</time>
      </trkpt>
      <trkpt lat="36.84355" lon="-2.44159">
        <ele>83.627662</ele>
        <time>2022-04-23T10:57:21.000Z</time>
      </trkpt>
      <trkpt lat="36.84355" lon="-2.44159">
        <ele>83.611802</ele>
        <time>2022-04-23T10:57:22.000Z</time>
      </trkpt>
      <trkpt lat="36.84354" lon="-2.44158">
        <ele>83.568855</ele>
        <time>2022-04-23T10:57:23.000Z</time>
      </trkpt>
      <trkpt lat="36.84351" lon="-2.44158">
        <ele>83.512254</ele>
        <time>2022-04-23T10:57:24.000Z</time>
      </trkpt>
      <trkpt lat="36.84342" lon="-2.44171">
        <ele>83.162667</ele>
        <time>2022-04-23T10:57:28.000Z</time>
      </trkpt>
      <trkpt lat="36.84321" lon="-2.44203">
        <ele>82.367404</ele>
        <time>2022-04-23T10:57:35.000Z</time>
      </trkpt>
      <trkpt lat="36.84318" lon="-2.4421">
        <ele>82.192726</ele>
        <time>2022-04-23T10:57:37.000Z</time>
      </trkpt>
      <trkpt lat="36.84317" lon="-2.44218">
        <ele>82.045634</ele>
        <time>2022-04-23T10:57:39.000Z</time>
      </trkpt>
      <trkpt lat="36.84319" lon="-2.44231">
        <ele>81.790176</ele>
        <time>2022-04-23T10:57:42.000Z</time>
      </trkpt>
      <trkpt lat="36.84318" lon="-2.44237">
        <ele>81.665783</ele>
        <time>2022-04-23T10:57:44.000Z</time>
      </trkpt>
      <trkpt lat="36.84319" lon="-2.44241">
        <ele>81.590708</ele>
        <time>2022-04-23T10:57:45.000Z</time>
      </trkpt>
      <trkpt lat="36.84314" lon="-2.44265">
        <ele>81.525212</ele>
        <time>2022-04-23T10:57:48.000Z</time>
      </trkpt>
      <trkpt lat="36.84312" lon="-2.44282">
        <ele>81.489844</ele>
        <time>2022-04-23T10:57:52.000Z</time>
      </trkpt>
      <trkpt lat="36.8431" lon="-2.44287">
        <ele>81.476884</ele>
        <time>2022-04-23T10:57:56.000Z</time>
      </trkpt>
      <trkpt lat="36.8431" lon="-2.44287">
        <ele>81.476884</ele>
        <time>2022-04-23T10:58:04.000Z</time>
      </trkpt>
      <trkpt lat="36.8431" lon="-2.44287">
        <ele>81.476884</ele>
        <time>2022-04-23T10:58:12.000Z</time>
      </trkpt>
      <trkpt lat="36.8431" lon="-2.44287">
        <ele>81.476076</ele>
        <time>2022-04-23T10:58:16.000Z</time>
      </trkpt>
      <trkpt lat="36.84308" lon="-2.44286">
        <ele>81.470778</ele>
        <time>2022-04-23T10:58:17.000Z</time>
      </trkpt>
      <trkpt lat="36.84302" lon="-2.44286">
        <ele>81.454884</ele>
        <time>2022-04-23T10:58:21.000Z</time>
      </trkpt>
      <trkpt lat="36.84301" lon="-2.44288">
        <ele>81.44827</ele>
        <time>2022-04-23T10:58:22.000Z</time>
      </trkpt>
      <trkpt lat="36.84303" lon="-2.44302">
        <ele>81.419495</ele>
        <time>2022-04-23T10:58:26.000Z</time>
      </trkpt>
      <trkpt lat="36.84311" lon="-2.44331">
        <ele>81.355119</ele>
        <time>2022-04-23T10:58:33.000Z</time>
      </trkpt>
      <trkpt lat="36.84316" lon="-2.44357">
        <ele>81.300222</ele>
        <time>2022-04-23T10:58:39.000Z</time>
      </trkpt>
      <trkpt lat="36.84314" lon="-2.44385">
        <ele>81.241209</ele>
        <time>2022-04-23T10:58:45.000Z</time>
      </trkpt>
      <trkpt lat="36.84316" lon="-2.44428">
        <ele>81.153039</ele>
        <time>2022-04-23T10:58:53.000Z</time>
      </trkpt>
      <trkpt lat="36.84315" lon="-2.44458">
        <ele>81.105744</ele>
        <time>2022-04-23T10:58:59.000Z</time>
      </trkpt>
      <trkpt lat="36.84319" lon="-2.44511">
        <ele>81.097288</ele>
        <time>2022-04-23T10:59:09.000Z</time>
      </trkpt>
      <trkpt lat="36.8432" lon="-2.44518">
        <ele>81.096175</ele>
        <time>2022-04-23T10:59:13.000Z</time>
      </trkpt>
      <trkpt lat="36.84321" lon="-2.44522">
        <ele>81.095567</ele>
        <time>2022-04-23T10:59:20.000Z</time>
      </trkpt>
      <trkpt lat="36.8432" lon="-2.44526">
        <ele>81.094869</ele>
        <time>2022-04-23T10:59:21.000Z</time>
      </trkpt>
      <trkpt lat="36.84321" lon="-2.44541">
        <ele>81.092485</ele>
        <time>2022-04-23T10:59:25.000Z</time>
      </trkpt>
      <trkpt lat="36.84325" lon="-2.4456">
        <ele>81.089311</ele>
        <time>2022-04-23T10:59:30.000Z</time>
      </trkpt>
      <trkpt lat="36.84329" lon="-2.44579">
        <ele>81.086214</ele>
        <time>2022-04-23T10:59:34.000Z</time>
      </trkpt>
      <trkpt lat="36.84331" lon="-2.44584">
        <ele>81.085282</ele>
        <time>2022-04-23T10:59:35.000Z</time>
      </trkpt>
      <trkpt lat="36.8434" lon="-2.44605">
        <ele>81.08149</ele>
        <time>2022-04-23T10:59:39.000Z</time>
      </trkpt>
      <trkpt lat="36.84347" lon="-2.44621">
        <ele>81.078524</ele>
        <time>2022-04-23T10:59:42.000Z</time>
      </trkpt>
      <trkpt lat="36.84359" lon="-2.4464">
        <ele>81.074745</ele>
        <time>2022-04-23T10:59:46.000Z</time>
      </trkpt>
      <trkpt lat="36.84361" lon="-2.44645">
        <ele>81.073924</ele>
        <time>2022-04-23T10:59:47.000Z</time>
      </trkpt>
      <trkpt lat="36.84358" lon="-2.44677">
        <ele>81.059456</ele>
        <time>2022-04-23T10:59:54.000Z</time>
      </trkpt>
      <trkpt lat="36.84361" lon="-2.44697">
        <ele>81.044344</ele>
        <time>2022-04-23T10:59:59.000Z</time>
      </trkpt>
      <trkpt lat="36.84356" lon="-2.44709">
        <ele>81.03429</ele>
        <time>2022-04-23T11:00:02.000Z</time>
      </trkpt>
      <trkpt lat="36.84353" lon="-2.44711">
        <ele>81.030926</ele>
        <time>2022-04-23T11:00:03.000Z</time>
      </trkpt>
      <trkpt lat="36.84348" lon="-2.44716">
        <ele>81.025133</ele>
        <time>2022-04-23T11:00:05.000Z</time>
      </trkpt>
      <trkpt lat="36.84346" lon="-2.44719">
        <ele>81.02206</ele>
        <time>2022-04-23T11:00:06.000Z</time>
      </trkpt>
      <trkpt lat="36.8434" lon="-2.44737">
        <ele>81.007692</ele>
        <time>2022-04-23T11:00:11.000Z</time>
      </trkpt>
      <trkpt lat="36.84347" lon="-2.44745">
        <ele>80.999574</ele>
        <time>2022-04-23T11:00:15.000Z</time>
      </trkpt>
      <trkpt lat="36.84346" lon="-2.4476">
        <ele>80.988106</ele>
        <time>2022-04-23T11:00:19.000Z</time>
      </trkpt>
      <trkpt lat="36.84338" lon="-2.44792">
        <ele>80.963794</ele>
        <time>2022-04-23T11:00:26.000Z</time>
      </trkpt>
      <trkpt lat="36.84338" lon="-2.44816">
        <ele>80.94556</ele>
        <time>2022-04-23T11:00:32.000Z</time>
      </trkpt>
      <trkpt lat="36.84338" lon="-2.44821">
        <ele>80.942104</ele>
        <time>2022-04-23T11:00:33.000Z</time>
      </trkpt>
      <trkpt lat="36.84342" lon="-2.4484">
        <ele>80.928129</ele>
        <time>2022-04-23T11:00:37.000Z</time>
      </trkpt>
      <trkpt lat="36.84342" lon="-2.44861">
        <ele>80.912676</ele>
        <time>2022-04-23T11:00:42.000Z</time>
      </trkpt>
      <trkpt lat="36.84341" lon="-2.44866">
        <ele>80.908851</ele>
        <time>2022-04-23T11:00:43.000Z</time>
      </trkpt>
      <trkpt lat="36.84343" lon="-2.44888">
        <ele>81.019593</ele>
        <time>2022-04-23T11:00:48.000Z</time>
      </trkpt>
      <trkpt lat="36.84344" lon="-2.44896">
        <ele>81.071528</ele>
        <time>2022-04-23T11:00:50.000Z</time>
      </trkpt>
      <trkpt lat="36.8434" lon="-2.44914">
        <ele>81.185862</ele>
        <time>2022-04-23T11:00:54.000Z</time>
      </trkpt>
      <trkpt lat="36.8434" lon="-2.44934">
        <ele>81.307252</ele>
        <time>2022-04-23T11:00:59.000Z</time>
      </trkpt>
      <trkpt lat="36.84341" lon="-2.44948">
        <ele>81.390386</ele>
        <time>2022-04-23T11:01:02.000Z</time>
      </trkpt>
      <trkpt lat="36.84342" lon="-2.44956">
        <ele>81.44298</ele>
        <time>2022-04-23T11:01:04.000Z</time>
      </trkpt>
      <trkpt lat="36.84343" lon="-2.44964">
        <ele>81.489842</ele>
        <time>2022-04-23T11:01:06.000Z</time>
      </trkpt>
      <trkpt lat="36.84344" lon="-2.44973">
        <ele>81.544291</ele>
        <time>2022-04-23T11:01:08.000Z</time>
      </trkpt>
      <trkpt lat="36.84333" lon="-2.45005">
        <ele>81.760987</ele>
        <time>2022-04-23T11:01:14.000Z</time>
      </trkpt>
      <trkpt lat="36.84331" lon="-2.45041">
        <ele>81.978564</ele>
        <time>2022-04-23T11:01:22.000Z</time>
      </trkpt>
      <trkpt lat="36.84327" lon="-2.45065">
        <ele>82.13124</ele>
        <time>2022-04-23T11:01:28.000Z</time>
      </trkpt>
      <trkpt lat="36.84323" lon="-2.45104">
        <ele>82.241702</ele>
        <time>2022-04-23T11:01:37.000Z</time>
      </trkpt>
      <trkpt lat="36.84322" lon="-2.45117">
        <ele>82.209753</ele>
        <time>2022-04-23T11:01:40.000Z</time>
      </trkpt>
      <trkpt lat="36.84321" lon="-2.45129">
        <ele>82.179129</ele>
        <time>2022-04-23T11:01:43.000Z</time>
      </trkpt>
      <trkpt lat="36.84315" lon="-2.45153">
        <ele>82.119378</ele>
        <time>2022-04-23T11:01:49.000Z</time>
      </trkpt>
      <trkpt lat="36.84314" lon="-2.45155">
        <ele>82.113076</ele>
        <time>2022-04-23T11:01:50.000Z</time>
      </trkpt>
      <trkpt lat="36.84314" lon="-2.45161">
        <ele>82.099302</ele>
        <time>2022-04-23T11:01:52.000Z</time>
      </trkpt>
      <trkpt lat="36.84315" lon="-2.45176">
        <ele>82.062704</ele>
        <time>2022-04-23T11:01:56.000Z</time>
      </trkpt>
      <trkpt lat="36.84314" lon="-2.4518">
        <ele>82.053239</ele>
        <time>2022-04-23T11:01:57.000Z</time>
      </trkpt>
      <trkpt lat="36.84314" lon="-2.45192">
        <ele>82.024825</ele>
        <time>2022-04-23T11:02:00.000Z</time>
      </trkpt>
      <trkpt lat="36.84311" lon="-2.45207">
        <ele>81.986446</ele>
        <time>2022-04-23T11:02:04.000Z</time>
      </trkpt>
      <trkpt lat="36.84308" lon="-2.45221">
        <ele>81.952747</ele>
        <time>2022-04-23T11:02:07.000Z</time>
      </trkpt>
      <trkpt lat="36.84303" lon="-2.45225">
        <ele>81.932975</ele>
        <time>2022-04-23T11:02:09.000Z</time>
      </trkpt>
      <trkpt lat="36.84299" lon="-2.45226">
        <ele>81.922744</ele>
        <time>2022-04-23T11:02:10.000Z</time>
      </trkpt>
      <trkpt lat="36.84288" lon="-2.45223">
        <ele>81.88771</ele>
        <time>2022-04-23T11:02:13.000Z</time>
      </trkpt>
      <trkpt lat="36.84272" lon="-2.4522">
        <ele>81.840115</ele>
        <time>2022-04-23T11:02:17.000Z</time>
      </trkpt>
      <trkpt lat="36.84269" lon="-2.45219">
        <ele>81.828819</ele>
        <time>2022-04-23T11:02:18.000Z</time>
      </trkpt>
      <trkpt lat="36.84262" lon="-2.45218">
        <ele>81.808343</ele>
        <time>2022-04-23T11:02:20.000Z</time>
      </trkpt>
      <trkpt lat="36.84259" lon="-2.45219">
        <ele>81.799937</ele>
        <time>2022-04-23T11:02:21.000Z</time>
      </trkpt>
      <trkpt lat="36.84256" lon="-2.45223">
        <ele>81.78674</ele>
        <time>2022-04-23T11:02:23.000Z</time>
      </trkpt>
      <trkpt lat="36.84255" lon="-2.45229">
        <ele>81.771216</ele>
        <time>2022-04-23T11:02:25.000Z</time>
      </trkpt>
      <trkpt lat="36.84251" lon="-2.45257">
        <ele>81.661861</ele>
        <time>2022-04-23T11:02:32.000Z</time>
      </trkpt>
      <trkpt lat="36.8425" lon="-2.45266">
        <ele>81.608412</ele>
        <time>2022-04-23T11:02:35.000Z</time>
      </trkpt>
      <trkpt lat="36.84251" lon="-2.45269">
        <ele>81.594083</ele>
        <time>2022-04-23T11:02:36.000Z</time>
      </trkpt>
      <trkpt lat="36.84252" lon="-2.45276">
        <ele>81.551685</ele>
        <time>2022-04-23T11:02:39.000Z</time>
      </trkpt>
      <trkpt lat="36.84251" lon="-2.45278">
        <ele>81.540103</ele>
        <time>2022-04-23T11:02:40.000Z</time>
      </trkpt>
      <trkpt lat="36.84244" lon="-2.4528">
        <ele>81.49059</ele>
        <time>2022-04-23T11:02:43.000Z</time>
      </trkpt>
      <trkpt lat="36.84241" lon="-2.45282">
        <ele>81.472647</ele>
        <time>2022-04-23T11:02:44.000Z</time>
      </trkpt>
      <trkpt lat="36.84238" lon="-2.45285">
        <ele>81.440903</ele>
        <time>2022-04-23T11:02:48.000Z</time>
      </trkpt>
      <trkpt lat="36.84238" lon="-2.45285">
        <ele>81.440903</ele>
        <time>2022-04-23T11:02:49.000Z</time>
      </trkpt>
      <trkpt lat="36.84238" lon="-2.45285">
        <ele>81.440903</ele>
        <time>2022-04-23T11:03:01.000Z</time>
      </trkpt>
      <trkpt lat="36.84238" lon="-2.45285">
        <ele>81.440903</ele>
        <time>2022-04-23T11:03:06.000Z</time>
      </trkpt>
      <trkpt lat="36.84238" lon="-2.45285">
        <ele>81.440903</ele>
        <time>2022-04-23T11:03:16.000Z</time>
      </trkpt>
      <trkpt lat="36.84238" lon="-2.45285">
        <ele>81.440903</ele>
        <time>2022-04-23T11:03:22.000Z</time>
      </trkpt>
      <trkpt lat="36.84234" lon="-2.45287">
        <ele>81.412175</ele>
        <time>2022-04-23T11:03:51.000Z</time>
      </trkpt>
      <trkpt lat="36.84232" lon="-2.45288">
        <ele>81.400138</ele>
        <time>2022-04-23T11:03:52.000Z</time>
      </trkpt>
      <trkpt lat="36.84227" lon="-2.45301">
        <ele>81.32151</ele>
        <time>2022-04-23T11:03:56.000Z</time>
      </trkpt>
      <trkpt lat="36.84223" lon="-2.45325">
        <ele>81.184888</ele>
        <time>2022-04-23T11:04:02.000Z</time>
      </trkpt>
      <trkpt lat="36.84221" lon="-2.45332">
        <ele>81.145779</ele>
        <time>2022-04-23T11:04:06.000Z</time>
      </trkpt>
      <trkpt lat="36.84219" lon="-2.45348">
        <ele>81.058262</ele>
        <time>2022-04-23T11:04:11.000Z</time>
      </trkpt>
      <trkpt lat="36.84217" lon="-2.45373">
        <ele>80.918777</ele>
        <time>2022-04-23T11:04:17.000Z</time>
      </trkpt>
      <trkpt lat="36.84215" lon="-2.45393">
        <ele>80.805864</ele>
        <time>2022-04-23T11:04:21.000Z</time>
      </trkpt>
      <trkpt lat="36.84214" lon="-2.45418">
        <ele>80.66845</ele>
        <time>2022-04-23T11:04:27.000Z</time>
      </trkpt>
      <trkpt lat="36.84211" lon="-2.45437">
        <ele>80.563883</ele>
        <time>2022-04-23T11:04:32.000Z</time>
      </trkpt>
      <trkpt lat="36.84204" lon="-2.45449">
        <ele>80.523991</ele>
        <time>2022-04-23T11:04:36.000Z</time>
      </trkpt>
      <trkpt lat="36.84203" lon="-2.45453">
        <ele>80.553797</ele>
        <time>2022-04-23T11:04:37.000Z</time>
      </trkpt>
      <trkpt lat="36.84202" lon="-2.45462">
        <ele>80.614089</ele>
        <time>2022-04-23T11:04:39.000Z</time>
      </trkpt>
      <trkpt lat="36.84203" lon="-2.45472">
        <ele>80.676325</ele>
        <time>2022-04-23T11:04:41.000Z</time>
      </trkpt>
      <trkpt lat="36.84205" lon="-2.45478">
        <ele>80.718302</ele>
        <time>2022-04-23T11:04:42.000Z</time>
      </trkpt>
      <trkpt lat="36.84204" lon="-2.45486">
        <ele>80.773937</ele>
        <time>2022-04-23T11:04:44.000Z</time>
      </trkpt>
      <trkpt lat="36.84198" lon="-2.45496">
        <ele>80.857849</ele>
        <time>2022-04-23T11:04:46.000Z</time>
      </trkpt>
      <trkpt lat="36.84196" lon="-2.45503">
        <ele>80.904282</ele>
        <time>2022-04-23T11:04:48.000Z</time>
      </trkpt>
      <trkpt lat="36.84199" lon="-2.45508">
        <ele>80.945209</ele>
        <time>2022-04-23T11:04:49.000Z</time>
      </trkpt>
      <trkpt lat="36.84199" lon="-2.45514">
        <ele>80.988074</ele>
        <time>2022-04-23T11:04:53.000Z</time>
      </trkpt>
      <trkpt lat="36.84197" lon="-2.45516">
        <ele>81.003698</ele>
        <time>2022-04-23T11:04:54.000Z</time>
      </trkpt>
      <trkpt lat="36.84196" lon="-2.45521">
        <ele>81.037167</ele>
        <time>2022-04-23T11:04:56.000Z</time>
      </trkpt>
      <trkpt lat="36.84197" lon="-2.45523">
        <ele>81.052198</ele>
        <time>2022-04-23T11:04:58.000Z</time>
      </trkpt>
      <trkpt lat="36.84197" lon="-2.45523">
        <ele>81.054654</ele>
        <time>2022-04-23T11:04:59.000Z</time>
      </trkpt>
      <trkpt lat="36.84202" lon="-2.45524">
        <ele>81.096652</ele>
        <time>2022-04-23T11:05:00.000Z</time>
      </trkpt>
      <trkpt lat="36.84215" lon="-2.45529">
        <ele>81.205266</ele>
        <time>2022-04-23T11:05:02.000Z</time>
      </trkpt>
      <trkpt lat="36.84221" lon="-2.45532">
        <ele>81.260775</ele>
        <time>2022-04-23T11:05:03.000Z</time>
      </trkpt>
      <trkpt lat="36.84235" lon="-2.45539">
        <ele>81.382202</ele>
        <time>2022-04-23T11:05:09.000Z</time>
      </trkpt>
      <trkpt lat="36.84236" lon="-2.45537">
        <ele>81.399644</ele>
        <time>2022-04-23T11:05:10.000Z</time>
      </trkpt>
      <trkpt lat="36.84237" lon="-2.45536">
        <ele>81.412225</ele>
        <time>2022-04-23T11:05:11.000Z</time>
      </trkpt>
      <trkpt lat="36.8424" lon="-2.45544">
        <ele>81.469866</ele>
        <time>2022-04-23T11:05:14.000Z</time>
      </trkpt>
      <trkpt lat="36.8424" lon="-2.45546">
        <ele>81.481271</ele>
        <time>2022-04-23T11:05:15.000Z</time>
      </trkpt>
      <trkpt lat="36.84245" lon="-2.45564">
        <ele>81.605197</ele>
        <time>2022-04-23T11:05:19.000Z</time>
      </trkpt>
      <trkpt lat="36.8424" lon="-2.45584">
        <ele>81.74473</ele>
        <time>2022-04-23T11:05:23.000Z</time>
      </trkpt>
      <trkpt lat="36.84241" lon="-2.45594">
        <ele>81.812026</ele>
        <time>2022-04-23T11:05:25.000Z</time>
      </trkpt>
      <trkpt lat="36.84251" lon="-2.45624">
        <ele>81.939391</ele>
        <time>2022-04-23T11:05:31.000Z</time>
      </trkpt>
      <trkpt lat="36.8425" lon="-2.45657">
        <ele>81.792655</ele>
        <time>2022-04-23T11:05:38.000Z</time>
      </trkpt>
      <trkpt lat="36.8425" lon="-2.45662">
        <ele>81.77196</ele>
        <time>2022-04-23T11:05:39.000Z</time>
      </trkpt>
      <trkpt lat="36.84249" lon="-2.45678">
        <ele>81.698552</ele>
        <time>2022-04-23T11:05:43.000Z</time>
      </trkpt>
      <trkpt lat="36.84249" lon="-2.45693">
        <ele>81.632327</ele>
        <time>2022-04-23T11:05:47.000Z</time>
      </trkpt>
      <trkpt lat="36.84248" lon="-2.45707">
        <ele>81.56867</ele>
        <time>2022-04-23T11:05:51.000Z</time>
      </trkpt>
      <trkpt lat="36.84245" lon="-2.45719">
        <ele>81.510588</ele>
        <time>2022-04-23T11:05:56.000Z</time>
      </trkpt>
      <trkpt lat="36.84244" lon="-2.45735">
        <ele>81.437423</ele>
        <time>2022-04-23T11:06:03.000Z</time>
      </trkpt>
      <trkpt lat="36.84249" lon="-2.45748">
        <ele>81.375119</ele>
        <time>2022-04-23T11:06:09.000Z</time>
      </trkpt>
      <trkpt lat="36.8425" lon="-2.45751">
        <ele>81.358578</ele>
        <time>2022-04-23T11:06:11.000Z</time>
      </trkpt>
      <trkpt lat="36.84252" lon="-2.4576">
        <ele>81.315032</ele>
        <time>2022-04-23T11:06:14.000Z</time>
      </trkpt>
      <trkpt lat="36.84255" lon="-2.45779">
        <ele>81.227939</ele>
        <time>2022-04-23T11:06:20.000Z</time>
      </trkpt>
      <trkpt lat="36.84256" lon="-2.45782">
        <ele>81.215831</ele>
        <time>2022-04-23T11:06:21.000Z</time>
      </trkpt>
      <trkpt lat="36.84259" lon="-2.4579">
        <ele>81.173499</ele>
        <time>2022-04-23T11:06:25.000Z</time>
      </trkpt>
      <trkpt lat="36.84259" lon="-2.45791">
        <ele>81.167986</ele>
        <time>2022-04-23T11:06:26.000Z</time>
      </trkpt>
      <trkpt lat="36.84259" lon="-2.45793">
        <ele>81.162553</ele>
        <time>2022-04-23T11:06:27.000Z</time>
      </trkpt>
      <trkpt lat="36.84251" lon="-2.45794">
        <ele>81.116046</ele>
        <time>2022-04-23T11:06:31.000Z</time>
      </trkpt>
      <trkpt lat="36.84248" lon="-2.45795">
        <ele>81.098345</ele>
        <time>2022-04-23T11:06:32.000Z</time>
      </trkpt>
      <trkpt lat="36.84242" lon="-2.45801">
        <ele>81.059917</ele>
        <time>2022-04-23T11:06:35.000Z</time>
      </trkpt>
      <trkpt lat="36.84242" lon="-2.45802">
        <ele>81.054296</ele>
        <time>2022-04-23T11:06:39.000Z</time>
      </trkpt>
      <trkpt lat="36.84242" lon="-2.45802">
        <ele>81.054296</ele>
        <time>2022-04-23T11:06:41.000Z</time>
      </trkpt>
      <trkpt lat="36.84239" lon="-2.45802">
        <ele>81.037384</ele>
        <time>2022-04-23T11:06:45.000Z</time>
      </trkpt>
      <trkpt lat="36.84234" lon="-2.45802">
        <ele>81.012659</ele>
        <time>2022-04-23T11:06:47.000Z</time>
      </trkpt>
      <trkpt lat="36.84214" lon="-2.45808">
        <ele>80.721438</ele>
        <time>2022-04-23T11:06:53.000Z</time>
      </trkpt>
      <trkpt lat="36.84201" lon="-2.45813">
        <ele>80.425978</ele>
        <time>2022-04-23T11:06:57.000Z</time>
      </trkpt>
      <trkpt lat="36.84186" lon="-2.4582">
        <ele>80.113333</ele>
        <time>2022-04-23T11:07:01.000Z</time>
      </trkpt>
      <trkpt lat="36.84168" lon="-2.45829">
        <ele>79.725465</ele>
        <time>2022-04-23T11:07:06.000Z</time>
      </trkpt>
      <trkpt lat="36.84159" lon="-2.45833">
        <ele>79.521388</ele>
        <time>2022-04-23T11:07:09.000Z</time>
      </trkpt>
      <trkpt lat="36.8415" lon="-2.4584">
        <ele>79.30349</ele>
        <time>2022-04-23T11:07:13.000Z</time>
      </trkpt>
      <trkpt lat="36.84148" lon="-2.45841">
        <ele>79.271568</ele>
        <time>2022-04-23T11:07:15.000Z</time>
      </trkpt>
      <trkpt lat="36.84148" lon="-2.45841">
        <ele>79.271568</ele>
        <time>2022-04-23T11:07:24.000Z</time>
      </trkpt>
      <trkpt lat="36.84149" lon="-2.45841">
        <ele>79.267731</ele>
        <time>2022-04-23T11:07:55.000Z</time>
      </trkpt>
      <trkpt lat="36.8415" lon="-2.45847">
        <ele>79.171049</ele>
        <time>2022-04-23T11:07:57.000Z</time>
      </trkpt>
      <trkpt lat="36.84151" lon="-2.45848">
        <ele>79.144611</ele>
        <time>2022-04-23T11:07:58.000Z</time>
      </trkpt>
      <trkpt lat="36.84151" lon="-2.4585">
        <ele>79.118886</ele>
        <time>2022-04-23T11:08:01.000Z</time>
      </trkpt>
      <trkpt lat="36.84152" lon="-2.4585">
        <ele>79.102197</ele>
        <time>2022-04-23T11:08:09.000Z</time>
      </trkpt>
      <trkpt lat="36.84152" lon="-2.45851">
        <ele>79.09836</ele>
        <time>2022-04-23T11:08:11.000Z</time>
      </trkpt>
      <trkpt lat="36.84152" lon="-2.45851">
        <ele>79.09398</ele>
        <time>2022-04-23T11:08:14.000Z</time>
      </trkpt>
      <trkpt lat="36.84152" lon="-2.45851">
        <ele>79.09398</ele>
        <time>2022-04-23T11:08:17.000Z</time>
      </trkpt>
      <trkpt lat="36.84152" lon="-2.45851">
        <ele>79.09398</ele>
        <time>2022-04-23T11:08:23.000Z</time>
      </trkpt>
      <trkpt lat="36.84152" lon="-2.45851">
        <ele>79.082704</ele>
        <time>2022-04-23T11:08:29.000Z</time>
      </trkpt>
      <trkpt lat="36.84152" lon="-2.45851">
        <ele>79.082704</ele>
        <time>2022-04-23T11:08:39.000Z</time>
      </trkpt>
      <trkpt lat="36.84152" lon="-2.45852">
        <ele>79.071314</ele>
        <time>2022-04-23T11:08:50.000Z</time>
      </trkpt>
      <trkpt lat="36.84152" lon="-2.45852">
        <ele>79.071314</ele>
        <time>2022-04-23T11:08:59.000Z</time>
      </trkpt>
      <trkpt lat="36.84152" lon="-2.45852">
        <ele>79.071314</ele>
        <time>2022-04-23T11:09:17.000Z</time>
      </trkpt>
      <trkpt lat="36.84152" lon="-2.45852">
        <ele>79.053129</ele>
        <time>2022-04-23T11:09:25.000Z</time>
      </trkpt>
      <trkpt lat="36.84151" lon="-2.45854">
        <ele>79.028942</ele>
        <time>2022-04-23T11:09:31.000Z</time>
      </trkpt>
      <trkpt lat="36.84151" lon="-2.45853">
        <ele>79.022029</ele>
        <time>2022-04-23T11:09:33.000Z</time>
      </trkpt>
      <trkpt lat="36.84148" lon="-2.45847">
        <ele>78.895691</ele>
        <time>2022-04-23T11:09:36.000Z</time>
      </trkpt>
      <trkpt lat="36.84144" lon="-2.45838">
        <ele>78.728606</ele>
        <time>2022-04-23T11:09:41.000Z</time>
      </trkpt>
      <trkpt lat="36.84137" lon="-2.45833">
        <ele>78.567047</ele>
        <time>2022-04-23T11:09:46.000Z</time>
      </trkpt>
      <trkpt lat="36.84122" lon="-2.4584">
        <ele>78.239038</ele>
        <time>2022-04-23T11:09:53.000Z</time>
      </trkpt>
      <trkpt lat="36.84114" lon="-2.4584">
        <ele>78.074071</ele>
        <time>2022-04-23T11:09:57.000Z</time>
      </trkpt>
      <trkpt lat="36.84112" lon="-2.4584">
        <ele>78.036534</ele>
        <time>2022-04-23T11:09:58.000Z</time>
      </trkpt>
      <trkpt lat="36.841" lon="-2.45848">
        <ele>77.764085</ele>
        <time>2022-04-23T11:10:03.000Z</time>
      </trkpt>
      <trkpt lat="36.84094" lon="-2.45852">
        <ele>77.630597</ele>
        <time>2022-04-23T11:10:05.000Z</time>
      </trkpt>
      <trkpt lat="36.84074" lon="-2.45862">
        <ele>77.184138</ele>
        <time>2022-04-23T11:10:10.000Z</time>
      </trkpt>
      <trkpt lat="36.8407" lon="-2.45865">
        <ele>77.082788</ele>
        <time>2022-04-23T11:10:11.000Z</time>
      </trkpt>
      <trkpt lat="36.84048" lon="-2.45882">
        <ele>76.487422</ele>
        <time>2022-04-23T11:10:18.000Z</time>
      </trkpt>
      <trkpt lat="36.84026" lon="-2.45895">
        <ele>75.963579</ele>
        <time>2022-04-23T11:10:24.000Z</time>
      </trkpt>
      <trkpt lat="36.84019" lon="-2.45899">
        <ele>75.791835</ele>
        <time>2022-04-23T11:10:26.000Z</time>
      </trkpt>
      <trkpt lat="36.83992" lon="-2.4592">
        <ele>75.085081</ele>
        <time>2022-04-23T11:10:34.000Z</time>
      </trkpt>
      <trkpt lat="36.83971" lon="-2.45933">
        <ele>74.562409</ele>
        <time>2022-04-23T11:10:40.000Z</time>
      </trkpt>
      <trkpt lat="36.83956" lon="-2.45944">
        <ele>74.170721</ele>
        <time>2022-04-23T11:10:45.000Z</time>
      </trkpt>
      <trkpt lat="36.83936" lon="-2.45959">
        <ele>73.657311</ele>
        <time>2022-04-23T11:10:52.000Z</time>
      </trkpt>
      <trkpt lat="36.83929" lon="-2.45965">
        <ele>73.462301</ele>
        <time>2022-04-23T11:10:55.000Z</time>
      </trkpt>
      <trkpt lat="36.83929" lon="-2.45967">
        <ele>73.41963</ele>
        <time>2022-04-23T11:10:56.000Z</time>
      </trkpt>
      <trkpt lat="36.83929" lon="-2.45973">
        <ele>73.308463</ele>
        <time>2022-04-23T11:10:58.000Z</time>
      </trkpt>
      <trkpt lat="36.83927" lon="-2.45975">
        <ele>73.281549</ele>
        <time>2022-04-23T11:10:59.000Z</time>
      </trkpt>
      <trkpt lat="36.83925" lon="-2.45976">
        <ele>73.2424</ele>
        <time>2022-04-23T11:11:00.000Z</time>
      </trkpt>
      <trkpt lat="36.83917" lon="-2.4598">
        <ele>73.106695</ele>
        <time>2022-04-23T11:11:03.000Z</time>
      </trkpt>
      <trkpt lat="36.83911" lon="-2.45982">
        <ele>73.01121</ele>
        <time>2022-04-23T11:11:05.000Z</time>
      </trkpt>
      <trkpt lat="36.83908" lon="-2.45981">
        <ele>72.967633</ele>
        <time>2022-04-23T11:11:06.000Z</time>
      </trkpt>
      <trkpt lat="36.83904" lon="-2.45978">
        <ele>72.889968</ele>
        <time>2022-04-23T11:11:08.000Z</time>
      </trkpt>
      <trkpt lat="36.83899" lon="-2.45981">
        <ele>72.812344</ele>
        <time>2022-04-23T11:11:10.000Z</time>
      </trkpt>
      <trkpt lat="36.83891" lon="-2.45991">
        <ele>72.638111</ele>
        <time>2022-04-23T11:11:13.000Z</time>
      </trkpt>
      <trkpt lat="36.83887" lon="-2.45993">
        <ele>72.572773</ele>
        <time>2022-04-23T11:11:14.000Z</time>
      </trkpt>
      <trkpt lat="36.8387" lon="-2.46004">
        <ele>72.272369</ele>
        <time>2022-04-23T11:11:19.000Z</time>
      </trkpt>
      <trkpt lat="36.83866" lon="-2.46006">
        <ele>72.215851</ele>
        <time>2022-04-23T11:11:20.000Z</time>
      </trkpt>
      <trkpt lat="36.83863" lon="-2.46008">
        <ele>72.158097</ele>
        <time>2022-04-23T11:11:21.000Z</time>
      </trkpt>
      <trkpt lat="36.83846" lon="-2.46019">
        <ele>71.859937</ele>
        <time>2022-04-23T11:11:26.000Z</time>
      </trkpt>
      <trkpt lat="36.83839" lon="-2.46021">
        <ele>71.745449</ele>
        <time>2022-04-23T11:11:28.000Z</time>
      </trkpt>
      <trkpt lat="36.83828" lon="-2.46028">
        <ele>71.555384</ele>
        <time>2022-04-23T11:11:33.000Z</time>
      </trkpt>
      <trkpt lat="36.83827" lon="-2.46033">
        <ele>71.494385</ele>
        <time>2022-04-23T11:11:36.000Z</time>
      </trkpt>
      <trkpt lat="36.83827" lon="-2.46034">
        <ele>71.48054</ele>
        <time>2022-04-23T11:11:38.000Z</time>
      </trkpt>
      <trkpt lat="36.83824" lon="-2.46027">
        <ele>71.386737</ele>
        <time>2022-04-23T11:11:43.000Z</time>
      </trkpt>
      <trkpt lat="36.83824" lon="-2.46026">
        <ele>71.380545</ele>
        <time>2022-04-23T11:11:45.000Z</time>
      </trkpt>
      <trkpt lat="36.83824" lon="-2.46026">
        <ele>71.380545</ele>
        <time>2022-04-23T11:11:59.000Z</time>
      </trkpt>
      <trkpt lat="36.83824" lon="-2.46026">
        <ele>71.375709</ele>
        <time>2022-04-23T11:12:00.000Z</time>
      </trkpt>
      <trkpt lat="36.83823" lon="-2.4602">
        <ele>71.295493</ele>
        <time>2022-04-23T11:12:02.000Z</time>
      </trkpt>
      <trkpt lat="36.83822" lon="-2.46015">
        <ele>71.230464</ele>
        <time>2022-04-23T11:12:04.000Z</time>
      </trkpt>
      <trkpt lat="36.83822" lon="-2.46012">
        <ele>71.200701</ele>
        <time>2022-04-23T11:12:05.000Z</time>
      </trkpt>
      <trkpt lat="36.83822" lon="-2.4601">
        <ele>71.171381</ele>
        <time>2022-04-23T11:12:06.000Z</time>
      </trkpt>
      <trkpt lat="36.83823" lon="-2.4601">
        <ele>71.167417</ele>
        <time>2022-04-23T11:12:11.000Z</time>
      </trkpt>
      <trkpt lat="36.83821" lon="-2.46008">
        <ele>71.138297</ele>
        <time>2022-04-23T11:12:15.000Z</time>
      </trkpt>
      <trkpt lat="36.83821" lon="-2.46008">
        <ele>71.129542</ele>
        <time>2022-04-23T11:12:19.000Z</time>
      </trkpt>
      <trkpt lat="36.83821" lon="-2.46008">
        <ele>71.128304</ele>
        <time>2022-04-23T11:12:23.000Z</time>
      </trkpt>
      <trkpt lat="36.83821" lon="-2.46008">
        <ele>71.128304</ele>
        <time>2022-04-23T11:12:26.000Z</time>
      </trkpt>
      <trkpt lat="36.83821" lon="-2.46008">
        <ele>71.128304</ele>
        <time>2022-04-23T11:12:28.000Z</time>
      </trkpt>
      <trkpt lat="36.83821" lon="-2.46008">
        <ele>71.128304</ele>
        <time>2022-04-23T11:12:32.000Z</time>
      </trkpt>
      <trkpt lat="36.83821" lon="-2.46008">
        <ele>71.128304</ele>
        <time>2022-04-23T11:12:35.000Z</time>
      </trkpt>
      <trkpt lat="36.8382" lon="-2.46007">
        <ele>71.108484</ele>
        <time>2022-04-23T11:12:55.000Z</time>
      </trkpt>
      <trkpt lat="36.8382" lon="-2.46007">
        <ele>71.108484</ele>
        <time>2022-04-23T11:13:02.000Z</time>
      </trkpt>
      <trkpt lat="36.8382" lon="-2.46007">
        <ele>71.106502</ele>
        <time>2022-04-23T11:13:04.000Z</time>
      </trkpt>
      <trkpt lat="36.8382" lon="-2.46007">
        <ele>71.105263</ele>
        <time>2022-04-23T11:13:10.000Z</time>
      </trkpt>
      <trkpt lat="36.8382" lon="-2.46007">
        <ele>71.105263</ele>
        <time>2022-04-23T11:13:23.000Z</time>
      </trkpt>
      <trkpt lat="36.83819" lon="-2.46007">
        <ele>71.088859</ele>
        <time>2022-04-23T11:13:32.000Z</time>
      </trkpt>
      <trkpt lat="36.83819" lon="-2.46007">
        <ele>71.088859</ele>
        <time>2022-04-23T11:13:35.000Z</time>
      </trkpt>
      <trkpt lat="36.83796" lon="-2.46023">
        <ele>70.687967</ele>
        <time>2022-04-23T11:26:16.000Z</time>
      </trkpt>
      <trkpt lat="36.83806" lon="-2.46018">
        <ele>70.530357</ele>
        <time>2022-04-23T11:26:18.000Z</time>
      </trkpt>
      <trkpt lat="36.83812" lon="-2.46017">
        <ele>70.445638</ele>
        <time>2022-04-23T11:26:19.000Z</time>
      </trkpt>
      <trkpt lat="36.83829" lon="-2.46026">
        <ele>70.210408</ele>
        <time>2022-04-23T11:26:24.000Z</time>
      </trkpt>
      <trkpt lat="36.83832" lon="-2.46029">
        <ele>70.160113</ele>
        <time>2022-04-23T11:26:26.000Z</time>
      </trkpt>
      <trkpt lat="36.83833" lon="-2.4604">
        <ele>70.050765</ele>
        <time>2022-04-23T11:26:32.000Z</time>
      </trkpt>
      <trkpt lat="36.83833" lon="-2.46042">
        <ele>70.035263</ele>
        <time>2022-04-23T11:26:34.000Z</time>
      </trkpt>
      <trkpt lat="36.83832" lon="-2.46041">
        <ele>70.032859</ele>
        <time>2022-04-23T11:26:36.000Z</time>
      </trkpt>
      <trkpt lat="36.83832" lon="-2.46043">
        <ele>70.015158</ele>
        <time>2022-04-23T11:26:38.000Z</time>
      </trkpt>
      <trkpt lat="36.8383" lon="-2.46044">
        <ele>69.98917</ele>
        <time>2022-04-23T11:26:40.000Z</time>
      </trkpt>
      <trkpt lat="36.83828" lon="-2.46045">
        <ele>69.962909</ele>
        <time>2022-04-23T11:26:41.000Z</time>
      </trkpt>
      <trkpt lat="36.83824" lon="-2.46046">
        <ele>69.912197</ele>
        <time>2022-04-23T11:26:43.000Z</time>
      </trkpt>
      <trkpt lat="36.83815" lon="-2.46047">
        <ele>69.795743</ele>
        <time>2022-04-23T11:26:47.000Z</time>
      </trkpt>
      <trkpt lat="36.83813" lon="-2.46046">
        <ele>69.763588</ele>
        <time>2022-04-23T11:26:48.000Z</time>
      </trkpt>
      <trkpt lat="36.83805" lon="-2.46043">
        <ele>69.664172</ele>
        <time>2022-04-23T11:26:51.000Z</time>
      </trkpt>
      <trkpt lat="36.83798" lon="-2.46048">
        <ele>69.560223</ele>
        <time>2022-04-23T11:26:54.000Z</time>
      </trkpt>
      <trkpt lat="36.83776" lon="-2.46061">
        <ele>69.242882</ele>
        <time>2022-04-23T11:27:01.000Z</time>
      </trkpt>
      <trkpt lat="36.83772" lon="-2.46062">
        <ele>69.197415</ele>
        <time>2022-04-23T11:27:02.000Z</time>
      </trkpt>
      <trkpt lat="36.8376" lon="-2.4607">
        <ele>69.023245</ele>
        <time>2022-04-23T11:27:06.000Z</time>
      </trkpt>
      <trkpt lat="36.83757" lon="-2.46072">
        <ele>68.981813</ele>
        <time>2022-04-23T11:27:07.000Z</time>
      </trkpt>
      <trkpt lat="36.83755" lon="-2.46074">
        <ele>68.943951</ele>
        <time>2022-04-23T11:27:08.000Z</time>
      </trkpt>
      <trkpt lat="36.83732" lon="-2.46088">
        <ele>68.61762</ele>
        <time>2022-04-23T11:27:16.000Z</time>
      </trkpt>
      <trkpt lat="36.83707" lon="-2.46103">
        <ele>68.271687</ele>
        <time>2022-04-23T11:27:24.000Z</time>
      </trkpt>
      <trkpt lat="36.83704" lon="-2.46105">
        <ele>68.221673</ele>
        <time>2022-04-23T11:27:25.000Z</time>
      </trkpt>
      <trkpt lat="36.8369" lon="-2.46115">
        <ele>67.85222</ele>
        <time>2022-04-23T11:27:29.000Z</time>
      </trkpt>
      <trkpt lat="36.83687" lon="-2.46116">
        <ele>67.7776</ele>
        <time>2022-04-23T11:27:30.000Z</time>
      </trkpt>
      <trkpt lat="36.83685" lon="-2.46118">
        <ele>67.703278</ele>
        <time>2022-04-23T11:27:31.000Z</time>
      </trkpt>
      <trkpt lat="36.83668" lon="-2.46131">
        <ele>67.251508</ele>
        <time>2022-04-23T11:27:36.000Z</time>
      </trkpt>
      <trkpt lat="36.83661" lon="-2.46136">
        <ele>67.077513</ele>
        <time>2022-04-23T11:27:38.000Z</time>
      </trkpt>
      <trkpt lat="36.83644" lon="-2.46147">
        <ele>66.630006</ele>
        <time>2022-04-23T11:27:44.000Z</time>
      </trkpt>
      <trkpt lat="36.83629" lon="-2.46157">
        <ele>66.23175</ele>
        <time>2022-04-23T11:27:50.000Z</time>
      </trkpt>
      <trkpt lat="36.83619" lon="-2.46164">
        <ele>65.965597</ele>
        <time>2022-04-23T11:27:55.000Z</time>
      </trkpt>
      <trkpt lat="36.83606" lon="-2.46172">
        <ele>65.636609</ele>
        <time>2022-04-23T11:27:59.000Z</time>
      </trkpt>
      <trkpt lat="36.83583" lon="-2.46187">
        <ele>65.031222</ele>
        <time>2022-04-23T11:28:06.000Z</time>
      </trkpt>
      <trkpt lat="36.83565" lon="-2.46201">
        <ele>64.551373</ele>
        <time>2022-04-23T11:28:11.000Z</time>
      </trkpt>
      <trkpt lat="36.83562" lon="-2.46203">
        <ele>64.47705</ele>
        <time>2022-04-23T11:28:12.000Z</time>
      </trkpt>
      <trkpt lat="36.83552" lon="-2.46209">
        <ele>64.224291</ele>
        <time>2022-04-23T11:28:15.000Z</time>
      </trkpt>
      <trkpt lat="36.83543" lon="-2.46215">
        <ele>64.092073</ele>
        <time>2022-04-23T11:28:19.000Z</time>
      </trkpt>
      <trkpt lat="36.83538" lon="-2.46216">
        <ele>64.092073</ele>
        <time>2022-04-23T11:28:20.000Z</time>
      </trkpt>
      <trkpt lat="36.83523" lon="-2.46228">
        <ele>64.092073</ele>
        <time>2022-04-23T11:28:26.000Z</time>
      </trkpt>
      <trkpt lat="36.83521" lon="-2.46232">
        <ele>64.092073</ele>
        <time>2022-04-23T11:28:28.000Z</time>
      </trkpt>
      <trkpt lat="36.83521" lon="-2.46235">
        <ele>64.092073</ele>
        <time>2022-04-23T11:28:29.000Z</time>
      </trkpt>
      <trkpt lat="36.83521" lon="-2.4624">
        <ele>64.092073</ele>
        <time>2022-04-23T11:28:31.000Z</time>
      </trkpt>
      <trkpt lat="36.83517" lon="-2.46244">
        <ele>64.092073</ele>
        <time>2022-04-23T11:28:33.000Z</time>
      </trkpt>
      <trkpt lat="36.8351" lon="-2.46249">
        <ele>64.092073</ele>
        <time>2022-04-23T11:28:36.000Z</time>
      </trkpt>
      <trkpt lat="36.83502" lon="-2.46258">
        <ele>64.092073</ele>
        <time>2022-04-23T11:28:41.000Z</time>
      </trkpt>
      <trkpt lat="36.83502" lon="-2.4626">
        <ele>64.092073</ele>
        <time>2022-04-23T11:28:42.000Z</time>
      </trkpt>
      <trkpt lat="36.83504" lon="-2.46268">
        <ele>64.092073</ele>
        <time>2022-04-23T11:28:45.000Z</time>
      </trkpt>
      <trkpt lat="36.83505" lon="-2.46274">
        <ele>64.092073</ele>
        <time>2022-04-23T11:28:47.000Z</time>
      </trkpt>
      <trkpt lat="36.83503" lon="-2.4628">
        <ele>64.092073</ele>
        <time>2022-04-23T11:28:49.000Z</time>
      </trkpt>
      <trkpt lat="36.83492" lon="-2.46289">
        <ele>64.092073</ele>
        <time>2022-04-23T11:28:54.000Z</time>
      </trkpt>
      <trkpt lat="36.83491" lon="-2.4629">
        <ele>64.092073</ele>
        <time>2022-04-23T11:28:56.000Z</time>
      </trkpt>
      <trkpt lat="36.83491" lon="-2.46292">
        <ele>64.092073</ele>
        <time>2022-04-23T11:29:00.000Z</time>
      </trkpt>
      <trkpt lat="36.83492" lon="-2.46294">
        <ele>64.092073</ele>
        <time>2022-04-23T11:29:02.000Z</time>
      </trkpt>
      <trkpt lat="36.83496" lon="-2.46302">
        <ele>64.092073</ele>
        <time>2022-04-23T11:29:06.000Z</time>
      </trkpt>
      <trkpt lat="36.83496" lon="-2.46304">
        <ele>64.092073</ele>
        <time>2022-04-23T11:29:07.000Z</time>
      </trkpt>
      <trkpt lat="36.83495" lon="-2.46306">
        <ele>64.092073</ele>
        <time>2022-04-23T11:29:08.000Z</time>
      </trkpt>
      <trkpt lat="36.83491" lon="-2.4631">
        <ele>64.092073</ele>
        <time>2022-04-23T11:29:11.000Z</time>
      </trkpt>
      <trkpt lat="36.83485" lon="-2.46314">
        <ele>64.092073</ele>
        <time>2022-04-23T11:29:15.000Z</time>
      </trkpt>
      <trkpt lat="36.83477" lon="-2.46323">
        <ele>64.092073</ele>
        <time>2022-04-23T11:29:19.000Z</time>
      </trkpt>
      <trkpt lat="36.83467" lon="-2.46329">
        <ele>64.092073</ele>
        <time>2022-04-23T11:29:23.000Z</time>
      </trkpt>
      <trkpt lat="36.83456" lon="-2.46338">
        <ele>64.092073</ele>
        <time>2022-04-23T11:29:29.000Z</time>
      </trkpt>
      <trkpt lat="36.83457" lon="-2.46339">
        <ele>64.092073</ele>
        <time>2022-04-23T11:29:30.000Z</time>
      </trkpt>
      <trkpt lat="36.83458" lon="-2.46341">
        <ele>64.092073</ele>
        <time>2022-04-23T11:29:32.000Z</time>
      </trkpt>
      <trkpt lat="36.8346" lon="-2.46344">
        <ele>64.092073</ele>
        <time>2022-04-23T11:29:34.000Z</time>
      </trkpt>
      <trkpt lat="36.83462" lon="-2.46358">
        <ele>64.092073</ele>
        <time>2022-04-23T11:29:38.000Z</time>
      </trkpt>
      <trkpt lat="36.83463" lon="-2.46362">
        <ele>64.092073</ele>
        <time>2022-04-23T11:29:39.000Z</time>
      </trkpt>
      <trkpt lat="36.83461" lon="-2.46364">
        <ele>64.092073</ele>
        <time>2022-04-23T11:29:41.000Z</time>
      </trkpt>
    </trkseg>
  </trk>
</gpx>